Wetterdaten: Sonntag, 02.07.2017
Datum Zeit Temp. A. Pool Temp. Feuchte A. Luftdruck Regen Wind Richtung Richtung Sonnenschein ET UV Solar Taupunkt Windchill Windben Empfang
02.07.2017 00:00 17,3 C 22,8 C 66 % 1012,9 hPa 0,0 l/m 12,8 km/h (3 Bft) SW 219 0 min 0,000 mm 0,0 UV-I 0 W/m 10,9 C 14,7 C 17,7 km/h (3 Bft) 98,11 %
02.07.2017 00:02 17,3 C 22,8 C 66 % 1012,8 hPa 0,0 l/m 11,5 km/h (2 Bft) W-SW 249 0 min 0,000 mm 0,0 UV-I 0 W/m 10,9 C 15,1 C 17,7 km/h (3 Bft) 95,65 %
02.07.2017 00:04 17,3 C 22,8 C 66 % 1012,8 hPa 0,0 l/m 13,2 km/h (3 Bft) SW 232 0 min 0,000 mm 0,0 UV-I 0 W/m 10,9 C 14,5 C 19,3 km/h (3 Bft) 100,00 %
02.07.2017 00:06 17,4 C 22,8 C 66 % 1012,8 hPa 0,0 l/m 13,5 km/h (3 Bft) SW 233 0 min 0,000 mm 0,0 UV-I 0 W/m 11,0 C 14,5 C 20,9 km/h (4 Bft) 95,12 %
02.07.2017 00:08 17,4 C 22,8 C 66 % 1012,8 hPa 0,0 l/m 13,4 km/h (3 Bft) SW 232 0 min 0,000 mm 0,0 UV-I 0 W/m 11,0 C 14,6 C 17,7 km/h (3 Bft) 100,00 %
02.07.2017 00:10 17,4 C 22,8 C 66 % 1012,9 hPa 0,0 l/m 12,4 km/h (3 Bft) SW 226 0 min 0,000 mm 0,0 UV-I 0 W/m 11,0 C 14,9 C 22,5 km/h (4 Bft) 98,11 %
02.07.2017 00:12 17,4 C 22,8 C 66 % 1012,9 hPa 0,0 l/m 13,0 km/h (3 Bft) SW 235 0 min 0,000 mm 0,0 UV-I 0 W/m 11,0 C 14,7 C 24,1 km/h (4 Bft) 100,00 %
02.07.2017 00:14 17,4 C 22,8 C 66 % 1012,9 hPa 0,0 l/m 12,8 km/h (3 Bft) W-SW 239 0 min 0,000 mm 0,0 UV-I 0 W/m 11,0 C 14,8 C 22,5 km/h (4 Bft) 98,00 %
02.07.2017 00:16 17,3 C 22,8 C 66 % 1012,8 hPa 0,0 l/m 13,7 km/h (3 Bft) W-SW 240 0 min 0,000 mm 0,0 UV-I 0 W/m 10,9 C 14,4 C 17,7 km/h (3 Bft) 100,00 %
02.07.2017 00:18 17,3 C 22,8 C 66 % 1012,8 hPa 0,0 l/m 13,7 km/h (3 Bft) W-SW 248 0 min 0,000 mm 0,0 UV-I 0 W/m 10,9 C 14,4 C 20,9 km/h (4 Bft) 100,00 %
02.07.2017 00:20 17,3 C 22,8 C 66 % 1012,8 hPa 0,0 l/m 12,6 km/h (3 Bft) SW 219 0 min 0,000 mm 0,0 UV-I 0 W/m 10,9 C 14,7 C 20,9 km/h (4 Bft) 98,21 %
02.07.2017 00:22 17,3 C 22,8 C 66 % 1012,8 hPa 0,0 l/m 13,4 km/h (3 Bft) SW 219 0 min 0,000 mm 0,0 UV-I 0 W/m 10,9 C 14,5 C 17,7 km/h (3 Bft) 97,73 %
02.07.2017 00:24 17,3 C 22,8 C 67 % 1012,9 hPa 0,0 l/m 13,6 km/h (3 Bft) W-SW 240 0 min 0,000 mm 0,0 UV-I 0 W/m 11,1 C 14,4 C 19,3 km/h (3 Bft) 98,00 %
02.07.2017 00:26 17,3 C 22,8 C 67 % 1012,8 hPa 0,0 l/m 13,2 km/h (3 Bft) SW 231 0 min 0,000 mm 0,0 UV-I 0 W/m 11,1 C 14,5 C 17,7 km/h (3 Bft) 97,56 %
02.07.2017 00:28 17,3 C 22,8 C 67 % 1012,8 hPa 0,0 l/m 12,4 km/h (3 Bft) W-SW 248 0 min 0,000 mm 0,0 UV-I 0 W/m 11,1 C 14,8 C 19,3 km/h (3 Bft) 98,00 %
02.07.2017 00:30 17,3 C 22,8 C 67 % 1012,9 hPa 0,0 l/m 12,6 km/h (3 Bft) W-SW 237 0 min 0,000 mm 0,0 UV-I 0 W/m 11,1 C 14,7 C 20,9 km/h (4 Bft) 98,00 %
02.07.2017 00:32 17,3 C 22,8 C 67 % 1012,9 hPa 0,0 l/m 13,0 km/h (3 Bft) W-SW 256 0 min 0,000 mm 0,0 UV-I 0 W/m 11,1 C 14,6 C 19,3 km/h (3 Bft) 100,00 %
02.07.2017 00:34 17,2 C 22,8 C 67 % 1012,9 hPa 0,0 l/m 14,9 km/h (3 Bft) W-SW 243 0 min 0,000 mm 0,0 UV-I 0 W/m 11,0 C 13,9 C 25,7 km/h (4 Bft) 100,00 %
02.07.2017 00:36 17,2 C 22,8 C 67 % 1013,0 hPa 0,0 l/m 12,5 km/h (3 Bft) S-SW 213 0 min 0,000 mm 0,0 UV-I 0 W/m 11,0 C 14,6 C 20,9 km/h (4 Bft) 100,00 %
02.07.2017 00:38 17,2 C 22,8 C 68 % 1012,9 hPa 0,0 l/m 13,2 km/h (3 Bft) W-SW 244 0 min 0,000 mm 0,0 UV-I 0 W/m 11,2 C 14,4 C 19,3 km/h (3 Bft) 100,00 %
02.07.2017 00:40 17,2 C 22,8 C 67 % 1012,9 hPa 0,0 l/m 14,5 km/h (3 Bft) SW 227 0 min 0,000 mm 0,0 UV-I 0 W/m 11,0 C 14,0 C 22,5 km/h (4 Bft) 100,00 %
02.07.2017 00:42 17,1 C 22,8 C 68 % 1012,9 hPa 0,0 l/m 14,0 km/h (3 Bft) SW 226 0 min 0,000 mm 0,0 UV-I 0 W/m 11,1 C 14,0 C 20,9 km/h (4 Bft) 100,00 %
02.07.2017 00:44 17,1 C 22,8 C 67 % 1012,9 hPa 0,0 l/m 13,6 km/h (3 Bft) SW 231 0 min 0,000 mm 0,0 UV-I 0 W/m 10,9 C 14,2 C 19,3 km/h (3 Bft) 97,56 %
02.07.2017 00:46 17,1 C 22,8 C 68 % 1013,0 hPa 0,0 l/m 13,3 km/h (3 Bft) SW 234 0 min 0,000 mm 0,0 UV-I 0 W/m 11,1 C 14,3 C 22,5 km/h (4 Bft) 100,00 %
02.07.2017 00:48 17,1 C 22,8 C 68 % 1012,9 hPa 0,0 l/m 14,4 km/h (3 Bft) SW 226 0 min 0,000 mm 0,0 UV-I 0 W/m 11,1 C 13,9 C 24,1 km/h (4 Bft) 98,39 %
02.07.2017 00:50 17,1 C 22,8 C 68 % 1012,9 hPa 0,0 l/m 15,0 km/h (3 Bft) SW 236 0 min 0,000 mm 0,0 UV-I 0 W/m 11,1 C 13,7 C 22,5 km/h (4 Bft) 100,00 %
02.07.2017 00:52 17,1 C 22,8 C 68 % 1013,0 hPa 0,0 l/m 11,8 km/h (2 Bft) W-SW 240 0 min 0,000 mm 0,0 UV-I 0 W/m 11,1 C 14,8 C 17,7 km/h (3 Bft) 100,00 %
02.07.2017 00:54 17,1 C 22,2 C 68 % 1012,9 hPa 0,0 l/m 13,6 km/h (3 Bft) W-SW 250 0 min 0,000 mm 0,0 UV-I 0 W/m 11,1 C 14,2 C 20,9 km/h (4 Bft) 97,56 %
02.07.2017 00:56 17,0 C 22,2 C 68 % 1012,9 hPa 0,0 l/m 15,1 km/h (3 Bft) W-SW 250 0 min 0,000 mm 0,0 UV-I 0 W/m 11,0 C 13,6 C 20,9 km/h (4 Bft) 96,23 %
02.07.2017 00:58 17,0 C 22,2 C 68 % 1012,8 hPa 0,0 l/m 12,6 km/h (3 Bft) W-SW 247 0 min 0,000 mm 0,0 UV-I 0 W/m 11,0 C 14,4 C 17,7 km/h (3 Bft) 100,00 %
02.07.2017 01:00 17,0 C 22,2 C 68 % 1012,9 hPa 0,0 l/m 13,1 km/h (3 Bft) SW 223 0 min 0,051 mm 0,0 UV-I 0 W/m 11,0 C 14,2 C 17,7 km/h (3 Bft) 95,74 %
02.07.2017 01:01 16,9 C 22,2 C 68 % 1012,9 hPa 0,0 l/m 12,8 km/h (3 Bft) SW 231 0 min 0,000 mm 0,0 UV-I 0 W/m 11,0 C 14,2 C 19,3 km/h (3 Bft) 100,00 %
02.07.2017 01:04 16,9 C 22,2 C 68 % 1012,9 hPa 0,0 l/m 11,5 km/h (2 Bft) W-SW 238 0 min 0,000 mm 0,0 UV-I 0 W/m 11,0 C 14,6 C 16,1 km/h (3 Bft) 94,34 %
02.07.2017 01:06 16,9 C 22,2 C 68 % 1012,9 hPa 0,0 l/m 11,5 km/h (2 Bft) SW 229 0 min 0,000 mm 0,0 UV-I 0 W/m 11,0 C 14,6 C 16,1 km/h (3 Bft) 97,37 %
02.07.2017 01:08 16,9 C 22,2 C 68 % 1012,9 hPa 0,0 l/m 13,9 km/h (3 Bft) SW 231 0 min 0,000 mm 0,0 UV-I 0 W/m 11,0 C 13,8 C 20,9 km/h (4 Bft) 93,18 %
02.07.2017 01:10 16,8 C 22,2 C 68 % 1012,9 hPa 0,0 l/m 14,6 km/h (3 Bft) SW 234 0 min 0,000 mm 0,0 UV-I 0 W/m 10,9 C 13,5 C 20,9 km/h (4 Bft) 98,21 %
02.07.2017 01:12 16,8 C 22,2 C 68 % 1012,9 hPa 0,0 l/m 12,2 km/h (2 Bft) SW 231 0 min 0,000 mm 0,0 UV-I 0 W/m 10,9 C 14,3 C 19,3 km/h (3 Bft) 95,12 %
02.07.2017 01:14 16,8 C 22,2 C 69 % 1012,9 hPa 0,0 l/m 13,0 km/h (3 Bft) W-SW 240 0 min 0,000 mm 0,0 UV-I 0 W/m 11,1 C 14,0 C 17,7 km/h (3 Bft) 96,23 %
02.07.2017 01:16 16,8 C 22,2 C 69 % 1012,9 hPa 0,0 l/m 12,1 km/h (2 Bft) W-SW 256 0 min 0,000 mm 0,0 UV-I 0 W/m 11,1 C 14,3 C 19,3 km/h (3 Bft) 97,87 %
02.07.2017 01:18 16,8 C 22,2 C 69 % 1012,9 hPa 0,0 l/m 12,4 km/h (3 Bft) SW 230 0 min 0,000 mm 0,0 UV-I 0 W/m 11,1 C 14,2 C 17,7 km/h (3 Bft) 94,87 %
02.07.2017 01:20 16,8 C 22,2 C 69 % 1012,9 hPa 0,0 l/m 11,2 km/h (2 Bft) W-SW 241 0 min 0,000 mm 0,0 UV-I 0 W/m 11,1 C 14,6 C 19,3 km/h (3 Bft) 94,55 %
02.07.2017 01:22 16,7 C 22,2 C 69 % 1012,9 hPa 0,0 l/m 12,6 km/h (3 Bft) S-SW 213 0 min 0,000 mm 0,0 UV-I 0 W/m 11,0 C 14,0 C 17,7 km/h (3 Bft) 95,24 %
02.07.2017 01:24 16,7 C 22,2 C 69 % 1012,9 hPa 0,0 l/m 11,9 km/h (2 Bft) S-SW 210 0 min 0,000 mm 0,0 UV-I 0 W/m 11,0 C 14,3 C 19,3 km/h (3 Bft) 97,73 %
02.07.2017 01:26 16,7 C 22,2 C 69 % 1012,9 hPa 0,0 l/m 14,3 km/h (3 Bft) W-SW 241 0 min 0,000 mm 0,0 UV-I 0 W/m 11,0 C 13,5 C 24,1 km/h (4 Bft) 92,45 %
02.07.2017 01:28 16,7 C 22,2 C 69 % 1012,9 hPa 0,0 l/m 14,5 km/h (3 Bft) S-SW 213 0 min 0,000 mm 0,0 UV-I 0 W/m 11,0 C 13,4 C 22,5 km/h (4 Bft) 94,00 %
02.07.2017 01:30 16,7 C 22,2 C 69 % 1012,9 hPa 0,0 l/m 15,8 km/h (3 Bft) SW 223 0 min 0,000 mm 0,0 UV-I 0 W/m 11,0 C 13,0 C 25,7 km/h (4 Bft) 92,11 %
02.07.2017 01:32 16,7 C 22,2 C 69 % 1012,9 hPa 0,0 l/m 15,9 km/h (3 Bft) W-SW 241 0 min 0,000 mm 0,0 UV-I 0 W/m 11,0 C 13,0 C 20,9 km/h (4 Bft) 93,62 %
02.07.2017 01:34 16,7 C 22,2 C 69 % 1012,9 hPa 0,0 l/m 14,2 km/h (3 Bft) SW 218 0 min 0,000 mm 0,0 UV-I 0 W/m 11,0 C 13,5 C 19,3 km/h (3 Bft) 98,21 %
02.07.2017 01:36 16,7 C 22,2 C 68 % 1013,0 hPa 0,0 l/m 14,1 km/h (3 Bft) SW 217 0 min 0,000 mm 0,0 UV-I 0 W/m 10,8 C 13,5 C 20,9 km/h (4 Bft) 89,47 %
02.07.2017 01:38 16,7 C 22,2 C 68 % 1012,9 hPa 0,0 l/m 14,6 km/h (3 Bft) SW 229 0 min 0,000 mm 0,0 UV-I 0 W/m 10,8 C 13,4 C 22,5 km/h (4 Bft) 96,23 %
02.07.2017 01:40 16,7 C 22,2 C 68 % 1012,9 hPa 0,0 l/m 12,5 km/h (3 Bft) W-SW 245 0 min 0,000 mm 0,0 UV-I 0 W/m 10,8 C 14,1 C 20,9 km/h (4 Bft) 89,66 %
02.07.2017 01:42 16,7 C 22,2 C 68 % 1012,9 hPa 0,0 l/m 14,1 km/h (3 Bft) W-SW 238 0 min 0,000 mm 0,0 UV-I 0 W/m 10,8 C 13,5 C 20,9 km/h (4 Bft) 96,23 %
02.07.2017 01:44 16,7 C 22,2 C 68 % 1013,0 hPa 0,0 l/m 15,0 km/h (3 Bft) SW 223 0 min 0,000 mm 0,0 UV-I 0 W/m 10,8 C 13,3 C 22,5 km/h (4 Bft) 94,44 %
02.07.2017 01:46 16,7 C 22,2 C 68 % 1013,1 hPa 0,0 l/m 14,9 km/h (3 Bft) S-SW 203 0 min 0,000 mm 0,0 UV-I 0 W/m 10,8 C 13,3 C 22,5 km/h (4 Bft) 91,49 %
02.07.2017 01:48 16,7 C 22,2 C 68 % 1013,0 hPa 0,0 l/m 13,0 km/h (3 Bft) W 264 0 min 0,000 mm 0,0 UV-I 0 W/m 10,8 C 13,9 C 20,9 km/h (4 Bft) 92,00 %
02.07.2017 01:50 16,7 C 22,2 C 69 % 1013,0 hPa 0,0 l/m 15,7 km/h (3 Bft) S 189 0 min 0,000 mm 0,0 UV-I 0 W/m 11,0 C 13,0 C 25,7 km/h (4 Bft) 94,00 %
02.07.2017 01:52 16,7 C 22,2 C 69 % 1013,0 hPa 0,0 l/m 15,7 km/h (3 Bft) SW 227 0 min 0,000 mm 0,0 UV-I 0 W/m 11,0 C 13,0 C 24,1 km/h (4 Bft) 92,68 %
02.07.2017 01:54 16,7 C 22,2 C 69 % 1013,0 hPa 0,0 l/m 15,0 km/h (3 Bft) SW 236 0 min 0,000 mm 0,0 UV-I 0 W/m 11,0 C 13,3 C 27,4 km/h (4 Bft) 96,23 %
02.07.2017 01:56 16,7 C 22,2 C 68 % 1013,1 hPa 0,0 l/m 16,4 km/h (3 Bft) SW 231 0 min 0,000 mm 0,0 UV-I 0 W/m 10,8 C 12,9 C 27,4 km/h (4 Bft) 95,45 %
02.07.2017 01:58 16,7 C 22,2 C 68 % 1013,1 hPa 0,0 l/m 15,1 km/h (3 Bft) SW 225 0 min 0,000 mm 0,0 UV-I 0 W/m 10,8 C 13,2 C 25,7 km/h (4 Bft) 93,62 %
02.07.2017 02:00 16,8 C 22,2 C 68 % 1013,1 hPa 0,0 l/m 17,2 km/h (3 Bft) SW 227 0 min 0,051 mm 0,0 UV-I 0 W/m 10,9 C 12,8 C 24,1 km/h (4 Bft) 97,44 %
02.07.2017 02:02 16,8 C 22,2 C 68 % 1013,1 hPa 0,0 l/m 15,0 km/h (3 Bft) W-SW 244 0 min 0,000 mm 0,0 UV-I 0 W/m 10,9 C 13,4 C 22,5 km/h (4 Bft) 96,00 %
02.07.2017 02:04 16,8 C 22,2 C 68 % 1013,1 hPa 0,0 l/m 15,6 km/h (3 Bft) W-SW 244 0 min 0,000 mm 0,0 UV-I 0 W/m 10,9 C 13,2 C 27,4 km/h (4 Bft) 92,68 %
02.07.2017 02:06 16,8 C 22,2 C 68 % 1013,1 hPa 0,0 l/m 16,2 km/h (3 Bft) SW 217 0 min 0,000 mm 0,0 UV-I 0 W/m 10,9 C 13,0 C 24,1 km/h (4 Bft) 96,23 %
02.07.2017 02:08 16,8 C 22,2 C 68 % 1013,2 hPa 0,0 l/m 13,8 km/h (3 Bft) W-SW 238 0 min 0,000 mm 0,0 UV-I 0 W/m 10,9 C 13,7 C 20,9 km/h (4 Bft) 95,12 %
02.07.2017 02:10 16,8 C 22,2 C 68 % 1013,2 hPa 0,0 l/m 14,8 km/h (3 Bft) W-SW 248 0 min 0,000 mm 0,0 UV-I 0 W/m 10,9 C 13,4 C 22,5 km/h (4 Bft) 94,92 %
02.07.2017 02:12 16,8 C 22,2 C 68 % 1013,2 hPa 0,0 l/m 12,3 km/h (3 Bft) W 261 0 min 0,000 mm 0,0 UV-I 0 W/m 10,9 C 14,2 C 20,9 km/h (4 Bft) 94,74 %
02.07.2017 02:14 16,8 C 22,2 C 68 % 1013,2 hPa 0,0 l/m 12,1 km/h (2 Bft) SW 234 0 min 0,000 mm 0,0 UV-I 0 W/m 10,9 C 14,3 C 19,3 km/h (3 Bft) 97,87 %
02.07.2017 02:16 16,8 C 22,2 C 68 % 1013,2 hPa 0,0 l/m 12,1 km/h (2 Bft) SW 220 0 min 0,000 mm 0,0 UV-I 0 W/m 10,9 C 14,3 C 19,3 km/h (3 Bft) 96,00 %
02.07.2017 02:18 16,8 C 22,2 C 68 % 1013,2 hPa 0,0 l/m 10,1 km/h (2 Bft) SW 227 0 min 0,000 mm 0,0 UV-I 0 W/m 10,9 C 15,1 C 16,1 km/h (3 Bft) 95,45 %
02.07.2017 02:20 16,8 C 22,2 C 68 % 1013,3 hPa 0,0 l/m 9,7 km/h (2 Bft) W-SW 246 0 min 0,000 mm 0,0 UV-I 0 W/m 10,9 C 15,2 C 16,1 km/h (3 Bft) 100,00 %
02.07.2017 02:22 16,8 C 22,2 C 68 % 1013,3 hPa 0,0 l/m 12,4 km/h (3 Bft) W-SW 248 0 min 0,000 mm 0,0 UV-I 0 W/m 10,9 C 14,2 C 16,1 km/h (3 Bft) 96,00 %
02.07.2017 02:24 16,8 C 22,2 C 68 % 1013,3 hPa 0,0 l/m 12,8 km/h (3 Bft) SW 234 0 min 0,000 mm 0,0 UV-I 0 W/m 10,9 C 14,1 C 20,9 km/h (4 Bft) 98,00 %
02.07.2017 02:26 16,8 C 22,2 C 68 % 1013,2 hPa 0,0 l/m 12,8 km/h (3 Bft) SW 223 0 min 0,000 mm 0,0 UV-I 0 W/m 10,9 C 14,1 C 19,3 km/h (3 Bft) 100,00 %
02.07.2017 02:28 16,8 C 22,2 C 68 % 1013,3 hPa 0,0 l/m 13,5 km/h (3 Bft) W-SW 252 0 min 0,000 mm 0,0 UV-I 0 W/m 10,9 C 13,8 C 20,9 km/h (4 Bft) 98,00 %
02.07.2017 02:30 16,8 C 22,2 C 68 % 1013,3 hPa 0,0 l/m 11,5 km/h (2 Bft) W-SW 254 0 min 0,000 mm 0,0 UV-I 0 W/m 10,9 C 14,5 C 20,9 km/h (4 Bft) 100,00 %
02.07.2017 02:32 16,8 C 22,2 C 68 % 1013,3 hPa 0,0 l/m 10,1 km/h (2 Bft) W-SW 238 0 min 0,000 mm 0,0 UV-I 0 W/m 10,9 C 15,1 C 14,5 km/h (3 Bft) 95,56 %
02.07.2017 02:34 16,8 C 22,2 C 68 % 1013,3 hPa 0,0 l/m 13,0 km/h (3 Bft) W-SW 246 0 min 0,000 mm 0,0 UV-I 0 W/m 10,9 C 14,0 C 19,3 km/h (3 Bft) 97,96 %
02.07.2017 02:36 16,8 C 22,2 C 68 % 1013,3 hPa 0,0 l/m 13,7 km/h (3 Bft) W-SW 240 0 min 0,000 mm 0,0 UV-I 0 W/m 10,9 C 13,8 C 17,7 km/h (3 Bft) 97,78 %
02.07.2017 02:38 16,8 C 22,2 C 68 % 1013,3 hPa 0,0 l/m 9,0 km/h (2 Bft) SW 233 0 min 0,000 mm 0,0 UV-I 0 W/m 10,9 C 15,5 C 16,1 km/h (3 Bft) 98,18 %
02.07.2017 02:40 16,9 C 22,2 C 68 % 1013,3 hPa 0,0 l/m 8,8 km/h (2 Bft) W-SW 252 0 min 0,000 mm 0,0 UV-I 0 W/m 11,0 C 15,7 C 14,5 km/h (3 Bft) 100,00 %
02.07.2017 02:42 16,9 C 22,2 C 68 % 1013,3 hPa 0,0 l/m 6,3 km/h (2 Bft) W-SW 246 0 min 0,000 mm 0,0 UV-I 0 W/m 11,0 C 16,9 C 11,3 km/h (2 Bft) 98,00 %
02.07.2017 02:44 16,8 C 22,2 C 68 % 1013,3 hPa 0,0 l/m 7,8 km/h (2 Bft) SW 234 0 min 0,000 mm 0,0 UV-I 0 W/m 10,9 C 16,1 C 12,9 km/h (3 Bft) 100,00 %
02.07.2017 02:46 16,8 C 22,2 C 69 % 1013,3 hPa 0,0 l/m 6,9 km/h (2 Bft) SW 236 0 min 0,000 mm 0,0 UV-I 0 W/m 11,1 C 16,5 C 9,7 km/h (2 Bft) 98,21 %
02.07.2017 02:48 16,8 C 22,2 C 69 % 1013,3 hPa 0,0 l/m 5,6 km/h (1 Bft) SW 221 0 min 0,000 mm 0,0 UV-I 0 W/m 11,1 C 16,8 C 9,7 km/h (2 Bft) 100,00 %
02.07.2017 02:50 16,7 C 22,2 C 69 % 1013,3 hPa 0,0 l/m 7,9 km/h (2 Bft) W-SW 237 0 min 0,000 mm 0,0 UV-I 0 W/m 11,0 C 15,9 C 11,3 km/h (2 Bft) 100,00 %
02.07.2017 02:52 16,7 C 22,2 C 69 % 1013,2 hPa 0,0 l/m 7,7 km/h (2 Bft) SW 224 0 min 0,000 mm 0,0 UV-I 0 W/m 11,0 C 16,0 C 11,3 km/h (2 Bft) 98,11 %
02.07.2017 02:54 16,6 C 22,2 C 69 % 1013,2 hPa 0,0 l/m 7,6 km/h (2 Bft) SW 232 0 min 0,000 mm 0,0 UV-I 0 W/m 10,9 C 16,0 C 11,3 km/h (2 Bft) 97,56 %
02.07.2017 02:56 16,6 C 22,2 C 69 % 1013,2 hPa 0,0 l/m 7,6 km/h (2 Bft) S-SW 209 0 min 0,000 mm 0,0 UV-I 0 W/m 10,9 C 16,0 C 11,3 km/h (2 Bft) 97,87 %
02.07.2017 02:58 16,6 C 22,2 C 69 % 1013,3 hPa 0,0 l/m 8,6 km/h (2 Bft) SW 227 0 min 0,000 mm 0,0 UV-I 0 W/m 10,9 C 15,5 C 12,9 km/h (3 Bft) 97,87 %
02.07.2017 03:00 16,6 C 22,2 C 70 % 1013,3 hPa 0,0 l/m 9,0 km/h (2 Bft) SW 218 0 min 0,050 mm 0,0 UV-I 0 W/m 11,1 C 15,3 C 14,5 km/h (3 Bft) 97,87 %
02.07.2017 03:02 16,5 C 22,2 C 70 % 1013,3 hPa 0,0 l/m 10,0 km/h (2 Bft) SW 236 0 min 0,000 mm 0,0 UV-I 0 W/m 11,0 C 14,8 C 16,1 km/h (3 Bft) 100,00 %
02.07.2017 03:04 16,5 C 22,2 C 70 % 1013,3 hPa 0,0 l/m 10,6 km/h (2 Bft) SW 219 0 min 0,000 mm 0,0 UV-I 0 W/m 11,0 C 14,5 C 16,1 km/h (3 Bft) 97,56 %
02.07.2017 03:06 16,4 C 22,2 C 70 % 1013,3 hPa 0,0 l/m 10,4 km/h (2 Bft) SW 234 0 min 0,000 mm 0,0 UV-I 0 W/m 10,9 C 14,5 C 14,5 km/h (3 Bft) 100,00 %
02.07.2017 03:08 16,4 C 22,2 C 70 % 1013,2 hPa 0,0 l/m 10,2 km/h (2 Bft) SW 220 0 min 0,000 mm 0,0 UV-I 0 W/m 10,9 C 14,6 C 17,7 km/h (3 Bft) 100,00 %
02.07.2017 03:10 16,4 C 22,2 C 70 % 1013,2 hPa 0,0 l/m 10,9 km/h (2 Bft) SW 227 0 min 0,000 mm 0,0 UV-I 0 W/m 10,9 C 14,3 C 17,7 km/h (3 Bft) 94,34 %
02.07.2017 03:12 16,3 C 22,2 C 70 % 1013,2 hPa 0,0 l/m 12,6 km/h (3 Bft) SW 214 0 min 0,000 mm 0,0 UV-I 0 W/m 10,8 C 13,6 C 19,3 km/h (3 Bft) 98,00 %
02.07.2017 03:14 16,3 C 22,2 C 70 % 1013,2 hPa 0,0 l/m 12,6 km/h (3 Bft) S-SW 211 0 min 0,000 mm 0,0 UV-I 0 W/m 10,8 C 13,6 C 16,1 km/h (3 Bft) 97,87 %
02.07.2017 03:16 16,3 C 22,2 C 70 % 1013,1 hPa 0,0 l/m 13,3 km/h (3 Bft) W-SW 238 0 min 0,000 mm 0,0 UV-I 0 W/m 10,8 C 13,3 C 20,9 km/h (4 Bft) 97,44 %
02.07.2017 03:18 16,3 C 22,2 C 70 % 1013,2 hPa 0,0 l/m 11,9 km/h (2 Bft) S-SW 196 0 min 0,000 mm 0,0 UV-I 0 W/m 10,8 C 13,8 C 16,1 km/h (3 Bft) 98,21 %
02.07.2017 03:20 16,3 C 22,2 C 70 % 1013,2 hPa 0,0 l/m 11,1 km/h (2 Bft) S-SW 192 0 min 0,000 mm 0,0 UV-I 0 W/m 10,8 C 14,1 C 16,1 km/h (3 Bft) 97,56 %
02.07.2017 03:22 16,2 C 22,2 C 70 % 1013,2 hPa 0,0 l/m 10,6 km/h (2 Bft) SW 232 0 min 0,000 mm 0,0 UV-I 0 W/m 10,7 C 14,2 C 17,7 km/h (3 Bft) 100,00 %
02.07.2017 03:24 16,2 C 22,2 C 70 % 1013,2 hPa 0,0 l/m 10,7 km/h (2 Bft) W-SW 246 0 min 0,000 mm 0,0 UV-I 0 W/m 10,7 C 14,2 C 14,5 km/h (3 Bft) 95,12 %
02.07.2017 03:26 16,2 C 22,2 C 70 % 1013,2 hPa 0,0 l/m 10,3 km/h (2 Bft) W-SW 243 0 min 0,000 mm 0,0 UV-I 0 W/m 10,7 C 14,3 C 14,5 km/h (3 Bft) 100,00 %
02.07.2017 03:28 16,2 C 22,2 C 71 % 1013,2 hPa 0,0 l/m 11,0 km/h (2 Bft) SW 236 0 min 0,000 mm 0,0 UV-I 0 W/m 10,9 C 14,0 C 16,1 km/h (3 Bft) 96,23 %
02.07.2017 03:30 16,1 C 22,2 C 71 % 1013,2 hPa 0,0 l/m 11,1 km/h (2 Bft) S-SW 213 0 min 0,000 mm 0,0 UV-I 0 W/m 10,8 C 13,9 C 16,1 km/h (3 Bft) 97,73 %
02.07.2017 03:32 16,1 C 22,2 C 71 % 1013,3 hPa 0,0 l/m 11,2 km/h (2 Bft) S-SW 205 0 min 0,000 mm 0,0 UV-I 0 W/m 10,8 C 13,8 C 19,3 km/h (3 Bft) 94,12 %
02.07.2017 03:34 16,1 C 22,2 C 71 % 1013,3 hPa 0,0 l/m 12,0 km/h (2 Bft) SW 233 0 min 0,000 mm 0,0 UV-I 0 W/m 10,8 C 13,5 C 17,7 km/h (3 Bft) 95,12 %
02.07.2017 03:36 16,1 C 22,2 C 71 % 1013,3 hPa 0,0 l/m 11,8 km/h (2 Bft) W-SW 247 0 min 0,000 mm 0,0 UV-I 0 W/m 10,8 C 13,6 C 19,3 km/h (3 Bft) 98,11 %
02.07.2017 03:38 16,1 C 22,2 C 71 % 1013,3 hPa 0,0 l/m 11,7 km/h (2 Bft) SW 222 0 min 0,000 mm 0,0 UV-I 0 W/m 10,8 C 13,7 C 20,9 km/h (4 Bft) 94,74 %
02.07.2017 03:40 16,1 C 22,2 C 71 % 1013,3 hPa 0,0 l/m 14,5 km/h (3 Bft) SW 223 0 min 0,000 mm 0,0 UV-I 0 W/m 10,8 C 12,7 C 22,5 km/h (4 Bft) 96,00 %
02.07.2017 03:42 16,1 C 22,2 C 71 % 1013,4 hPa 0,0 l/m 11,8 km/h (2 Bft) S-SW 213 0 min 0,000 mm 0,0 UV-I 0 W/m 10,8 C 13,6 C 17,7 km/h (3 Bft) 96,23 %
02.07.2017 03:44 16,1 C 22,2 C 71 % 1013,3 hPa 0,0 l/m 14,3 km/h (3 Bft) W-SW 248 0 min 0,000 mm 0,0 UV-I 0 W/m 10,8 C 12,7 C 20,9 km/h (4 Bft) 96,67 %
02.07.2017 03:46 16,1 C 22,2 C 71 % 1013,3 hPa 0,0 l/m 13,4 km/h (3 Bft) W-SW 241 0 min 0,000 mm 0,0 UV-I 0 W/m 10,8 C 13,0 C 19,3 km/h (3 Bft) 96,15 %
02.07.2017 03:48 16,1 C 22,2 C 71 % 1013,3 hPa 0,0 l/m 14,7 km/h (3 Bft) W-SW 239 0 min 0,000 mm 0,0 UV-I 0 W/m 10,8 C 12,6 C 20,9 km/h (4 Bft) 92,86 %
02.07.2017 03:50 16,1 C 22,2 C 71 % 1013,3 hPa 0,0 l/m 16,4 km/h (3 Bft) SW 230 0 min 0,000 mm 0,0 UV-I 0 W/m 10,8 C 12,1 C 22,5 km/h (4 Bft) 94,87 %
02.07.2017 03:52 16,2 C 22,2 C 71 % 1013,2 hPa 0,0 l/m 16,6 km/h (3 Bft) W-SW 248 0 min 0,000 mm 0,0 UV-I 0 W/m 10,9 C 12,2 C 22,5 km/h (4 Bft) 96,36 %
02.07.2017 03:54 16,2 C 22,2 C 71 % 1013,3 hPa 0,0 l/m 14,0 km/h (3 Bft) W 261 0 min 0,000 mm 0,0 UV-I 0 W/m 10,9 C 13,0 C 22,5 km/h (4 Bft) 96,00 %
02.07.2017 03:56 16,2 C 22,2 C 70 % 1013,2 hPa 0,0 l/m 18,0 km/h (3 Bft) SW 235 0 min 0,000 mm 0,0 UV-I 0 W/m 10,7 C 11,8 C 25,7 km/h (4 Bft) 97,44 %
02.07.2017 03:58 16,2 C 22,2 C 70 % 1013,3 hPa 0,0 l/m 16,1 km/h (3 Bft) W-SW 241 0 min 0,000 mm 0,0 UV-I 0 W/m 10,7 C 12,3 C 24,1 km/h (4 Bft) 94,34 %
02.07.2017 04:00 16,2 C 22,2 C 70 % 1013,3 hPa 0,0 l/m 11,5 km/h (2 Bft) W-SW 250 0 min 0,051 mm 0,0 UV-I 0 W/m 10,7 C 13,8 C 17,7 km/h (3 Bft) 95,45 %
02.07.2017 04:04 16,3 C 22,2 C 70 % 1013,4 hPa 0,0 l/m 13,0 km/h (3 Bft) W-SW 248 0 min 0,000 mm 0,0 UV-I 0 W/m 10,8 C 13,4 C 22,5 km/h (4 Bft) 90,62 %
02.07.2017 04:06 16,3 C 22,2 C 70 % 1013,4 hPa 0,0 l/m 12,0 km/h (2 Bft) W-SW 240 0 min 0,000 mm 0,0 UV-I 0 W/m 10,8 C 13,8 C 17,7 km/h (3 Bft) 98,00 %
02.07.2017 04:08 16,2 C 22,2 C 70 % 1013,4 hPa 0,0 l/m 13,5 km/h (3 Bft) SW 216 0 min 0,000 mm 0,0 UV-I 0 W/m 10,7 C 13,1 C 19,3 km/h (3 Bft) 92,11 %
02.07.2017 04:10 16,3 C 22,2 C 70 % 1013,4 hPa 0,0 l/m 13,4 km/h (3 Bft) W-SW 244 0 min 0,000 mm 0,0 UV-I 0 W/m 10,8 C 13,3 C 17,7 km/h (3 Bft) 98,00 %
02.07.2017 04:12 16,3 C 22,2 C 69 % 1013,4 hPa 0,0 l/m 14,4 km/h (3 Bft) W 263 0 min 0,000 mm 0,0 UV-I 0 W/m 10,6 C 13,0 C 19,3 km/h (3 Bft) 100,00 %
02.07.2017 04:14 16,3 C 22,2 C 69 % 1013,4 hPa 0,0 l/m 12,9 km/h (3 Bft) W-SW 251 0 min 0,000 mm 0,0 UV-I 0 W/m 10,6 C 13,4 C 17,7 km/h (3 Bft) 98,04 %
02.07.2017 04:16 16,3 C 21,7 C 69 % 1013,4 hPa 0,0 l/m 14,8 km/h (3 Bft) W 263 0 min 0,000 mm 0,0 UV-I 0 W/m 10,6 C 12,8 C 22,5 km/h (4 Bft) 97,73 %
02.07.2017 04:18 16,3 C 21,7 C 69 % 1013,4 hPa 0,0 l/m 12,3 km/h (3 Bft) W-SW 252 0 min 0,000 mm 0,0 UV-I 0 W/m 10,6 C 13,7 C 19,3 km/h (3 Bft) 94,74 %
02.07.2017 04:20 16,3 C 22,2 C 69 % 1013,4 hPa 0,0 l/m 11,3 km/h (2 Bft) W 259 0 min 0,000 mm 0,0 UV-I 0 W/m 10,6 C 14,0 C 16,1 km/h (3 Bft) 98,21 %
02.07.2017 04:22 16,3 C 21,7 C 69 % 1013,4 hPa 0,0 l/m 13,1 km/h (3 Bft) SW 235 0 min 0,000 mm 0,0 UV-I 0 W/m 10,6 C 13,4 C 20,9 km/h (4 Bft) 100,00 %
02.07.2017 04:24 16,3 C 21,7 C 69 % 1013,4 hPa 0,0 l/m 8,1 km/h (2 Bft) SW 232 0 min 0,000 mm 0,0 UV-I 0 W/m 10,6 C 15,4 C 11,3 km/h (2 Bft) 98,00 %
02.07.2017 04:26 16,3 C 21,7 C 69 % 1013,4 hPa 0,0 l/m 8,3 km/h (2 Bft) SW 227 0 min 0,000 mm 0,0 UV-I 0 W/m 10,6 C 15,3 C 12,9 km/h (3 Bft) 100,00 %
02.07.2017 04:28 16,3 C 21,7 C 70 % 1013,4 hPa 0,0 l/m 8,9 km/h (2 Bft) W-SW 257 0 min 0,000 mm 0,0 UV-I 0 W/m 10,8 C 15,0 C 16,1 km/h (3 Bft) 97,22 %
02.07.2017 04:30 16,3 C 21,7 C 69 % 1013,4 hPa 0,0 l/m 9,9 km/h (2 Bft) SW 231 0 min 0,000 mm 0,0 UV-I 0 W/m 10,6 C 14,6 C 14,5 km/h (3 Bft) 96,36 %
02.07.2017 04:32 16,3 C 21,7 C 69 % 1013,4 hPa 0,0 l/m 9,9 km/h (2 Bft) SW 225 0 min 0,000 mm 0,0 UV-I 0 W/m 10,6 C 14,6 C 16,1 km/h (3 Bft) 97,62 %
02.07.2017 04:34 16,3 C 21,7 C 69 % 1013,4 hPa 0,0 l/m 10,3 km/h (2 Bft) W-SW 248 0 min 0,000 mm 0,0 UV-I 0 W/m 10,6 C 14,4 C 14,5 km/h (3 Bft) 98,00 %
02.07.2017 04:36 16,3 C 21,7 C 70 % 1013,4 hPa 0,0 l/m 9,8 km/h (2 Bft) W-SW 243 0 min 0,000 mm 0,0 UV-I 0 W/m 10,8 C 14,6 C 16,1 km/h (3 Bft) 98,08 %
02.07.2017 04:38 16,3 C 21,7 C 70 % 1013,4 hPa 0,0 l/m 10,0 km/h (2 Bft) W-SW 247 0 min 0,000 mm 0,0 UV-I 0 W/m 10,8 C 14,6 C 14,5 km/h (3 Bft) 95,83 %
02.07.2017 04:40 16,3 C 21,7 C 70 % 1013,4 hPa 0,0 l/m 8,5 km/h (2 Bft) W-SW 256 0 min 0,000 mm 0,0 UV-I 0 W/m 10,8 C 15,2 C 12,9 km/h (3 Bft) 100,00 %
02.07.2017 04:42 16,3 C 21,7 C 69 % 1013,4 hPa 0,0 l/m 7,7 km/h (2 Bft) W-SW 253 0 min 0,000 mm 0,0 UV-I 0 W/m 10,6 C 15,6 C 12,9 km/h (3 Bft) 100,00 %
02.07.2017 04:44 16,3 C 21,7 C 69 % 1013,4 hPa 0,0 l/m 7,6 km/h (2 Bft) W-SW 253 0 min 0,000 mm 0,0 UV-I 0 W/m 10,6 C 15,7 C 11,3 km/h (2 Bft) 100,00 %
02.07.2017 04:46 16,3 C 21,7 C 70 % 1013,4 hPa 0,0 l/m 7,0 km/h (2 Bft) SW 232 0 min 0,000 mm 0,0 UV-I 0 W/m 10,8 C 16,0 C 11,3 km/h (2 Bft) 97,73 %
02.07.2017 04:48 16,3 C 21,7 C 70 % 1013,4 hPa 0,0 l/m 7,6 km/h (2 Bft) W-SW 245 0 min 0,000 mm 0,0 UV-I 0 W/m 10,8 C 15,7 C 11,3 km/h (2 Bft) 95,12 %
02.07.2017 04:50 16,3 C 21,7 C 70 % 1013,4 hPa 0,0 l/m 8,5 km/h (2 Bft) W-SW 246 0 min 0,000 mm 0,0 UV-I 0 W/m 10,8 C 15,2 C 12,9 km/h (3 Bft) 98,00 %
02.07.2017 04:52 16,3 C 21,7 C 70 % 1013,4 hPa 0,0 l/m 10,2 km/h (2 Bft) W-SW 249 0 min 0,000 mm 0,0 UV-I 0 W/m 10,8 C 14,5 C 14,5 km/h (3 Bft) 98,00 %
02.07.2017 04:54 16,3 C 21,7 C 70 % 1013,4 hPa 0,0 l/m 7,6 km/h (2 Bft) SW 235 0 min 0,000 mm 0,0 UV-I 0 W/m 10,8 C 15,7 C 11,3 km/h (2 Bft) 97,37 %
02.07.2017 04:56 16,3 C 21,7 C 70 % 1013,4 hPa 0,0 l/m 8,0 km/h (2 Bft) W-SW 244 0 min 0,000 mm 0,0 UV-I 0 W/m 10,8 C 15,5 C 12,9 km/h (3 Bft) 100,00 %
02.07.2017 04:58 16,2 C 21,7 C 70 % 1013,4 hPa 0,0 l/m 11,1 km/h (2 Bft) SW 231 0 min 0,000 mm 0,0 UV-I 0 W/m 10,7 C 14,0 C 17,7 km/h (3 Bft) 96,23 %
02.07.2017 05:00 16,2 C 21,7 C 70 % 1013,4 hPa 0,0 l/m 9,0 km/h (2 Bft) W-SW 254 0 min 0,051 mm 0,0 UV-I 0 W/m 10,7 C 14,9 C 16,1 km/h (3 Bft) 95,12 %
02.07.2017 05:02 16,2 C 21,7 C 70 % 1013,4 hPa 0,0 l/m 10,8 km/h (2 Bft) W-SW 238 0 min 0,000 mm 0,0 UV-I 0 W/m 10,7 C 14,1 C 16,1 km/h (3 Bft) 100,00 %
02.07.2017 05:04 16,2 C 21,7 C 70 % 1013,3 hPa 0,0 l/m 13,6 km/h (3 Bft) SW 215 0 min 0,000 mm 0,0 UV-I 0 W/m 10,7 C 13,1 C 19,3 km/h (3 Bft) 95,74 %
02.07.2017 05:06 16,3 C 21,7 C 69 % 1013,4 hPa 0,0 l/m 12,3 km/h (3 Bft) SW 214 0 min 0,000 mm 0,0 UV-I 0 W/m 10,6 C 13,7 C 17,7 km/h (3 Bft) 98,00 %
02.07.2017 05:08 16,3 C 21,7 C 69 % 1013,3 hPa 0,0 l/m 11,9 km/h (2 Bft) W-SW 248 0 min 0,000 mm 0,0 UV-I 5 W/m 10,6 C 13,8 C 17,7 km/h (3 Bft) 97,87 %
02.07.2017 05:10 16,3 C 21,7 C 69 % 1013,3 hPa 0,0 l/m 11,9 km/h (2 Bft) SW 235 0 min 0,000 mm 0,0 UV-I 5 W/m 10,6 C 13,8 C 16,1 km/h (3 Bft) 98,00 %
02.07.2017 05:12 16,3 C 21,7 C 69 % 1013,4 hPa 0,0 l/m 10,0 km/h (2 Bft) SW 236 0 min 0,000 mm 0,0 UV-I 5 W/m 10,6 C 14,6 C 14,5 km/h (3 Bft) 95,24 %
02.07.2017 05:14 16,3 C 21,7 C 70 % 1013,4 hPa 0,0 l/m 12,2 km/h (2 Bft) W 271 0 min 0,000 mm 0,0 UV-I 5 W/m 10,8 C 13,7 C 17,7 km/h (3 Bft) 97,37 %
02.07.2017 05:16 16,3 C 21,7 C 69 % 1013,4 hPa 0,0 l/m 15,2 km/h (3 Bft) W-SW 254 0 min 0,000 mm 0,0 UV-I 5 W/m 10,6 C 12,7 C 22,5 km/h (4 Bft) 96,23 %
02.07.2017 05:18 16,3 C 21,7 C 69 % 1013,4 hPa 0,0 l/m 16,1 km/h (3 Bft) W-SW 245 0 min 0,000 mm 0,0 UV-I 6 W/m 10,6 C 12,4 C 22,5 km/h (4 Bft) 95,45 %
02.07.2017 05:20 16,3 C 21,7 C 69 % 1013,4 hPa 0,0 l/m 16,7 km/h (3 Bft) W 269 0 min 0,000 mm 0,0 UV-I 7 W/m 10,6 C 12,3 C 29,0 km/h (5 Bft) 96,43 %
02.07.2017 05:22 16,4 C 21,7 C 69 % 1013,4 hPa 0,0 l/m 17,5 km/h (3 Bft) SW 221 0 min 0,000 mm 0,0 UV-I 7 W/m 10,7 C 12,2 C 27,4 km/h (4 Bft) 95,45 %
02.07.2017 05:24 16,4 C 21,7 C 69 % 1013,4 hPa 0,0 l/m 18,6 km/h (3 Bft) SW 218 0 min 0,000 mm 0,0 UV-I 7 W/m 10,7 C 11,9 C 27,4 km/h (4 Bft) 96,00 %
02.07.2017 05:26 16,4 C 21,7 C 69 % 1013,5 hPa 0,0 l/m 17,4 km/h (3 Bft) W-SW 255 0 min 0,000 mm 0,0 UV-I 7 W/m 10,7 C 12,2 C 25,7 km/h (4 Bft) 97,14 %
02.07.2017 05:28 16,4 C 21,7 C 69 % 1013,4 hPa 0,0 l/m 19,9 km/h (4 Bft) W 264 0 min 0,000 mm 0,0 UV-I 9 W/m 10,7 C 11,6 C 33,8 km/h (5 Bft) 94,64 %
02.07.2017 05:30 16,4 C 21,7 C 69 % 1013,5 hPa 0,0 l/m 20,7 km/h (4 Bft) W-SW 245 0 min 0,000 mm 0,0 UV-I 9 W/m 10,7 C 11,4 C 25,7 km/h (4 Bft) 93,18 %
02.07.2017 05:32 16,4 C 21,7 C 69 % 1013,5 hPa 0,0 l/m 20,8 km/h (4 Bft) W-SW 242 0 min 0,000 mm 0,0 UV-I 9 W/m 10,7 C 11,4 C 32,2 km/h (5 Bft) 94,34 %
02.07.2017 05:34 16,4 C 21,7 C 69 % 1013,5 hPa 0,0 l/m 18,3 km/h (3 Bft) W-SW 250 0 min 0,000 mm 0,0 UV-I 9 W/m 10,7 C 12,0 C 27,4 km/h (4 Bft) 95,12 %
02.07.2017 05:36 16,4 C 21,7 C 70 % 1013,5 hPa 0,0 l/m 16,8 km/h (3 Bft) W-SW 252 0 min 0,000 mm 0,0 UV-I 11 W/m 10,9 C 12,4 C 24,1 km/h (4 Bft) 92,45 %
02.07.2017 05:38 16,4 C 21,7 C 70 % 1013,6 hPa 0,0 l/m 14,7 km/h (3 Bft) W 266 0 min 0,000 mm 0,0 UV-I 11 W/m 10,9 C 13,0 C 22,5 km/h (4 Bft) 95,74 %
02.07.2017 05:40 16,4 C 21,7 C 70 % 1013,6 hPa 0,0 l/m 16,2 km/h (3 Bft) W-SW 248 0 min 0,000 mm 0,0 UV-I 11 W/m 10,9 C 12,5 C 22,5 km/h (4 Bft) 95,74 %
02.07.2017 05:42 16,3 C 21,7 C 70 % 1013,6 hPa 0,0 l/m 13,9 km/h (3 Bft) SW 223 0 min 0,000 mm 0,0 UV-I 14 W/m 10,8 C 13,1 C 22,5 km/h (4 Bft) 92,11 %
02.07.2017 05:44 16,3 C 21,7 C 70 % 1013,6 hPa 0,0 l/m 17,1 km/h (3 Bft) W 261 0 min 0,000 mm 0,0 UV-I 16 W/m 10,8 C 12,2 C 24,1 km/h (4 Bft) 94,34 %
02.07.2017 05:46 16,3 C 21,7 C 70 % 1013,6 hPa 0,0 l/m 13,4 km/h (3 Bft) W-SW 251 0 min 0,000 mm 0,0 UV-I 18 W/m 10,8 C 13,3 C 20,9 km/h (4 Bft) 90,24 %
02.07.2017 05:48 16,3 C 21,7 C 70 % 1013,6 hPa 0,0 l/m 10,6 km/h (2 Bft) W-SW 245 0 min 0,000 mm 0,0 UV-I 19 W/m 10,8 C 14,3 C 14,5 km/h (3 Bft) 92,45 %
02.07.2017 05:50 16,3 C 21,7 C 70 % 1013,6 hPa 0,0 l/m 10,5 km/h (2 Bft) W-SW 252 0 min 0,000 mm 0,0 UV-I 21 W/m 10,8 C 14,3 C 14,5 km/h (3 Bft) 94,00 %
02.07.2017 05:52 16,3 C 21,7 C 71 % 1013,7 hPa 0,0 l/m 12,4 km/h (3 Bft) SW 231 0 min 0,000 mm 0,0 UV-I 22 W/m 11,0 C 13,6 C 17,7 km/h (3 Bft) 93,62 %
02.07.2017 05:54 16,2 C 21,7 C 71 % 1013,6 hPa 0,0 l/m 9,4 km/h (2 Bft) SW 229 0 min 0,000 mm 0,0 UV-I 25 W/m 10,9 C 14,7 C 14,5 km/h (3 Bft) 95,74 %
02.07.2017 05:56 16,2 C 21,7 C 71 % 1013,7 hPa 0,0 l/m 13,8 km/h (3 Bft) W-SW 240 0 min 0,000 mm 0,0 UV-I 26 W/m 10,9 C 13,0 C 20,9 km/h (4 Bft) 91,11 %
02.07.2017 05:58 16,2 C 21,7 C 71 % 1013,7 hPa 0,0 l/m 15,3 km/h (3 Bft) W-SW 246 0 min 0,000 mm 0,0 UV-I 28 W/m 10,9 C 12,6 C 24,1 km/h (4 Bft) 87,80 %
02.07.2017 06:00 16,2 C 21,7 C 71 % 1013,8 hPa 0,0 l/m 13,2 km/h (3 Bft) W-SW 243 0 min 0,000 mm 0,0 UV-I 26 W/m 10,9 C 13,2 C 24,1 km/h (4 Bft) 98,11 %
02.07.2017 06:02 16,2 C 21,7 C 72 % 1013,9 hPa 0,0 l/m 11,3 km/h (2 Bft) W-SW 242 0 min 0,076 mm 0,0 UV-I 19 W/m 11,1 C 13,9 C 17,7 km/h (3 Bft) 95,45 %
02.07.2017 06:04 16,2 C 21,7 C 72 % 1013,9 hPa 0,0 l/m 9,1 km/h (2 Bft) S-SW 207 0 min 0,000 mm 0,0 UV-I 15 W/m 11,1 C 14,8 C 12,9 km/h (3 Bft) 98,00 %
02.07.2017 06:06 16,1 C 21,7 C 72 % 1013,9 hPa 0,0 l/m 8,1 km/h (2 Bft) W-SW 240 0 min 0,000 mm 0,0 UV-I 15 W/m 11,0 C 15,2 C 12,9 km/h (3 Bft) 92,68 %
02.07.2017 06:08 16,1 C 21,7 C 72 % 1013,9 hPa 0,0 l/m 10,3 km/h (2 Bft) SW 223 0 min 0,000 mm 0,0 UV-I 16 W/m 11,0 C 14,2 C 19,3 km/h (3 Bft) 97,87 %
02.07.2017 06:10 16,1 C 21,7 C 72 % 1013,9 hPa 0,0 l/m 11,7 km/h (2 Bft) W-SW 244 0 min 0,000 mm 0,0 UV-I 16 W/m 11,0 C 13,7 C 16,1 km/h (3 Bft) 98,21 %
02.07.2017 06:12 16,1 C 21,7 C 72 % 1014,0 hPa 0,0 l/m 12,1 km/h (2 Bft) W 262 0 min 0,000 mm 0,0 UV-I 16 W/m 11,0 C 13,5 C 22,5 km/h (4 Bft) 97,37 %
02.07.2017 06:14 16,1 C 21,7 C 73 % 1014,0 hPa 0,0 l/m 12,8 km/h (3 Bft) W-SW 246 0 min 0,000 mm 0,0 UV-I 15 W/m 11,3 C 13,2 C 22,5 km/h (4 Bft) 97,87 %
02.07.2017 06:16 16,1 C 21,7 C 73 % 1014,0 hPa 0,0 l/m 10,5 km/h (2 Bft) W-SW 240 0 min 0,000 mm 0,0 UV-I 14 W/m 11,3 C 14,1 C 14,5 km/h (3 Bft) 97,73 %
02.07.2017 06:18 16,1 C 21,7 C 73 % 1014,0 hPa 0,0 l/m 11,9 km/h (2 Bft) W 261 0 min 0,000 mm 0,0 UV-I 13 W/m 11,3 C 13,6 C 22,5 km/h (4 Bft) 100,00 %
02.07.2017 06:20 16,0 C 21,7 C 73 % 1014,1 hPa 0,0 l/m 14,7 km/h (3 Bft) W 260 0 min 0,000 mm 0,0 UV-I 12 W/m 11,2 C 12,5 C 24,1 km/h (4 Bft) 97,56 %
02.07.2017 06:22 16,0 C 21,7 C 73 % 1014,1 hPa 0,0 l/m 12,8 km/h (3 Bft) W-SW 246 0 min 0,000 mm 0,0 UV-I 12 W/m 11,2 C 13,1 C 20,9 km/h (4 Bft) 100,00 %
02.07.2017 06:24 16,0 C 21,7 C 73 % 1014,1 hPa 0,0 l/m 14,3 km/h (3 Bft) W-SW 251 0 min 0,000 mm 0,0 UV-I 12 W/m 11,2 C 12,6 C 19,3 km/h (3 Bft) 100,00 %
02.07.2017 06:26 16,0 C 21,7 C 73 % 1014,1 hPa 0,0 l/m 11,0 km/h (2 Bft) SW 229 0 min 0,000 mm 0,0 UV-I 11 W/m 11,2 C 13,8 C 19,3 km/h (3 Bft) 98,00 %
02.07.2017 06:28 16,0 C 21,7 C 73 % 1014,1 hPa 0,0 l/m 12,2 km/h (2 Bft) W-SW 250 0 min 0,000 mm 0,0 UV-I 12 W/m 11,2 C 13,3 C 19,3 km/h (3 Bft) 97,73 %
02.07.2017 06:30 16,0 C 21,7 C 73 % 1014,1 hPa 0,0 l/m 11,1 km/h (2 Bft) S-SW 209 0 min 0,000 mm 0,0 UV-I 12 W/m 11,2 C 13,8 C 17,7 km/h (3 Bft) 97,62 %
02.07.2017 06:32 15,9 C 21,7 C 74 % 1014,1 hPa 0,0 l/m 21,1 km/h (4 Bft) W-SW 243 0 min 0,000 mm 0,0 UV-I 12 W/m 11,3 C 10,6 C 32,2 km/h (5 Bft) 95,45 %
02.07.2017 06:34 15,9 C 21,7 C 74 % 1014,1 hPa 0,0 l/m 19,7 km/h (3 Bft) W-SW 241 0 min 0,000 mm 0,0 UV-I 13 W/m 11,3 C 11,0 C 30,6 km/h (5 Bft) 97,73 %
02.07.2017 06:36 15,9 C 21,7 C 74 % 1014,2 hPa 0,0 l/m 21,9 km/h (4 Bft) SW 215 0 min 0,000 mm 0,0 UV-I 16 W/m 11,3 C 10,5 C 29,0 km/h (5 Bft) 96,23 %
02.07.2017 06:38 15,9 C 21,7 C 74 % 1014,2 hPa 0,0 l/m 19,8 km/h (3 Bft) SW 234 0 min 0,000 mm 0,0 UV-I 15 W/m 11,3 C 11,0 C 33,8 km/h (5 Bft) 100,00 %
02.07.2017 06:40 15,9 C 21,7 C 74 % 1014,2 hPa 0,0 l/m 21,6 km/h (4 Bft) W-SW 242 0 min 0,000 mm 0,0 UV-I 14 W/m 11,3 C 10,5 C 30,6 km/h (5 Bft) 100,00 %
02.07.2017 06:42 15,9 C 21,7 C 74 % 1014,2 hPa 0,0 l/m 19,4 km/h (3 Bft) W 261 0 min 0,000 mm 0,0 UV-I 15 W/m 11,3 C 11,1 C 35,4 km/h (5 Bft) 97,87 %
02.07.2017 06:44 15,8 C 21,7 C 74 % 1014,2 hPa 0,0 l/m 18,7 km/h (3 Bft) NW 309 0 min 0,000 mm 0,0 UV-I 16 W/m 11,2 C 11,1 C 27,4 km/h (4 Bft) 98,00 %
02.07.2017 06:46 15,8 C 21,7 C 75 % 1014,3 hPa 0,0 l/m 18,9 km/h (3 Bft) W-SW 246 0 min 0,000 mm 0,0 UV-I 18 W/m 11,4 C 11,1 C 25,7 km/h (4 Bft) 100,00 %
02.07.2017 06:48 15,8 C 21,7 C 75 % 1014,2 hPa 0,0 l/m 17,5 km/h (3 Bft) W 259 0 min 0,000 mm 0,0 UV-I 18 W/m 11,4 C 11,4 C 25,7 km/h (4 Bft) 100,00 %
02.07.2017 06:50 15,8 C 21,7 C 75 % 1014,4 hPa 0,0 l/m 18,6 km/h (3 Bft) W 260 0 min 0,000 mm 0,0 UV-I 18 W/m 11,4 C 11,1 C 25,7 km/h (4 Bft) 100,00 %
02.07.2017 06:53 15,8 C 21,7 C 76 % 1014,3 hPa 0,0 l/m 17,0 km/h (3 Bft) W-SW 242 0 min 0,000 mm 0,0 UV-I 22 W/m 11,6 C 11,6 C 27,4 km/h (4 Bft) 98,63 %
02.07.2017 06:54 15,8 C 21,7 C 76 % 1014,3 hPa 0,0 l/m 21,8 km/h (4 Bft) W-SW 243 0 min 0,000 mm 0,0 UV-I 22 W/m 11,6 C 10,4 C 27,4 km/h (4 Bft) 100,00 %
02.07.2017 06:56 15,7 C 21,7 C 77 % 1014,3 hPa 0,0 l/m 14,9 km/h (3 Bft) W-SW 249 0 min 0,000 mm 0,0 UV-I 25 W/m 11,7 C 12,1 C 22,5 km/h (4 Bft) 98,21 %
02.07.2017 06:58 15,7 C 21,7 C 78 % 1014,3 hPa 0,0 l/m 13,5 km/h (3 Bft) SW 229 0 min 0,000 mm 0,0 UV-I 26 W/m 11,9 C 12,5 C 17,7 km/h (3 Bft) 97,56 %
02.07.2017 07:00 15,6 C 21,7 C 79 % 1014,3 hPa 0,0 l/m 14,1 km/h (3 Bft) SW 217 0 min 0,051 mm 0,0 UV-I 27 W/m 12,0 C 12,2 C 22,5 km/h (4 Bft) 100,00 %
02.07.2017 07:02 15,4 C 21,7 C 80 % 1014,3 hPa 0,0 l/m 15,3 km/h (3 Bft) S-SW 213 0 min 0,000 mm 0,0 UV-I 26 W/m 12,0 C 11,6 C 25,7 km/h (4 Bft) 97,56 %
02.07.2017 07:04 15,3 C 21,7 C 80 % 1014,4 hPa 0,2 l/m 15,5 km/h (3 Bft) W-SW 246 0 min 0,000 mm 0,0 UV-I 32 W/m 11,9 C 11,4 C 29,0 km/h (5 Bft) 98,00 %
02.07.2017 07:06 15,2 C 21,7 C 82 % 1014,4 hPa 0,0 l/m 18,3 km/h (3 Bft) SW 232 0 min 0,000 mm 0,0 UV-I 35 W/m 12,1 C 10,5 C 29,0 km/h (5 Bft) 95,74 %
02.07.2017 07:08 15,1 C 21,7 C 82 % 1014,4 hPa 0,0 l/m 20,0 km/h (4 Bft) W-SW 240 0 min 0,000 mm 0,0 UV-I 43 W/m 12,0 C 9,9 C 27,4 km/h (4 Bft) 97,56 %
02.07.2017 07:10 15,0 C 21,7 C 83 % 1014,4 hPa 0,0 l/m 20,2 km/h (4 Bft) SW 223 0 min 0,000 mm 0,0 UV-I 46 W/m 12,1 C 9,7 C 30,6 km/h (5 Bft) 98,18 %
02.07.2017 07:13 14,8 C 21,7 C 84 % 1014,5 hPa 0,2 l/m 17,0 km/h (3 Bft) W-SW 257 0 min 0,000 mm 0,0 UV-I 43 W/m 12,1 C 10,3 C 25,7 km/h (4 Bft) 100,00 %
02.07.2017 07:14 14,8 C 21,7 C 85 % 1014,5 hPa 0,0 l/m 15,9 km/h (3 Bft) SW 219 0 min 0,000 mm 0,0 UV-I 44 W/m 12,3 C 10,7 C 22,5 km/h (4 Bft) 100,00 %
02.07.2017 07:16 14,7 C 21,7 C 85 % 1014,5 hPa 0,2 l/m 16,2 km/h (3 Bft) W-SW 242 0 min 0,000 mm 0,0 UV-I 41 W/m 12,2 C 10,4 C 22,5 km/h (4 Bft) 97,73 %
02.07.2017 07:18 14,6 C 21,7 C 86 % 1014,5 hPa 0,0 l/m 13,9 km/h (3 Bft) W-SW 250 0 min 0,000 mm 0,0 UV-I 39 W/m 12,3 C 11,1 C 17,7 km/h (3 Bft) 98,00 %
02.07.2017 07:20 14,6 C 21,7 C 87 % 1014,5 hPa 0,0 l/m 9,6 km/h (2 Bft) SW 223 0 min 0,000 mm 0,0 UV-I 41 W/m 12,5 C 12,9 C 16,1 km/h (3 Bft) 97,87 %
02.07.2017 07:22 14,5 C 21,7 C 87 % 1014,5 hPa 0,0 l/m 12,1 km/h (2 Bft) W-SW 247 0 min 0,000 mm 0,0 UV-I 39 W/m 12,4 C 11,7 C 19,3 km/h (3 Bft) 94,74 %
02.07.2017 07:24 14,4 C 21,7 C 87 % 1014,5 hPa 0,2 l/m 11,8 km/h (2 Bft) W-SW 252 0 min 0,000 mm 0,0 UV-I 44 W/m 12,3 C 11,7 C 17,7 km/h (3 Bft) 100,00 %
02.07.2017 07:26 14,4 C 21,7 C 88 % 1014,5 hPa 0,0 l/m 10,7 km/h (2 Bft) SW 219 0 min 0,000 mm 0,0 UV-I 52 W/m 12,4 C 12,1 C 16,1 km/h (3 Bft) 98,00 %
02.07.2017 07:28 14,4 C 21,7 C 88 % 1014,6 hPa 0,0 l/m 12,5 km/h (3 Bft) W-SW 252 0 min 0,000 mm 0,0 UV-I 60 W/m 12,4 C 11,4 C 16,1 km/h (3 Bft) 92,86 %
02.07.2017 07:30 14,4 C 21,7 C 88 % 1014,6 hPa 0,2 l/m 10,5 km/h (2 Bft) SW 232 0 min 0,000 mm 0,0 UV-I 64 W/m 12,4 C 12,2 C 16,1 km/h (3 Bft) 90,91 %
02.07.2017 07:32 14,4 C 21,7 C 88 % 1014,6 hPa 0,0 l/m 12,8 km/h (3 Bft) SW 235 0 min 0,000 mm 0,0 UV-I 69 W/m 12,4 C 11,3 C 17,7 km/h (3 Bft) 92,68 %
02.07.2017 07:34 14,4 C 21,7 C 88 % 1014,6 hPa 0,0 l/m 10,1 km/h (2 Bft) SW 229 0 min 0,000 mm 0,0 UV-I 68 W/m 12,4 C 12,4 C 16,1 km/h (3 Bft) 93,62 %
02.07.2017 07:36 14,4 C 21,7 C 89 % 1014,6 hPa 0,2 l/m 13,9 km/h (3 Bft) SW 225 0 min 0,000 mm 0,0 UV-I 69 W/m 12,6 C 10,9 C 20,9 km/h (4 Bft) 94,64 %
02.07.2017 07:38 14,4 C 21,7 C 89 % 1014,6 hPa 0,0 l/m 11,9 km/h (2 Bft) W-SW 250 0 min 0,000 mm 0,0 UV-I 65 W/m 12,6 C 11,6 C 19,3 km/h (3 Bft) 92,11 %
02.07.2017 07:40 14,4 C 21,7 C 89 % 1014,6 hPa 0,0 l/m 13,4 km/h (3 Bft) W-SW 243 0 min 0,000 mm 0,0 UV-I 55 W/m 12,6 C 11,0 C 19,3 km/h (3 Bft) 98,21 %
02.07.2017 07:42 14,4 C 21,7 C 89 % 1014,6 hPa 0,0 l/m 9,8 km/h (2 Bft) SW 225 0 min 0,000 mm 0,0 UV-I 47 W/m 12,6 C 12,5 C 16,1 km/h (3 Bft) 97,37 %
02.07.2017 07:44 14,4 C 21,7 C 90 % 1014,6 hPa 0,0 l/m 10,9 km/h (2 Bft) SW 234 0 min 0,000 mm 0,0 UV-I 43 W/m 12,8 C 12,0 C 14,5 km/h (3 Bft) 94,00 %
02.07.2017 07:46 14,4 C 21,7 C 90 % 1014,7 hPa 0,0 l/m 10,1 km/h (2 Bft) W-SW 252 0 min 0,000 mm 0,0 UV-I 43 W/m 12,8 C 12,4 C 14,5 km/h (3 Bft) 97,44 %
02.07.2017 07:48 14,4 C 21,7 C 90 % 1014,7 hPa 0,0 l/m 12,7 km/h (3 Bft) SW 227 0 min 0,000 mm 0,0 UV-I 45 W/m 12,8 C 11,3 C 19,3 km/h (3 Bft) 94,34 %
02.07.2017 07:50 14,3 C 21,7 C 90 % 1014,8 hPa 0,0 l/m 10,3 km/h (2 Bft) SW 234 0 min 0,000 mm 0,0 UV-I 46 W/m 12,7 C 12,2 C 16,1 km/h (3 Bft) 93,62 %
02.07.2017 07:52 14,4 C 21,7 C 90 % 1014,8 hPa 0,2 l/m 10,3 km/h (2 Bft) SW 226 0 min 0,000 mm 0,0 UV-I 51 W/m 12,8 C 12,3 C 17,7 km/h (3 Bft) 93,62 %
02.07.2017 07:54 14,3 C 21,7 C 90 % 1014,8 hPa 0,0 l/m 12,9 km/h (3 Bft) SW 216 0 min 0,000 mm 0,0 UV-I 52 W/m 12,7 C 11,1 C 20,9 km/h (4 Bft) 90,00 %
02.07.2017 07:56 14,3 C 21,7 C 91 % 1014,8 hPa 0,0 l/m 13,2 km/h (3 Bft) SW 219 0 min 0,000 mm 0,0 UV-I 47 W/m 12,8 C 11,0 C 19,3 km/h (3 Bft) 100,00 %
02.07.2017 07:58 14,3 C 21,7 C 91 % 1014,8 hPa 0,0 l/m 11,0 km/h (2 Bft) W-SW 240 0 min 0,000 mm 0,0 UV-I 46 W/m 12,8 C 11,9 C 14,5 km/h (3 Bft) 95,59 %
02.07.2017 08:00 14,3 C 21,7 C 91 % 1014,8 hPa 0,0 l/m 9,7 km/h (2 Bft) SW 221 0 min 0,051 mm 0,0 UV-I 49 W/m 12,8 C 12,5 C 14,5 km/h (3 Bft) 92,68 %
02.07.2017 08:02 14,3 C 21,7 C 91 % 1014,9 hPa 0,0 l/m 13,9 km/h (3 Bft) SW 215 0 min 0,000 mm 0,0 UV-I 50 W/m 12,8 C 10,7 C 20,9 km/h (4 Bft) 95,74 %
02.07.2017 08:04 14,3 C 21,7 C 91 % 1014,8 hPa 0,0 l/m 13,4 km/h (3 Bft) SW 231 0 min 0,000 mm 0,0 UV-I 52 W/m 12,8 C 10,9 C 19,3 km/h (3 Bft) 98,11 %
02.07.2017 08:06 14,2 C 21,7 C 91 % 1014,9 hPa 0,0 l/m 12,0 km/h (2 Bft) W-SW 239 0 min 0,000 mm 0,0 UV-I 54 W/m 12,8 C 11,4 C 17,7 km/h (3 Bft) 100,00 %
02.07.2017 08:08 14,2 C 21,7 C 92 % 1014,9 hPa 0,0 l/m 12,9 km/h (3 Bft) W-SW 238 0 min 0,000 mm 0,0 UV-I 59 W/m 12,9 C 11,0 C 19,3 km/h (3 Bft) 94,64 %
02.07.2017 08:10 14,2 C 21,7 C 92 % 1014,9 hPa 0,0 l/m 9,5 km/h (2 Bft) W-SW 251 0 min 0,000 mm 0,0 UV-I 62 W/m 12,9 C 12,5 C 17,7 km/h (3 Bft) 90,24 %
02.07.2017 08:12 14,2 C 21,7 C 92 % 1014,9 hPa 0,0 l/m 10,0 km/h (2 Bft) W-SW 238 0 min 0,000 mm 0,0 UV-I 64 W/m 12,9 C 12,2 C 22,5 km/h (4 Bft) 92,00 %
02.07.2017 08:14 14,2 C 21,7 C 92 % 1014,9 hPa 0,2 l/m 12,6 km/h (3 Bft) W-SW 246 0 min 0,000 mm 0,0 UV-I 67 W/m 12,9 C 11,1 C 20,9 km/h (4 Bft) 100,00 %
02.07.2017 08:16 14,2 C 21,7 C 92 % 1014,9 hPa 0,0 l/m 14,5 km/h (3 Bft) SW 223 0 min 0,000 mm 0,0 UV-I 70 W/m 12,9 C 10,4 C 19,3 km/h (3 Bft) 97,56 %
02.07.2017 08:18 14,2 C 21,7 C 92 % 1014,9 hPa 0,0 l/m 9,6 km/h (2 Bft) W-SW 239 0 min 0,000 mm 0,0 UV-I 74 W/m 12,9 C 12,4 C 12,9 km/h (3 Bft) 97,87 %
02.07.2017 08:20 14,2 C 21,7 C 92 % 1014,9 hPa 0,0 l/m 12,1 km/h (2 Bft) W 260 0 min 0,000 mm 0,0 UV-I 81 W/m 12,9 C 11,3 C 17,7 km/h (3 Bft) 95,74 %
02.07.2017 08:22 14,2 C 21,7 C 92 % 1014,9 hPa 0,0 l/m 10,5 km/h (2 Bft) SW 219 0 min 0,000 mm 0,0 UV-I 89 W/m 12,9 C 12,0 C 16,1 km/h (3 Bft) 96,23 %
02.07.2017 08:24 14,2 C 21,7 C 92 % 1015,0 hPa 0,0 l/m 11,0 km/h (2 Bft) SW 228 0 min 0,000 mm 0,0 UV-I 94 W/m 12,9 C 11,8 C 19,3 km/h (3 Bft) 97,44 %
02.07.2017 08:26 14,2 C 21,7 C 93 % 1015,0 hPa 0,0 l/m 9,8 km/h (2 Bft) W-SW 250 0 min 0,000 mm 0,0 UV-I 101 W/m 13,1 C 12,3 C 14,5 km/h (3 Bft) 95,92 %
02.07.2017 08:28 14,2 C 21,7 C 93 % 1015,0 hPa 0,0 l/m 13,4 km/h (3 Bft) SW 219 0 min 0,000 mm 0,5 UV-I 108 W/m 13,1 C 10,8 C 19,3 km/h (3 Bft) 94,34 %
02.07.2017 08:30 14,2 C 21,7 C 93 % 1014,9 hPa 0,0 l/m 15,3 km/h (3 Bft) W-SW 244 0 min 0,000 mm 0,5 UV-I 110 W/m 13,1 C 10,1 C 20,9 km/h (4 Bft) 100,00 %
02.07.2017 08:32 14,3 C 21,7 C 93 % 1015,0 hPa 0,0 l/m 13,1 km/h (3 Bft) W-SW 247 0 min 0,000 mm 0,5 UV-I 113 W/m 13,2 C 11,0 C 22,5 km/h (4 Bft) 97,87 %
02.07.2017 08:34 14,3 C 21,7 C 93 % 1015,0 hPa 0,0 l/m 13,4 km/h (3 Bft) SW 220 0 min 0,000 mm 0,5 UV-I 110 W/m 13,2 C 10,9 C 20,9 km/h (4 Bft) 98,11 %
02.07.2017 08:36 14,3 C 21,7 C 93 % 1015,0 hPa 0,0 l/m 10,9 km/h (2 Bft) SW 235 0 min 0,000 mm 0,5 UV-I 113 W/m 13,2 C 11,9 C 16,1 km/h (3 Bft) 97,56 %
02.07.2017 08:38 14,4 C 21,1 C 93 % 1015,0 hPa 0,0 l/m 11,3 km/h (2 Bft) W 264 0 min 0,000 mm 0,5 UV-I 115 W/m 13,3 C 11,9 C 16,1 km/h (3 Bft) 100,00 %
02.07.2017 08:40 14,4 C 21,1 C 93 % 1015,0 hPa 0,0 l/m 10,0 km/h (2 Bft) SW 220 0 min 0,000 mm 0,5 UV-I 116 W/m 13,3 C 12,5 C 14,5 km/h (3 Bft) 96,43 %
02.07.2017 08:42 14,4 C 21,1 C 93 % 1015,1 hPa 0,0 l/m 13,8 km/h (3 Bft) W-SW 252 0 min 0,000 mm 0,5 UV-I 118 W/m 13,3 C 10,9 C 22,5 km/h (4 Bft) 97,73 %
02.07.2017 08:44 14,4 C 21,1 C 93 % 1015,1 hPa 0,0 l/m 13,6 km/h (3 Bft) W 265 0 min 0,000 mm 0,5 UV-I 110 W/m 13,3 C 11,0 C 22,5 km/h (4 Bft) 97,73 %
02.07.2017 08:46 14,4 C 21,7 C 93 % 1015,1 hPa 0,0 l/m 11,5 km/h (2 Bft) SW 216 0 min 0,000 mm 0,5 UV-I 102 W/m 13,3 C 11,8 C 19,3 km/h (3 Bft) 96,00 %
02.07.2017 08:48 14,5 C 21,1 C 93 % 1015,1 hPa 0,0 l/m 7,9 km/h (2 Bft) SW 232 0 min 0,000 mm 0,5 UV-I 99 W/m 13,4 C 13,6 C 12,9 km/h (3 Bft) 100,00 %
02.07.2017 08:50 14,5 C 21,1 C 93 % 1015,2 hPa 0,0 l/m 13,9 km/h (3 Bft) SW 234 0 min 0,000 mm 0,5 UV-I 97 W/m 13,4 C 11,0 C 24,1 km/h (4 Bft) 100,00 %
02.07.2017 08:52 14,5 C 21,1 C 93 % 1015,2 hPa 0,0 l/m 9,2 km/h (2 Bft) W-SW 251 0 min 0,000 mm 0,0 UV-I 89 W/m 13,4 C 13,0 C 17,7 km/h (3 Bft) 100,00 %
02.07.2017 08:54 14,5 C 21,1 C 93 % 1015,2 hPa 0,0 l/m 11,2 km/h (2 Bft) SW 223 0 min 0,000 mm 0,0 UV-I 87 W/m 13,4 C 12,0 C 17,7 km/h (3 Bft) 100,00 %
02.07.2017 08:56 14,5 C 21,1 C 93 % 1015,1 hPa 0,0 l/m 11,1 km/h (2 Bft) W-SW 253 0 min 0,000 mm 0,0 UV-I 81 W/m 13,4 C 12,1 C 19,3 km/h (3 Bft) 100,00 %
02.07.2017 08:58 14,6 C 21,1 C 93 % 1015,2 hPa 0,0 l/m 11,5 km/h (2 Bft) SW 227 0 min 0,000 mm 0,0 UV-I 85 W/m 13,5 C 12,0 C 19,3 km/h (3 Bft) 96,23 %
02.07.2017 09:00 14,5 C 21,1 C 93 % 1015,2 hPa 0,0 l/m 15,5 km/h (3 Bft) W-SW 256 0 min 0,051 mm 0,0 UV-I 85 W/m 13,4 C 10,4 C 20,9 km/h (4 Bft) 95,12 %
02.07.2017 09:02 14,5 C 21,1 C 93 % 1015,2 hPa 0,0 l/m 14,8 km/h (3 Bft) W-SW 238 0 min 0,000 mm 0,5 UV-I 96 W/m 13,4 C 10,7 C 24,1 km/h (4 Bft) 96,23 %
02.07.2017 09:04 14,5 C 21,1 C 93 % 1015,2 hPa 0,0 l/m 12,6 km/h (3 Bft) SW 219 0 min 0,000 mm 0,5 UV-I 103 W/m 13,4 C 11,5 C 20,9 km/h (4 Bft) 97,56 %
02.07.2017 09:06 14,4 C 21,1 C 93 % 1015,2 hPa 0,0 l/m 17,2 km/h (3 Bft) SW 230 0 min 0,000 mm 0,5 UV-I 102 W/m 13,3 C 9,8 C 25,7 km/h (4 Bft) 96,00 %
02.07.2017 09:08 14,4 C 21,1 C 93 % 1015,2 hPa 0,0 l/m 15,4 km/h (3 Bft) W-SW 244 0 min 0,000 mm 0,5 UV-I 96 W/m 13,3 C 10,3 C 25,7 km/h (4 Bft) 96,00 %
02.07.2017 09:10 14,4 C 21,1 C 93 % 1015,2 hPa 0,0 l/m 14,2 km/h (3 Bft) SW 219 0 min 0,000 mm 0,5 UV-I 97 W/m 13,3 C 10,7 C 22,5 km/h (4 Bft) 95,24 %
02.07.2017 09:12 14,4 C 21,1 C 93 % 1015,2 hPa 0,0 l/m 14,3 km/h (3 Bft) S-SW 209 0 min 0,000 mm 0,5 UV-I 101 W/m 13,3 C 10,7 C 25,7 km/h (4 Bft) 98,11 %
02.07.2017 09:14 14,4 C 21,1 C 93 % 1015,2 hPa 0,0 l/m 15,6 km/h (3 Bft) W-SW 242 0 min 0,000 mm 0,5 UV-I 99 W/m 13,3 C 10,3 C 22,5 km/h (4 Bft) 97,37 %
02.07.2017 09:16 14,4 C 21,1 C 93 % 1015,3 hPa 0,0 l/m 15,0 km/h (3 Bft) S 183 0 min 0,000 mm 0,6 UV-I 102 W/m 13,3 C 10,5 C 20,9 km/h (4 Bft) 97,87 %
02.07.2017 09:18 14,4 C 21,1 C 93 % 1015,3 hPa 0,0 l/m 15,9 km/h (3 Bft) SW 225 0 min 0,000 mm 0,6 UV-I 98 W/m 13,3 C 10,2 C 22,5 km/h (4 Bft) 98,00 %
02.07.2017 09:20 14,4 C 21,1 C 93 % 1015,3 hPa 0,0 l/m 16,3 km/h (3 Bft) SW 215 0 min 0,000 mm 0,5 UV-I 90 W/m 13,3 C 10,0 C 24,1 km/h (4 Bft) 96,00 %
02.07.2017 09:22 14,4 C 21,1 C 93 % 1015,3 hPa 0,0 l/m 11,5 km/h (2 Bft) W-SW 238 0 min 0,000 mm 0,5 UV-I 99 W/m 13,3 C 11,8 C 19,3 km/h (3 Bft) 97,56 %
02.07.2017 09:24 14,4 C 21,1 C 94 % 1015,3 hPa 0,0 l/m 11,8 km/h (2 Bft) W 259 0 min 0,000 mm 0,6 UV-I 112 W/m 13,4 C 11,7 C 17,7 km/h (3 Bft) 94,64 %
02.07.2017 09:26 14,4 C 21,1 C 93 % 1015,4 hPa 0,0 l/m 10,0 km/h (2 Bft) SW 229 0 min 0,000 mm 0,6 UV-I 111 W/m 13,3 C 12,5 C 16,1 km/h (3 Bft) 95,74 %
02.07.2017 09:28 14,5 C 21,1 C 94 % 1015,3 hPa 0,0 l/m 10,1 km/h (2 Bft) W-SW 240 0 min 0,000 mm 0,7 UV-I 118 W/m 13,5 C 12,5 C 14,5 km/h (3 Bft) 95,45 %
02.07.2017 09:30 14,5 C 21,1 C 94 % 1015,4 hPa 0,0 l/m 8,9 km/h (2 Bft) S-SW 194 0 min 0,000 mm 0,7 UV-I 119 W/m 13,5 C 13,1 C 17,7 km/h (3 Bft) 90,00 %
02.07.2017 09:32 14,5 C 21,1 C 94 % 1015,4 hPa 0,0 l/m 14,6 km/h (3 Bft) S-SW 206 0 min 0,000 mm 0,6 UV-I 107 W/m 13,5 C 10,7 C 20,9 km/h (4 Bft) 87,80 %
02.07.2017 09:34 14,5 C 21,1 C 94 % 1015,4 hPa 0,0 l/m 10,5 km/h (2 Bft) SW 222 0 min 0,000 mm 0,5 UV-I 92 W/m 13,5 C 12,3 C 14,5 km/h (3 Bft) 84,21 %
02.07.2017 09:36 14,5 C 21,1 C 94 % 1015,4 hPa 0,0 l/m 13,6 km/h (3 Bft) W-SW 242 0 min 0,000 mm 0,6 UV-I 99 W/m 13,5 C 11,1 C 20,9 km/h (4 Bft) 94,64 %
02.07.2017 09:38 14,5 C 21,1 C 94 % 1015,4 hPa 0,0 l/m 12,4 km/h (3 Bft) SW 232 0 min 0,000 mm 0,6 UV-I 101 W/m 13,5 C 11,5 C 17,7 km/h (3 Bft) 91,49 %
02.07.2017 09:40 14,4 C 21,1 C 94 % 1015,4 hPa 0,0 l/m 15,6 km/h (3 Bft) SW 225 0 min 0,000 mm 0,6 UV-I 103 W/m 13,4 C 10,3 C 20,9 km/h (4 Bft) 93,18 %
02.07.2017 09:42 14,4 C 21,1 C 94 % 1015,4 hPa 0,0 l/m 13,7 km/h (3 Bft) W-SW 240 0 min 0,000 mm 0,6 UV-I 101 W/m 13,4 C 10,9 C 17,7 km/h (3 Bft) 95,45 %
02.07.2017 09:44 14,5 C 21,1 C 94 % 1015,4 hPa 0,0 l/m 11,3 km/h (2 Bft) W 259 0 min 0,000 mm 0,6 UV-I 105 W/m 13,5 C 12,0 C 22,5 km/h (4 Bft) 91,07 %
02.07.2017 09:46 14,5 C 21,1 C 94 % 1015,5 hPa 0,0 l/m 13,5 km/h (3 Bft) SW 231 0 min 0,000 mm 0,6 UV-I 105 W/m 13,5 C 11,1 C 19,3 km/h (3 Bft) 94,44 %
02.07.2017 09:48 14,5 C 21,1 C 94 % 1015,5 hPa 0,0 l/m 10,6 km/h (2 Bft) SW 236 0 min 0,000 mm 0,7 UV-I 112 W/m 13,5 C 12,3 C 16,1 km/h (3 Bft) 94,34 %
02.07.2017 09:50 14,5 C 21,1 C 94 % 1015,4 hPa 0,0 l/m 9,6 km/h (2 Bft) W-SW 250 0 min 0,000 mm 0,6 UV-I 111 W/m 13,5 C 12,8 C 14,5 km/h (3 Bft) 95,12 %
02.07.2017 09:52 14,6 C 21,1 C 94 % 1015,4 hPa 0,0 l/m 12,5 km/h (3 Bft) W-SW 246 0 min 0,000 mm 0,7 UV-I 114 W/m 13,6 C 11,6 C 20,9 km/h (4 Bft) 92,45 %
02.07.2017 09:54 14,6 C 21,1 C 94 % 1015,5 hPa 0,0 l/m 9,3 km/h (2 Bft) SW 214 0 min 0,000 mm 0,8 UV-I 132 W/m 13,6 C 13,0 C 16,1 km/h (3 Bft) 88,64 %
02.07.2017 09:56 14,6 C 21,1 C 94 % 1015,5 hPa 0,0 l/m 10,0 km/h (2 Bft) SW 233 0 min 0,000 mm 0,9 UV-I 148 W/m 13,6 C 12,7 C 12,9 km/h (3 Bft) 90,91 %
02.07.2017 09:58 14,7 C 21,1 C 94 % 1015,5 hPa 0,0 l/m 12,1 km/h (2 Bft) W-SW 240 0 min 0,000 mm 1,0 UV-I 154 W/m 13,7 C 11,9 C 16,1 km/h (3 Bft) 92,45 %
02.07.2017 10:00 14,7 C 21,1 C 94 % 1015,5 hPa 0,0 l/m 11,1 km/h (2 Bft) W-SW 244 0 min 0,076 mm 1,0 UV-I 151 W/m 13,7 C 12,3 C 19,3 km/h (3 Bft) 91,49 %
02.07.2017 10:02 14,7 C 21,1 C 94 % 1015,5 hPa 0,0 l/m 12,5 km/h (3 Bft) S-SW 213 0 min 0,000 mm 0,9 UV-I 149 W/m 13,7 C 11,7 C 20,9 km/h (4 Bft) 92,31 %
02.07.2017 10:04 14,7 C 21,1 C 94 % 1015,5 hPa 0,0 l/m 10,8 km/h (2 Bft) S-SW 206 0 min 0,000 mm 0,9 UV-I 148 W/m 13,7 C 12,4 C 17,7 km/h (3 Bft) 96,43 %
02.07.2017 10:06 14,7 C 21,1 C 94 % 1015,5 hPa 0,0 l/m 15,7 km/h (3 Bft) SW 225 0 min 0,000 mm 1,0 UV-I 160 W/m 13,7 C 10,6 C 22,5 km/h (4 Bft) 95,12 %
02.07.2017 10:08 14,7 C 21,1 C 94 % 1015,5 hPa 0,0 l/m 11,3 km/h (2 Bft) S-SW 204 0 min 0,000 mm 1,0 UV-I 159 W/m 13,7 C 12,2 C 16,1 km/h (3 Bft) 97,83 %
02.07.2017 10:10 14,7 C 21,1 C 94 % 1015,5 hPa 0,0 l/m 15,2 km/h (3 Bft) SW 227 0 min 0,000 mm 1,0 UV-I 162 W/m 13,7 C 10,8 C 22,5 km/h (4 Bft) 98,11 %
02.07.2017 10:12 14,7 C 21,1 C 94 % 1015,5 hPa 0,0 l/m 14,4 km/h (3 Bft) W-SW 255 0 min 0,000 mm 1,1 UV-I 169 W/m 13,7 C 11,0 C 19,3 km/h (3 Bft) 98,00 %
02.07.2017 10:14 14,8 C 21,1 C 94 % 1015,5 hPa 0,0 l/m 9,7 km/h (2 Bft) W 259 0 min 0,000 mm 1,2 UV-I 175 W/m 13,8 C 13,0 C 16,1 km/h (3 Bft) 100,00 %
02.07.2017 10:16 14,8 C 21,1 C 94 % 1015,5 hPa 0,0 l/m 14,0 km/h (3 Bft) W-SW 257 0 min 0,000 mm 1,2 UV-I 174 W/m 13,8 C 11,3 C 19,3 km/h (3 Bft) 90,91 %
02.07.2017 10:18 14,8 C 21,1 C 94 % 1015,6 hPa 0,0 l/m 13,2 km/h (3 Bft) SW 224 0 min 0,000 mm 1,1 UV-I 163 W/m 13,8 C 11,6 C 22,5 km/h (4 Bft) 97,56 %
02.07.2017 10:20 14,8 C 21,1 C 94 % 1015,6 hPa 0,0 l/m 13,2 km/h (3 Bft) W-SW 246 0 min 0,000 mm 1,1 UV-I 158 W/m 13,8 C 11,6 C 22,5 km/h (4 Bft) 100,00 %
02.07.2017 10:22 14,8 C 21,1 C 94 % 1015,6 hPa 0,0 l/m 12,3 km/h (3 Bft) S-SW 211 0 min 0,000 mm 0,9 UV-I 140 W/m 13,8 C 11,9 C 19,3 km/h (3 Bft) 100,00 %
02.07.2017 10:24 14,8 C 21,1 C 94 % 1015,7 hPa 0,0 l/m 11,4 km/h (2 Bft) W-SW 246 0 min 0,000 mm 0,9 UV-I 143 W/m 13,8 C 12,3 C 17,7 km/h (3 Bft) 100,00 %
02.07.2017 10:26 14,8 C 21,1 C 94 % 1015,6 hPa 0,0 l/m 10,6 km/h (2 Bft) W-SW 241 0 min 0,000 mm 0,9 UV-I 140 W/m 13,8 C 12,6 C 16,1 km/h (3 Bft) 100,00 %
02.07.2017 10:28 14,8 C 21,1 C 94 % 1015,7 hPa 0,0 l/m 14,1 km/h (3 Bft) W-SW 239 0 min 0,000 mm 0,8 UV-I 123 W/m 13,8 C 11,3 C 22,5 km/h (4 Bft) 97,22 %
02.07.2017 10:30 14,8 C 21,1 C 94 % 1015,7 hPa 0,0 l/m 13,3 km/h (3 Bft) W 261 0 min 0,000 mm 0,9 UV-I 121 W/m 13,8 C 11,5 C 19,3 km/h (3 Bft) 98,04 %
02.07.2017 10:32 14,8 C 21,1 C 94 % 1015,7 hPa 0,0 l/m 9,5 km/h (2 Bft) W-SW 240 0 min 0,000 mm 0,9 UV-I 122 W/m 13,8 C 13,1 C 16,1 km/h (3 Bft) 98,00 %
02.07.2017 10:34 14,8 C 21,1 C 94 % 1015,7 hPa 0,0 l/m 12,2 km/h (2 Bft) W-SW 250 0 min 0,000 mm 0,7 UV-I 115 W/m 13,8 C 12,0 C 16,1 km/h (3 Bft) 92,45 %
02.07.2017 10:36 14,8 C 21,1 C 94 % 1015,8 hPa 0,0 l/m 12,2 km/h (2 Bft) W-SW 252 0 min 0,000 mm 0,8 UV-I 116 W/m 13,8 C 12,0 C 19,3 km/h (3 Bft) 97,56 %
02.07.2017 10:38 14,8 C 21,1 C 94 % 1015,8 hPa 0,0 l/m 11,5 km/h (2 Bft) W-SW 257 0 min 0,000 mm 0,7 UV-I 108 W/m 13,8 C 12,2 C 16,1 km/h (3 Bft) 94,00 %
02.07.2017 10:40 14,8 C 21,1 C 94 % 1015,8 hPa 0,0 l/m 8,4 km/h (2 Bft) W-SW 250 0 min 0,000 mm 0,7 UV-I 100 W/m 13,8 C 13,7 C 14,5 km/h (3 Bft) 97,56 %
02.07.2017 10:42 14,8 C 21,1 C 94 % 1015,8 hPa 0,0 l/m 10,3 km/h (2 Bft) W 261 0 min 0,000 mm 0,6 UV-I 92 W/m 13,8 C 12,8 C 14,5 km/h (3 Bft) 100,00 %
02.07.2017 10:44 14,8 C 21,1 C 94 % 1015,8 hPa 0,2 l/m 11,8 km/h (2 Bft) W-SW 250 0 min 0,000 mm 0,6 UV-I 89 W/m 13,8 C 12,1 C 17,7 km/h (3 Bft) 90,00 %
02.07.2017 10:46 14,8 C 21,1 C 94 % 1015,8 hPa 0,0 l/m 9,4 km/h (2 Bft) W 261 0 min 0,000 mm 0,6 UV-I 72 W/m 13,8 C 13,2 C 14,5 km/h (3 Bft) 97,37 %
02.07.2017 10:48 14,8 C 21,1 C 94 % 1015,8 hPa 0,0 l/m 11,1 km/h (2 Bft) SW 234 0 min 0,000 mm 0,5 UV-I 77 W/m 13,8 C 12,4 C 17,7 km/h (3 Bft) 94,34 %
02.07.2017 10:50 14,8 C 21,1 C 94 % 1015,9 hPa 0,0 l/m 9,8 km/h (2 Bft) W-SW 239 0 min 0,000 mm 0,6 UV-I 86 W/m 13,8 C 13,0 C 16,1 km/h (3 Bft) 100,00 %
02.07.2017 10:53 14,8 C 21,1 C 94 % 1015,9 hPa 0,0 l/m 7,4 km/h (2 Bft) W-SW 242 0 min 0,000 mm 0,6 UV-I 91 W/m 13,8 C 14,2 C 12,9 km/h (3 Bft) 97,06 %
02.07.2017 10:54 14,8 C 21,1 C 94 % 1015,9 hPa 0,0 l/m 7,0 km/h (2 Bft) W-SW 242 0 min 0,000 mm 0,6 UV-I 91 W/m 13,8 C 14,5 C 11,3 km/h (2 Bft) 100,00 %
02.07.2017 10:56 14,9 C 21,1 C 95 % 1015,9 hPa 0,0 l/m 7,7 km/h (2 Bft) SW 230 0 min 0,000 mm 0,6 UV-I 86 W/m 14,1 C 14,2 C 14,5 km/h (3 Bft) 91,53 %
02.07.2017 10:58 14,9 C 21,1 C 94 % 1015,9 hPa 0,0 l/m 6,2 km/h (2 Bft) W-SW 248 0 min 0,000 mm 0,5 UV-I 86 W/m 13,9 C 14,9 C 9,7 km/h (2 Bft) 95,12 %
02.07.2017 11:00 14,9 C 21,1 C 94 % 1015,9 hPa 0,0 l/m 6,6 km/h (2 Bft) SW 229 0 min 0,000 mm 0,6 UV-I 89 W/m 13,9 C 14,8 C 12,9 km/h (3 Bft) 97,44 %
02.07.2017 11:02 14,8 C 21,1 C 94 % 1016,0 hPa 0,0 l/m 10,0 km/h (2 Bft) W-SW 252 0 min 0,076 mm 0,7 UV-I 111 W/m 13,8 C 12,9 C 16,1 km/h (3 Bft) 98,18 %
02.07.2017 11:04 14,8 C 21,1 C 94 % 1016,0 hPa 0,0 l/m 8,7 km/h (2 Bft) W-SW 255 0 min 0,000 mm 0,7 UV-I 98 W/m 13,8 C 13,5 C 16,1 km/h (3 Bft) 94,00 %
02.07.2017 11:06 14,9 C 21,1 C 94 % 1016,0 hPa 0,0 l/m 9,4 km/h (2 Bft) SW 235 0 min 0,000 mm 0,9 UV-I 130 W/m 13,9 C 13,3 C 16,1 km/h (3 Bft) 94,00 %
02.07.2017 11:08 14,9 C 21,1 C 94 % 1016,1 hPa 0,0 l/m 7,0 km/h (2 Bft) W-SW 257 0 min 0,000 mm 0,9 UV-I 126 W/m 13,9 C 14,6 C 12,9 km/h (3 Bft) 100,00 %
02.07.2017 11:10 14,9 C 21,1 C 94 % 1016,1 hPa 0,0 l/m 7,0 km/h (2 Bft) W-SW 252 0 min 0,000 mm 0,8 UV-I 117 W/m 13,9 C 14,6 C 12,9 km/h (3 Bft) 100,00 %
02.07.2017 11:12 14,9 C 21,1 C 94 % 1016,1 hPa 0,0 l/m 8,8 km/h (2 Bft) SW 225 0 min 0,000 mm 0,9 UV-I 131 W/m 13,9 C 13,6 C 12,9 km/h (3 Bft) 95,74 %
02.07.2017 11:14 15,0 C 21,1 C 94 % 1016,1 hPa 0,0 l/m 9,8 km/h (2 Bft) SW 223 0 min 0,000 mm 1,0 UV-I 142 W/m 14,0 C 13,2 C 14,5 km/h (3 Bft) 98,11 %
02.07.2017 11:16 14,9 C 21,1 C 94 % 1016,1 hPa 0,0 l/m 9,3 km/h (2 Bft) S-SW 195 0 min 0,000 mm 1,0 UV-I 140 W/m 13,9 C 13,3 C 16,1 km/h (3 Bft) 100,00 %
02.07.2017 11:18 15,0 C 21,1 C 94 % 1016,2 hPa 0,0 l/m 9,0 km/h (2 Bft) SW 226 0 min 0,000 mm 1,0 UV-I 138 W/m 14,0 C 13,6 C 14,5 km/h (3 Bft) 100,00 %
02.07.2017 11:20 15,1 C 21,1 C 94 % 1016,1 hPa 0,0 l/m 7,2 km/h (2 Bft) W-SW 248 0 min 0,000 mm 1,0 UV-I 138 W/m 14,1 C 14,6 C 12,9 km/h (3 Bft) 96,00 %
02.07.2017 11:23 15,1 C 21,1 C 94 % 1016,2 hPa 0,0 l/m 8,0 km/h (2 Bft) W-SW 250 0 min 0,000 mm 1,0 UV-I 148 W/m 14,1 C 14,2 C 12,9 km/h (3 Bft) 98,73 %
02.07.2017 11:24 15,1 C 21,1 C 94 % 1016,2 hPa 0,0 l/m 6,9 km/h (2 Bft) W-SW 238 0 min 0,000 mm 1,1 UV-I 150 W/m 14,1 C 14,8 C 12,9 km/h (3 Bft) 91,67 %
02.07.2017 11:26 15,1 C 21,1 C 94 % 1016,2 hPa 0,0 l/m 7,1 km/h (2 Bft) W 278 0 min 0,000 mm 1,3 UV-I 179 W/m 14,1 C 14,7 C 11,3 km/h (2 Bft) 96,23 %
02.07.2017 11:28 15,2 C 21,1 C 94 % 1016,2 hPa 0,0 l/m 9,2 km/h (2 Bft) W-SW 244 0 min 0,000 mm 1,5 UV-I 205 W/m 14,2 C 13,7 C 16,1 km/h (3 Bft) 92,00 %
02.07.2017 11:30 15,2 C 21,1 C 94 % 1016,2 hPa 0,0 l/m 11,3 km/h (2 Bft) W 266 0 min 0,000 mm 1,5 UV-I 210 W/m 14,2 C 12,8 C 14,5 km/h (3 Bft) 94,74 %
02.07.2017 11:32 15,2 C 21,1 C 94 % 1016,2 hPa 0,0 l/m 8,9 km/h (2 Bft) W 261 0 min 0,000 mm 1,5 UV-I 211 W/m 14,2 C 13,9 C 12,9 km/h (3 Bft) 90,91 %
02.07.2017 11:34 15,3 C 21,1 C 94 % 1016,2 hPa 0,0 l/m 8,5 km/h (2 Bft) W-SW 241 0 min 0,000 mm 1,8 UV-I 238 W/m 14,3 C 14,2 C 12,9 km/h (3 Bft) 94,64 %
02.07.2017 11:36 15,3 C 21,1 C 94 % 1016,2 hPa 0,2 l/m 11,1 km/h (2 Bft) W-SW 258 0 min 0,000 mm 1,7 UV-I 225 W/m 14,3 C 13,0 C 16,1 km/h (3 Bft) 97,37 %
02.07.2017 11:38 15,3 C 21,1 C 94 % 1016,2 hPa 0,0 l/m 9,3 km/h (2 Bft) W-SW 241 0 min 0,000 mm 1,5 UV-I 210 W/m 14,3 C 13,8 C 16,1 km/h (3 Bft) 91,07 %
02.07.2017 11:40 15,3 C 21,1 C 94 % 1016,2 hPa 0,0 l/m 8,2 km/h (2 Bft) W-SW 243 0 min 0,000 mm 1,6 UV-I 223 W/m 14,3 C 14,3 C 16,1 km/h (3 Bft) 95,74 %
02.07.2017 11:42 15,3 C 21,1 C 94 % 1016,2 hPa 0,0 l/m 12,1 km/h (2 Bft) SW 235 0 min 0,000 mm 1,7 UV-I 230 W/m 14,3 C 12,6 C 20,9 km/h (4 Bft) 97,44 %
02.07.2017 11:44 15,3 C 21,1 C 94 % 1016,3 hPa 0,0 l/m 10,9 km/h (2 Bft) W-SW 255 0 min 0,000 mm 1,5 UV-I 214 W/m 14,3 C 13,1 C 17,7 km/h (3 Bft) 95,74 %
02.07.2017 11:46 15,3 C 21,1 C 94 % 1016,3 hPa 0,0 l/m 8,7 km/h (2 Bft) W-SW 240 0 min 0,000 mm 1,7 UV-I 216 W/m 14,3 C 14,1 C 14,5 km/h (3 Bft) 94,00 %
02.07.2017 11:48 15,3 C 21,1 C 94 % 1016,3 hPa 0,0 l/m 10,1 km/h (2 Bft) SW 233 0 min 0,000 mm 1,5 UV-I 210 W/m 14,3 C 13,4 C 14,5 km/h (3 Bft) 98,11 %
02.07.2017 11:50 15,4 C 21,1 C 94 % 1016,3 hPa 0,2 l/m 6,2 km/h (2 Bft) SW 232 0 min 0,000 mm 1,4 UV-I 201 W/m 14,4 C 15,4 C 9,7 km/h (2 Bft) 92,68 %
02.07.2017 11:53 15,4 C 21,1 C 94 % 1016,3 hPa 0,0 l/m 9,8 km/h (2 Bft) W-NW 288 0 min 0,000 mm 1,4 UV-I 204 W/m 14,4 C 13,6 C 16,1 km/h (3 Bft) 92,42 %
02.07.2017 11:54 15,4 C 21,1 C 94 % 1016,3 hPa 0,0 l/m 13,0 km/h (3 Bft) W-SW 240 0 min 0,000 mm 1,8 UV-I 240 W/m 14,4 C 12,4 C 19,3 km/h (3 Bft) 92,59 %
02.07.2017 11:56 15,4 C 21,1 C 94 % 1016,3 hPa 0,0 l/m 11,6 km/h (2 Bft) W-SW 243 0 min 0,000 mm 1,8 UV-I 243 W/m 14,4 C 12,9 C 17,7 km/h (3 Bft) 96,23 %
02.07.2017 11:58 15,4 C 21,1 C 94 % 1016,3 hPa 0,0 l/m 7,2 km/h (2 Bft) W 273 0 min 0,000 mm 1,7 UV-I 226 W/m 14,4 C 15,0 C 11,3 km/h (2 Bft) 94,74 %
02.07.2017 12:00 15,4 C 21,1 C 94 % 1016,3 hPa 0,0 l/m 7,1 km/h (2 Bft) W-SW 253 0 min 0,102 mm 1,7 UV-I 221 W/m 14,4 C 15,0 C 14,5 km/h (3 Bft) 97,37 %
02.07.2017 12:02 15,4 C 21,1 C 94 % 1016,3 hPa 0,0 l/m 8,7 km/h (2 Bft) W-NW 294 0 min 0,000 mm 1,6 UV-I 215 W/m 14,4 C 14,2 C 16,1 km/h (3 Bft) 95,38 %
02.07.2017 12:04 15,5 C 21,1 C 94 % 1016,3 hPa 0,0 l/m 11,2 km/h (2 Bft) W-SW 246 0 min 0,000 mm 1,6 UV-I 207 W/m 14,5 C 13,2 C 19,3 km/h (3 Bft) 97,56 %
02.07.2017 12:06 15,5 C 21,1 C 94 % 1016,3 hPa 0,0 l/m 9,2 km/h (2 Bft) W-NW 287 0 min 0,000 mm 1,7 UV-I 217 W/m 14,5 C 14,0 C 14,5 km/h (3 Bft) 92,11 %
02.07.2017 12:08 15,4 C 21,1 C 94 % 1016,3 hPa 0,2 l/m 8,0 km/h (2 Bft) W-SW 242 0 min 0,000 mm 1,7 UV-I 218 W/m 14,4 C 14,5 C 14,5 km/h (3 Bft) 100,00 %
02.07.2017 12:10 15,6 C 21,1 C 94 % 1016,3 hPa 0,0 l/m 6,8 km/h (2 Bft) W-SW 249 0 min 0,000 mm 1,6 UV-I 217 W/m 14,6 C 15,4 C 11,3 km/h (2 Bft) 98,11 %
02.07.2017 12:12 15,7 C 21,1 C 95 % 1016,4 hPa 0,0 l/m 7,1 km/h (2 Bft) W-NW 282 0 min 0,000 mm 1,6 UV-I 216 W/m 14,9 C 15,3 C 12,9 km/h (3 Bft) 91,49 %
02.07.2017 12:14 15,7 C 21,1 C 94 % 1016,4 hPa 0,0 l/m 6,9 km/h (2 Bft) S-SW 210 0 min 0,000 mm 1,6 UV-I 217 W/m 14,7 C 15,4 C 11,3 km/h (2 Bft) 95,74 %
02.07.2017 12:16 15,6 C 21,1 C 94 % 1016,4 hPa 0,0 l/m 10,5 km/h (2 Bft) W-SW 251 0 min 0,000 mm 1,6 UV-I 214 W/m 14,6 C 13,6 C 19,3 km/h (3 Bft) 100,00 %
02.07.2017 12:18 15,7 C 21,1 C 94 % 1016,4 hPa 0,0 l/m 7,6 km/h (2 Bft) W 265 0 min 0,000 mm 1,5 UV-I 199 W/m 14,7 C 15,0 C 12,9 km/h (3 Bft) 97,73 %
02.07.2017 12:20 15,6 C 21,1 C 94 % 1016,4 hPa 0,0 l/m 11,7 km/h (2 Bft) W-SW 247 0 min 0,000 mm 1,8 UV-I 224 W/m 14,6 C 13,1 C 19,3 km/h (3 Bft) 100,00 %
02.07.2017 12:22 15,6 C 21,1 C 94 % 1016,4 hPa 0,0 l/m 9,6 km/h (2 Bft) W-SW 254 0 min 0,000 mm 2,0 UV-I 247 W/m 14,6 C 14,0 C 12,9 km/h (3 Bft) 97,62 %
02.07.2017 12:24 15,7 C 21,1 C 94 % 1016,4 hPa 0,0 l/m 11,5 km/h (2 Bft) W-SW 254 0 min 0,000 mm 2,1 UV-I 265 W/m 14,7 C 13,3 C 16,1 km/h (3 Bft) 100,00 %
02.07.2017 12:26 15,7 C 21,1 C 94 % 1016,4 hPa 0,2 l/m 9,4 km/h (2 Bft) W-SW 253 0 min 0,000 mm 2,1 UV-I 268 W/m 14,7 C 14,2 C 16,1 km/h (3 Bft) 98,00 %
02.07.2017 12:28 15,7 C 21,1 C 94 % 1016,4 hPa 0,0 l/m 7,5 km/h (2 Bft) W-SW 254 0 min 0,000 mm 1,6 UV-I 225 W/m 14,7 C 15,1 C 11,3 km/h (2 Bft) 100,00 %
02.07.2017 12:30 15,7 C 21,1 C 94 % 1016,4 hPa 0,0 l/m 11,3 km/h (2 Bft) W-SW 239 0 min 0,000 mm 1,5 UV-I 209 W/m 14,7 C 13,3 C 16,1 km/h (3 Bft) 100,00 %
02.07.2017 12:32 15,6 C 21,1 C 94 % 1016,4 hPa 0,0 l/m 12,7 km/h (3 Bft) W 264 0 min 0,000 mm 1,5 UV-I 205 W/m 14,6 C 12,7 C 17,7 km/h (3 Bft) 100,00 %
02.07.2017 12:34 15,7 C 21,1 C 94 % 1016,4 hPa 0,0 l/m 7,2 km/h (2 Bft) SW 217 0 min 0,000 mm 2,1 UV-I 274 W/m 14,7 C 15,3 C 11,3 km/h (2 Bft) 100,00 %
02.07.2017 12:36 15,7 C 21,1 C 94 % 1016,4 hPa 0,0 l/m 5,3 km/h (1 Bft) S-SW 197 0 min 0,000 mm 2,3 UV-I 315 W/m 14,7 C 15,7 C 11,3 km/h (2 Bft) 97,56 %
02.07.2017 12:38 15,8 C 21,1 C 95 % 1016,4 hPa 0,0 l/m 5,1 km/h (1 Bft) SW 224 0 min 0,000 mm 2,4 UV-I 322 W/m 15,0 C 15,8 C 9,7 km/h (2 Bft) 100,00 %
02.07.2017 12:40 15,9 C 21,1 C 94 % 1016,4 hPa 0,0 l/m 7,1 km/h (2 Bft) W-SW 251 0 min 0,000 mm 2,8 UV-I 362 W/m 14,9 C 15,5 C 9,7 km/h (2 Bft) 97,37 %
02.07.2017 12:42 16,1 C 21,1 C 95 % 1016,4 hPa 0,0 l/m 4,9 km/h (1 Bft) SW 228 0 min 0,000 mm 2,6 UV-I 336 W/m 15,3 C 16,1 C 11,3 km/h (2 Bft) 100,00 %
02.07.2017 12:44 16,1 C 21,1 C 94 % 1016,4 hPa 0,0 l/m 4,9 km/h (1 Bft) S-SW 192 0 min 0,000 mm 2,9 UV-I 375 W/m 15,1 C 16,1 C 8,0 km/h (2 Bft) 97,56 %
02.07.2017 12:46 16,1 C 21,1 C 94 % 1016,4 hPa 0,0 l/m 8,7 km/h (2 Bft) SW 219 0 min 0,000 mm 3,0 UV-I 374 W/m 15,1 C 14,9 C 12,9 km/h (3 Bft) 96,00 %
02.07.2017 12:48 16,1 C 21,1 C 94 % 1016,4 hPa 0,0 l/m 6,4 km/h (2 Bft) SW 215 0 min 0,000 mm 2,6 UV-I 334 W/m 15,1 C 16,1 C 11,3 km/h (2 Bft) 100,00 %
02.07.2017 12:50 16,1 C 21,1 C 94 % 1016,4 hPa 0,0 l/m 5,4 km/h (1 Bft) SW 235 0 min 0,000 mm 2,5 UV-I 315 W/m 15,1 C 16,1 C 8,0 km/h (2 Bft) 97,56 %
02.07.2017 12:52 16,1 C 21,1 C 93 % 1016,4 hPa 0,0 l/m 10,4 km/h (2 Bft) SW 230 0 min 0,000 mm 2,3 UV-I 285 W/m 15,0 C 14,2 C 17,7 km/h (3 Bft) 100,00 %
02.07.2017 12:54 16,1 C 21,1 C 94 % 1016,4 hPa 0,0 l/m 10,9 km/h (2 Bft) SW 228 0 min 0,000 mm 2,6 UV-I 321 W/m 15,1 C 14,0 C 16,1 km/h (3 Bft) 96,23 %
02.07.2017 12:56 16,3 C 21,1 C 94 % 1016,4 hPa 0,0 l/m 7,1 km/h (2 Bft) S 180 0 min 0,000 mm 2,9 UV-I 343 W/m 15,3 C 15,9 C 11,3 km/h (2 Bft) 97,14 %
02.07.2017 12:58 16,3 C 21,1 C 93 % 1016,3 hPa 0,0 l/m 9,3 km/h (2 Bft) W 264 0 min 0,000 mm 2,7 UV-I 312 W/m 15,2 C 14,9 C 17,7 km/h (3 Bft) 96,00 %
02.07.2017 13:00 16,3 C 21,1 C 94 % 1016,4 hPa 0,0 l/m 8,9 km/h (2 Bft) SW 230 0 min 0,152 mm 2,5 UV-I 300 W/m 15,3 C 15,0 C 16,1 km/h (3 Bft) 96,15 %
02.07.2017 13:02 16,4 C 21,1 C 93 % 1016,3 hPa 0,0 l/m 9,3 km/h (2 Bft) SW 218 0 min 0,000 mm 2,3 UV-I 275 W/m 15,3 C 15,0 C 14,5 km/h (3 Bft) 97,44 %
02.07.2017 13:04 16,3 C 21,1 C 92 % 1016,4 hPa 0,0 l/m 8,2 km/h (2 Bft) SW 217 0 min 0,000 mm 1,9 UV-I 243 W/m 15,0 C 15,4 C 14,5 km/h (3 Bft) 97,56 %
02.07.2017 13:06 16,3 C 21,1 C 93 % 1016,4 hPa 0,0 l/m 7,6 km/h (2 Bft) W-SW 237 0 min 0,000 mm 1,9 UV-I 233 W/m 15,2 C 15,7 C 11,3 km/h (2 Bft) 96,15 %
02.07.2017 13:08 16,3 C 21,1 C 93 % 1016,4 hPa 0,0 l/m 11,5 km/h (2 Bft) S-SW 212 0 min 0,000 mm 1,6 UV-I 202 W/m 15,2 C 14,0 C 16,1 km/h (3 Bft) 98,11 %
02.07.2017 13:10 16,3 C 21,1 C 93 % 1016,4 hPa 0,0 l/m 9,9 km/h (2 Bft) SW 228 0 min 0,000 mm 1,4 UV-I 175 W/m 15,2 C 14,6 C 14,5 km/h (3 Bft) 98,00 %
02.07.2017 13:12 16,2 C 21,1 C 92 % 1016,4 hPa 0,0 l/m 9,6 km/h (2 Bft) W-SW 237 0 min 0,000 mm 1,2 UV-I 151 W/m 14,9 C 14,6 C 17,7 km/h (3 Bft) 95,74 %
02.07.2017 13:14 16,2 C 21,1 C 93 % 1016,4 hPa 0,0 l/m 12,4 km/h (3 Bft) SW 225 0 min 0,000 mm 0,9 UV-I 115 W/m 15,1 C 13,5 C 17,7 km/h (3 Bft) 97,37 %
02.07.2017 13:16 16,1 C 21,1 C 92 % 1016,4 hPa 0,0 l/m 8,4 km/h (2 Bft) SW 217 0 min 0,000 mm 0,7 UV-I 94 W/m 14,8 C 15,1 C 14,5 km/h (3 Bft) 94,00 %
02.07.2017 13:18 16,1 C 21,1 C 92 % 1016,4 hPa 0,0 l/m 10,4 km/h (2 Bft) SW 219 0 min 0,000 mm 0,6 UV-I 84 W/m 14,8 C 14,2 C 12,9 km/h (3 Bft) 95,65 %
02.07.2017 13:20 16,1 C 21,1 C 92 % 1016,4 hPa 0,0 l/m 11,2 km/h (2 Bft) W-SW 252 0 min 0,000 mm 0,6 UV-I 86 W/m 14,8 C 13,8 C 16,1 km/h (3 Bft) 98,11 %
02.07.2017 13:22 16,0 C 21,1 C 92 % 1016,4 hPa 0,0 l/m 10,9 km/h (2 Bft) W-SW 238 0 min 0,000 mm 0,8 UV-I 102 W/m 14,7 C 13,8 C 16,1 km/h (3 Bft) 95,45 %
02.07.2017 13:24 16,0 C 21,1 C 92 % 1016,4 hPa 0,0 l/m 11,3 km/h (2 Bft) SW 227 0 min 0,000 mm 1,0 UV-I 128 W/m 14,7 C 13,7 C 16,1 km/h (3 Bft) 96,00 %
02.07.2017 13:26 16,0 C 21,1 C 92 % 1016,4 hPa 0,0 l/m 10,1 km/h (2 Bft) SW 233 0 min 0,000 mm 1,2 UV-I 144 W/m 14,7 C 14,2 C 14,5 km/h (3 Bft) 92,11 %
02.07.2017 13:28 16,1 C 21,1 C 93 % 1016,5 hPa 0,0 l/m 7,7 km/h (2 Bft) SW 229 0 min 0,000 mm 1,1 UV-I 134 W/m 15,0 C 15,4 C 12,9 km/h (3 Bft) 94,00 %
02.07.2017 13:30 16,1 C 21,1 C 92 % 1016,5 hPa 0,0 l/m 6,2 km/h (2 Bft) S-SW 205 0 min 0,000 mm 0,8 UV-I 109 W/m 14,8 C 16,1 C 11,3 km/h (2 Bft) 95,45 %
02.07.2017 13:32 16,1 C 21,1 C 92 % 1016,4 hPa 0,0 l/m 11,7 km/h (2 Bft) W-SW 248 0 min 0,000 mm 0,9 UV-I 123 W/m 14,8 C 13,7 C 17,7 km/h (3 Bft) 90,91 %
02.07.2017 13:34 16,1 C 21,1 C 92 % 1016,4 hPa 0,0 l/m 9,4 km/h (2 Bft) SW 230 0 min 0,000 mm 1,2 UV-I 159 W/m 14,8 C 14,6 C 12,9 km/h (3 Bft) 96,61 %
02.07.2017 13:36 16,1 C 21,1 C 92 % 1016,5 hPa 0,0 l/m 7,7 km/h (2 Bft) W-SW 246 0 min 0,000 mm 1,6 UV-I 198 W/m 14,8 C 15,4 C 12,9 km/h (3 Bft) 92,68 %
02.07.2017 13:38 16,2 C 21,1 C 93 % 1016,5 hPa 0,0 l/m 8,6 km/h (2 Bft) S-SW 202 0 min 0,000 mm 1,7 UV-I 205 W/m 15,1 C 15,1 C 14,5 km/h (3 Bft) 90,57 %
02.07.2017 13:40 16,3 C 21,1 C 93 % 1016,4 hPa 0,0 l/m 7,5 km/h (2 Bft) S-SW 196 0 min 0,000 mm 1,7 UV-I 198 W/m 15,2 C 15,7 C 11,3 km/h (2 Bft) 86,11 %
02.07.2017 13:42 16,3 C 21,1 C 93 % 1016,4 hPa 0,0 l/m 10,4 km/h (2 Bft) SW 229 0 min 0,000 mm 1,5 UV-I 198 W/m 15,2 C 14,4 C 14,5 km/h (3 Bft) 88,64 %
02.07.2017 13:44 16,3 C 21,1 C 92 % 1016,4 hPa 0,0 l/m 6,9 km/h (2 Bft) W-SW 242 0 min 0,000 mm 1,2 UV-I 179 W/m 15,0 C 16,0 C 12,9 km/h (3 Bft) 94,92 %
02.07.2017 13:46 16,4 C 21,1 C 92 % 1016,4 hPa 0,0 l/m 9,1 km/h (2 Bft) W-SW 255 0 min 0,000 mm 1,4 UV-I 196 W/m 15,1 C 15,1 C 14,5 km/h (3 Bft) 92,68 %
02.07.2017 13:48 16,4 C 21,1 C 92 % 1016,4 hPa 0,0 l/m 7,9 km/h (2 Bft) SW 217 0 min 0,000 mm 2,0 UV-I 264 W/m 15,1 C 15,6 C 12,9 km/h (3 Bft) 92,00 %
02.07.2017 13:50 16,6 C 21,1 C 93 % 1016,4 hPa 0,0 l/m 7,5 km/h (2 Bft) W-SW 248 0 min 0,000 mm 2,6 UV-I 334 W/m 15,5 C 16,0 C 12,9 km/h (3 Bft) 95,12 %
02.07.2017 13:52 16,7 C 21,1 C 91 % 1016,4 hPa 0,0 l/m 9,7 km/h (2 Bft) W-SW 247 0 min 0,000 mm 2,9 UV-I 366 W/m 15,2 C 15,1 C 14,5 km/h (3 Bft) 90,57 %
02.07.2017 13:54 16,8 C 21,1 C 92 % 1016,4 hPa 0,0 l/m 6,0 km/h (2 Bft) SW 223 0 min 0,000 mm 2,9 UV-I 369 W/m 15,5 C 16,8 C 9,7 km/h (2 Bft) 88,00 %
02.07.2017 13:56 16,9 C 21,1 C 92 % 1016,3 hPa 0,0 l/m 10,6 km/h (2 Bft) SW 235 0 min 0,000 mm 2,6 UV-I 330 W/m 15,6 C 15,0 C 17,7 km/h (3 Bft) 95,12 %
02.07.2017 13:58 17,0 C 21,1 C 91 % 1016,3 hPa 0,0 l/m 8,2 km/h (2 Bft) W-SW 238 0 min 0,000 mm 2,2 UV-I 290 W/m 15,5 C 16,1 C 16,1 km/h (3 Bft) 90,57 %
02.07.2017 14:00 17,1 C 21,1 C 90 % 1016,3 hPa 0,0 l/m 10,4 km/h (2 Bft) SW 225 0 min 0,000 mm 2,2 UV-I 300 W/m 15,4 C 15,3 C 14,5 km/h (3 Bft) 97,37 %
02.07.2017 14:02 17,1 C 21,1 C 90 % 1016,3 hPa 0,0 l/m 9,5 km/h (2 Bft) W-SW 244 0 min 0,127 mm 2,4 UV-I 362 W/m 15,4 C 15,6 C 14,5 km/h (3 Bft) 95,12 %
02.07.2017 14:04 17,2 C 21,1 C 89 % 1016,3 hPa 0,0 l/m 12,3 km/h (3 Bft) SW 232 0 min 0,000 mm 2,3 UV-I 331 W/m 15,4 C 14,7 C 17,7 km/h (3 Bft) 93,55 %
02.07.2017 14:06 17,3 C 21,1 C 89 % 1016,3 hPa 0,0 l/m 7,3 km/h (2 Bft) W-SW 239 0 min 0,000 mm 2,4 UV-I 332 W/m 15,5 C 16,9 C 12,9 km/h (3 Bft) 97,73 %
02.07.2017 14:08 17,3 C 21,1 C 89 % 1016,2 hPa 0,0 l/m 9,2 km/h (2 Bft) SW 230 0 min 0,000 mm 2,4 UV-I 339 W/m 15,5 C 16,0 C 16,1 km/h (3 Bft) 100,00 %
02.07.2017 14:10 17,4 C 21,1 C 88 % 1016,2 hPa 0,0 l/m 8,1 km/h (2 Bft) W-NW 288 0 min 0,000 mm 2,3 UV-I 333 W/m 15,4 C 16,6 C 12,9 km/h (3 Bft) 98,00 %
02.07.2017 14:12 17,4 C 21,1 C 88 % 1016,3 hPa 0,0 l/m 10,5 km/h (2 Bft) W-SW 254 0 min 0,000 mm 2,6 UV-I 357 W/m 15,4 C 15,6 C 14,5 km/h (3 Bft) 97,87 %
02.07.2017 14:14 17,6 C 21,1 C 88 % 1016,3 hPa 0,0 l/m 6,3 km/h (2 Bft) SW 217 0 min 0,000 mm 3,2 UV-I 443 W/m 15,6 C 17,6 C 11,3 km/h (2 Bft) 94,34 %
02.07.2017 14:16 17,8 C 21,1 C 88 % 1016,2 hPa 0,0 l/m 8,8 km/h (2 Bft) W-SW 246 0 min 0,000 mm 4,6 UV-I 464 W/m 15,8 C 16,7 C 12,9 km/h (3 Bft) 100,00 %
02.07.2017 14:18 17,9 C 21,1 C 85 % 1016,2 hPa 0,0 l/m 8,3 km/h (2 Bft) W-NW 294 0 min 0,000 mm 5,5 UV-I 464 W/m 15,3 C 17,0 C 16,1 km/h (3 Bft) 97,62 %
02.07.2017 14:20 18,1 C 21,7 C 84 % 1016,2 hPa 0,0 l/m 6,5 km/h (2 Bft) W-SW 242 2 min 0,000 mm 6,0 UV-I 840 W/m 15,4 C 18,1 C 11,3 km/h (2 Bft) 90,91 %
02.07.2017 14:22 18,3 C 21,7 C 83 % 1016,2 hPa 0,0 l/m 7,3 km/h (2 Bft) W-SW 242 2 min 0,000 mm 5,2 UV-I 1020 W/m 15,4 C 17,9 C 12,9 km/h (3 Bft) 100,00 %
02.07.2017 14:24 18,6 C 21,7 C 83 % 1016,2 hPa 0,0 l/m 10,7 km/h (2 Bft) W-SW 246 0 min 0,000 mm 2,9 UV-I 343 W/m 15,7 C 16,8 C 17,7 km/h (3 Bft) 96,23 %
02.07.2017 14:26 18,6 C 21,7 C 82 % 1016,2 hPa 0,0 l/m 11,0 km/h (2 Bft) S-SW 212 0 min 0,000 mm 4,2 UV-I 420 W/m 15,5 C 16,7 C 16,1 km/h (3 Bft) 94,74 %
02.07.2017 14:28 18,7 C 21,7 C 83 % 1016,1 hPa 0,0 l/m 10,4 km/h (2 Bft) W-SW 244 0 min 0,000 mm 3,9 UV-I 445 W/m 15,8 C 17,1 C 16,1 km/h (3 Bft) 94,34 %
02.07.2017 14:30 18,8 C 21,7 C 82 % 1016,2 hPa 0,0 l/m 11,1 km/h (2 Bft) W-SW 244 0 min 0,000 mm 3,3 UV-I 412 W/m 15,7 C 16,9 C 20,9 km/h (4 Bft) 100,00 %
02.07.2017 14:32 18,7 C 21,7 C 80 % 1016,1 hPa 0,0 l/m 13,3 km/h (3 Bft) W-SW 256 0 min 0,000 mm 3,1 UV-I 412 W/m 15,2 C 16,1 C 19,3 km/h (3 Bft) 100,00 %
02.07.2017 14:34 18,6 C 21,7 C 81 % 1016,2 hPa 0,0 l/m 10,0 km/h (2 Bft) W-SW 238 0 min 0,000 mm 2,6 UV-I 295 W/m 15,3 C 17,1 C 17,7 km/h (3 Bft) 96,61 %
02.07.2017 14:36 18,5 C 21,7 C 81 % 1016,2 hPa 0,0 l/m 10,7 km/h (2 Bft) W-SW 241 0 min 0,000 mm 2,2 UV-I 266 W/m 15,2 C 16,7 C 17,7 km/h (3 Bft) 95,45 %
02.07.2017 14:38 18,4 C 21,7 C 82 % 1016,2 hPa 0,0 l/m 12,3 km/h (3 Bft) W-SW 240 0 min 0,000 mm 2,8 UV-I 325 W/m 15,3 C 16,1 C 22,5 km/h (4 Bft) 97,87 %
02.07.2017 14:40 18,4 C 21,7 C 81 % 1016,2 hPa 0,0 l/m 11,5 km/h (2 Bft) W-SW 243 0 min 0,000 mm 2,9 UV-I 345 W/m 15,1 C 16,4 C 22,5 km/h (4 Bft) 100,00 %
02.07.2017 14:42 18,5 C 21,7 C 80 % 1016,2 hPa 0,0 l/m 11,1 km/h (2 Bft) SW 219 0 min 0,000 mm 4,2 UV-I 404 W/m 15,0 C 16,6 C 16,1 km/h (3 Bft) 95,45 %
02.07.2017 14:44 18,7 C 21,7 C 82 % 1016,2 hPa 0,0 l/m 8,3 km/h (2 Bft) W-SW 244 0 min 0,000 mm 3,8 UV-I 429 W/m 15,6 C 17,9 C 14,5 km/h (3 Bft) 96,23 %
02.07.2017 14:46 18,8 C 21,7 C 81 % 1016,2 hPa 0,0 l/m 10,4 km/h (2 Bft) W-SW 238 0 min 0,000 mm 3,6 UV-I 431 W/m 15,5 C 17,2 C 17,7 km/h (3 Bft) 100,00 %
02.07.2017 14:48 18,9 C 21,7 C 80 % 1016,1 hPa 0,0 l/m 10,5 km/h (2 Bft) S-SW 197 0 min 0,000 mm 3,1 UV-I 342 W/m 15,4 C 17,3 C 17,7 km/h (3 Bft) 100,00 %
02.07.2017 14:50 18,9 C 21,7 C 79 % 1016,2 hPa 0,0 l/m 7,3 km/h (2 Bft) W-SW 256 0 min 0,000 mm 3,6 UV-I 302 W/m 15,2 C 18,5 C 12,9 km/h (3 Bft) 96,00 %
02.07.2017 14:52 19,2 C 21,7 C 80 % 1016,0 hPa 0,0 l/m 7,3 km/h (2 Bft) S-SW 207 0 min 0,000 mm 5,1 UV-I 359 W/m 15,7 C 18,8 C 16,1 km/h (3 Bft) 100,00 %
02.07.2017 14:54 19,3 C 21,7 C 78 % 1016,1 hPa 0,0 l/m 9,8 km/h (2 Bft) W-SW 252 0 min 0,000 mm 2,8 UV-I 323 W/m 15,4 C 17,9 C 17,7 km/h (3 Bft) 100,00 %
02.07.2017 14:56 19,3 C 21,7 C 78 % 1016,1 hPa 0,0 l/m 11,5 km/h (2 Bft) W-SW 242 0 min 0,000 mm 2,6 UV-I 307 W/m 15,4 C 17,4 C 16,1 km/h (3 Bft) 90,00 %
02.07.2017 14:58 19,3 C 21,7 C 77 % 1016,0 hPa 0,0 l/m 10,9 km/h (2 Bft) W 263 0 min 0,000 mm 4,0 UV-I 410 W/m 15,2 C 17,6 C 17,7 km/h (3 Bft) 97,62 %
02.07.2017 15:00 19,4 C 21,7 C 77 % 1016,0 hPa 0,0 l/m 13,9 km/h (3 Bft) W-SW 247 0 min 0,279 mm 3,5 UV-I 431 W/m 15,3 C 16,8 C 22,5 km/h (4 Bft) 100,00 %
02.07.2017 15:02 19,6 C 21,7 C 75 % 1015,9 hPa 0,0 l/m 16,0 km/h (3 Bft) W-SW 246 0 min 0,000 mm 3,1 UV-I 344 W/m 15,0 C 16,5 C 25,7 km/h (4 Bft) 92,68 %
02.07.2017 15:04 19,4 C 21,7 C 78 % 1015,9 hPa 0,0 l/m 16,4 km/h (3 Bft) SW 233 0 min 0,000 mm 3,2 UV-I 397 W/m 15,5 C 16,2 C 24,1 km/h (4 Bft) 98,11 %
02.07.2017 15:06 19,3 C 21,7 C 78 % 1015,9 hPa 0,0 l/m 16,4 km/h (3 Bft) S-SW 202 2 min 0,000 mm 3,4 UV-I 468 W/m 15,4 C 16,1 C 25,7 km/h (4 Bft) 100,00 %
02.07.2017 15:08 19,3 C 21,7 C 79 % 1015,9 hPa 0,0 l/m 16,2 km/h (3 Bft) SW 216 2 min 0,000 mm 3,8 UV-I 514 W/m 15,6 C 16,1 C 22,5 km/h (4 Bft) 98,21 %
02.07.2017 15:10 19,3 C 21,7 C 79 % 1015,9 hPa 0,0 l/m 11,9 km/h (2 Bft) SW 221 0 min 0,000 mm 3,1 UV-I 423 W/m 15,6 C 17,3 C 17,7 km/h (3 Bft) 96,55 %
02.07.2017 15:12 19,2 C 21,7 C 80 % 1015,9 hPa 0,0 l/m 12,4 km/h (3 Bft) W-NW 282 0 min 0,000 mm 2,5 UV-I 231 W/m 15,7 C 17,0 C 19,3 km/h (3 Bft) 96,43 %
02.07.2017 15:14 19,3 C 21,7 C 80 % 1015,9 hPa 0,0 l/m 7,2 km/h (2 Bft) W 261 0 min 0,000 mm 3,2 UV-I 218 W/m 15,8 C 19,0 C 14,5 km/h (3 Bft) 100,00 %
02.07.2017 15:16 19,3 C 21,7 C 76 % 1015,9 hPa 0,0 l/m 14,4 km/h (3 Bft) W-NW 290 0 min 0,000 mm 2,2 UV-I 262 W/m 15,0 C 16,6 C 19,3 km/h (3 Bft) 97,37 %
02.07.2017 15:18 19,4 C 21,7 C 78 % 1015,9 hPa 0,0 l/m 10,4 km/h (2 Bft) SW 221 0 min 0,000 mm 2,6 UV-I 344 W/m 15,5 C 17,8 C 19,3 km/h (3 Bft) 94,34 %
02.07.2017 15:20 19,6 C 21,7 C 78 % 1015,9 hPa 0,0 l/m 13,8 km/h (3 Bft) SW 221 2 min 0,000 mm 3,9 UV-I 466 W/m 15,7 C 17,1 C 20,9 km/h (4 Bft) 92,45 %
02.07.2017 15:22 19,7 C 21,7 C 76 % 1015,9 hPa 0,0 l/m 16,9 km/h (3 Bft) W-SW 248 2 min 0,000 mm 3,6 UV-I 497 W/m 15,3 C 16,4 C 25,7 km/h (4 Bft) 94,74 %
02.07.2017 15:24 19,8 C 21,7 C 75 % 1015,9 hPa 0,0 l/m 12,5 km/h (3 Bft) W-SW 238 0 min 0,000 mm 2,7 UV-I 324 W/m 15,2 C 17,7 C 20,9 km/h (4 Bft) 89,36 %
02.07.2017 15:26 19,8 C 21,7 C 74 % 1015,9 hPa 0,0 l/m 15,7 km/h (3 Bft) SW 235 0 min 0,000 mm 1,8 UV-I 240 W/m 15,0 C 16,8 C 22,5 km/h (4 Bft) 97,87 %
02.07.2017 15:28 19,8 C 21,7 C 72 % 1015,9 hPa 0,0 l/m 15,2 km/h (3 Bft) W 261 0 min 0,000 mm 1,8 UV-I 267 W/m 14,6 C 17,0 C 20,9 km/h (4 Bft) 98,00 %
02.07.2017 15:30 19,8 C 21,7 C 71 % 1015,9 hPa 0,0 l/m 12,3 km/h (3 Bft) W-SW 255 2 min 0,000 mm 3,1 UV-I 492 W/m 14,4 C 17,7 C 20,9 km/h (4 Bft) 92,00 %
02.07.2017 15:32 20,1 C 21,7 C 71 % 1015,9 hPa 0,0 l/m 8,2 km/h (2 Bft) W-SW 256 2 min 0,000 mm 4,5 UV-I 947 W/m 14,7 C 19,4 C 20,9 km/h (4 Bft) 97,44 %
02.07.2017 15:34 20,4 C 21,7 C 70 % 1015,8 hPa 0,0 l/m 20,5 km/h (4 Bft) W 267 2 min 0,000 mm 4,6 UV-I 911 W/m 14,7 C 16,6 C 32,2 km/h (5 Bft) 98,08 %
02.07.2017 15:36 20,6 C 21,7 C 68 % 1015,8 hPa 0,0 l/m 20,0 km/h (4 Bft) W-SW 251 2 min 0,000 mm 4,8 UV-I 871 W/m 14,5 C 17,0 C 27,4 km/h (4 Bft) 93,62 %
02.07.2017 15:38 20,6 C 21,7 C 67 % 1015,8 hPa 0,2 l/m 18,5 km/h (3 Bft) W-SW 246 2 min 0,000 mm 4,7 UV-I 876 W/m 14,3 C 17,3 C 29,0 km/h (5 Bft) 88,68 %
02.07.2017 15:40 20,6 C 21,7 C 67 % 1015,8 hPa 0,0 l/m 14,2 km/h (3 Bft) SW 234 2 min 0,000 mm 3,0 UV-I 875 W/m 14,3 C 18,2 C 22,5 km/h (4 Bft) 94,87 %
02.07.2017 15:42 20,5 C 21,7 C 68 % 1015,8 hPa 0,0 l/m 20,0 km/h (4 Bft) W-SW 257 0 min 0,000 mm 2,7 UV-I 310 W/m 14,4 C 16,9 C 27,4 km/h (4 Bft) 95,12 %
02.07.2017 15:44 20,3 C 21,7 C 68 % 1015,9 hPa 0,0 l/m 15,7 km/h (3 Bft) W 264 0 min 0,000 mm 2,7 UV-I 281 W/m 14,2 C 17,5 C 22,5 km/h (4 Bft) 94,64 %
02.07.2017 15:46 20,2 C 21,7 C 70 % 1015,9 hPa 0,0 l/m 15,1 km/h (3 Bft) W-SW 246 0 min 0,000 mm 2,5 UV-I 256 W/m 14,5 C 17,5 C 24,1 km/h (4 Bft) 89,47 %
02.07.2017 15:48 20,0 C 21,7 C 70 % 1015,9 hPa 0,0 l/m 15,1 km/h (3 Bft) SW 232 0 min 0,000 mm 2,0 UV-I 188 W/m 14,4 C 17,2 C 22,5 km/h (4 Bft) 98,31 %
02.07.2017 15:50 19,8 C 21,7 C 70 % 1015,9 hPa 0,0 l/m 19,5 km/h (3 Bft) W-SW 244 0 min 0,000 mm 1,4 UV-I 144 W/m 14,2 C 16,0 C 30,6 km/h (5 Bft) 97,37 %
02.07.2017 15:52 19,7 C 21,7 C 71 % 1015,9 hPa 0,0 l/m 18,8 km/h (3 Bft) SW 236 0 min 0,000 mm 1,4 UV-I 178 W/m 14,3 C 16,1 C 25,7 km/h (4 Bft) 100,00 %
02.07.2017 15:54 19,5 C 21,7 C 72 % 1015,9 hPa 0,0 l/m 18,6 km/h (3 Bft) SW 225 0 min 0,000 mm 2,3 UV-I 248 W/m 14,3 C 15,8 C 27,4 km/h (4 Bft) 95,45 %
02.07.2017 15:56 19,5 C 21,7 C 73 % 1015,8 hPa 0,0 l/m 18,0 km/h (3 Bft) W-SW 240 2 min 0,000 mm 3,1 UV-I 464 W/m 14,5 C 16,0 C 25,7 km/h (4 Bft) 100,00 %
02.07.2017 15:58 19,7 C 21,7 C 73 % 1015,8 hPa 0,0 l/m 11,7 km/h (2 Bft) SW 236 2 min 0,000 mm 3,8 UV-I 489 W/m 14,7 C 17,8 C 19,3 km/h (3 Bft) 96,43 %
02.07.2017 16:00 20,0 C 21,7 C 74 % 1015,7 hPa 0,0 l/m 12,1 km/h (2 Bft) SW 222 2 min 0,331 mm 4,2 UV-I 489 W/m 15,2 C 18,0 C 16,1 km/h (3 Bft) 97,56 %
02.07.2017 16:02 20,2 C 21,7 C 72 % 1015,8 hPa 0,0 l/m 20,6 km/h (4 Bft) SW 221 2 min 0,000 mm 3,8 UV-I 785 W/m 15,0 C 16,4 C 30,6 km/h (5 Bft) 97,73 %
02.07.2017 16:04 20,3 C 21,7 C 73 % 1015,7 hPa 0,0 l/m 19,7 km/h (3 Bft) W-SW 238 2 min 0,000 mm 4,0 UV-I 789 W/m 15,3 C 16,6 C 29,0 km/h (5 Bft) 95,74 %
02.07.2017 16:06 20,4 C 21,7 C 74 % 1015,7 hPa 0,0 l/m 13,5 km/h (3 Bft) S-SW 213 2 min 0,000 mm 3,9 UV-I 737 W/m 15,6 C 18,1 C 19,3 km/h (3 Bft) 93,18 %
02.07.2017 16:08 20,5 C 21,7 C 72 % 1015,7 hPa 0,0 l/m 16,0 km/h (3 Bft) W-SW 238 2 min 0,000 mm 2,5 UV-I 460 W/m 15,3 C 17,6 C 25,7 km/h (4 Bft) 100,00 %
02.07.2017 16:10 20,3 C 21,7 C 72 % 1015,8 hPa 0,0 l/m 17,2 km/h (3 Bft) W-SW 258 0 min 0,000 mm 1,5 UV-I 133 W/m 15,1 C 17,1 C 24,1 km/h (4 Bft) 98,18 %
02.07.2017 16:12 20,1 C 21,7 C 72 % 1015,8 hPa 0,0 l/m 18,3 km/h (3 Bft) W 276 0 min 0,000 mm 1,2 UV-I 158 W/m 14,9 C 16,7 C 29,0 km/h (5 Bft) 90,57 %
02.07.2017 16:14 19,8 C 21,7 C 73 % 1015,8 hPa 0,0 l/m 14,6 km/h (3 Bft) W-SW 252 0 min 0,000 mm 1,2 UV-I 197 W/m 14,8 C 17,1 C 22,5 km/h (4 Bft) 92,59 %
02.07.2017 16:16 19,8 C 21,7 C 73 % 1015,8 hPa 0,0 l/m 15,8 km/h (3 Bft) W-SW 246 0 min 0,000 mm 1,6 UV-I 243 W/m 14,8 C 16,8 C 25,7 km/h (4 Bft) 92,54 %
02.07.2017 16:18 19,8 C 21,7 C 73 % 1015,7 hPa 0,0 l/m 16,5 km/h (3 Bft) W-SW 252 0 min 0,000 mm 2,2 UV-I 274 W/m 14,8 C 16,7 C 32,2 km/h (5 Bft) 94,87 %
02.07.2017 16:20 19,9 C 21,7 C 73 % 1015,7 hPa 0,0 l/m 16,2 km/h (3 Bft) W-SW 254 0 min 0,000 mm 2,8 UV-I 367 W/m 14,9 C 16,9 C 27,4 km/h (4 Bft) 95,74 %
02.07.2017 16:22 20,2 C 21,7 C 72 % 1015,7 hPa 0,0 l/m 12,6 km/h (3 Bft) W-SW 240 2 min 0,000 mm 2,9 UV-I 678 W/m 15,0 C 18,1 C 22,5 km/h (4 Bft) 100,00 %
02.07.2017 16:24 20,3 C 21,7 C 71 % 1015,6 hPa 0,0 l/m 15,3 km/h (3 Bft) SW 219 2 min 0,000 mm 2,8 UV-I 407 W/m 14,9 C 17,5 C 25,7 km/h (4 Bft) 96,00 %
02.07.2017 16:26 20,4 C 21,7 C 70 % 1015,7 hPa 0,0 l/m 20,1 km/h (4 Bft) W-SW 254 2 min 0,000 mm 2,7 UV-I 656 W/m 14,7 C 16,7 C 27,4 km/h (4 Bft) 98,11 %
02.07.2017 16:28 20,6 C 21,7 C 69 % 1015,7 hPa 0,0 l/m 16,8 km/h (3 Bft) W-SW 248 2 min 0,000 mm 2,7 UV-I 477 W/m 14,7 C 17,6 C 27,4 km/h (4 Bft) 94,74 %
02.07.2017 16:30 20,7 C 21,7 C 69 % 1015,7 hPa 0,0 l/m 14,0 km/h (3 Bft) W-SW 246 2 min 0,000 mm 2,3 UV-I 457 W/m 14,8 C 18,3 C 29,0 km/h (5 Bft) 100,00 %
02.07.2017 16:32 20,7 C 21,7 C 69 % 1015,7 hPa 0,0 l/m 12,9 km/h (3 Bft) W 271 2 min 0,000 mm 2,6 UV-I 457 W/m 14,8 C 18,6 C 24,1 km/h (4 Bft) 100,00 %
02.07.2017 16:34 20,8 C 21,7 C 69 % 1015,7 hPa 0,0 l/m 17,8 km/h (3 Bft) W-SW 248 2 min 0,000 mm 3,3 UV-I 700 W/m 14,9 C 17,6 C 29,0 km/h (5 Bft) 96,15 %
02.07.2017 16:36 20,9 C 21,7 C 67 % 1015,8 hPa 0,0 l/m 20,9 km/h (4 Bft) SW 225 2 min 0,000 mm 2,8 UV-I 798 W/m 14,5 C 17,2 C 29,0 km/h (5 Bft) 97,87 %
02.07.2017 16:38 20,9 C 21,7 C 67 % 1015,7 hPa 0,0 l/m 16,8 km/h (3 Bft) SW 234 2 min 0,000 mm 2,2 UV-I 485 W/m 14,5 C 18,0 C 25,7 km/h (4 Bft) 98,11 %
02.07.2017 16:40 20,7 C 21,7 C 67 % 1015,7 hPa 0,0 l/m 23,3 km/h (4 Bft) W-SW 250 0 min 0,000 mm 1,6 UV-I 183 W/m 14,3 C 16,6 C 32,2 km/h (5 Bft) 100,00 %
02.07.2017 16:42 20,5 C 21,7 C 67 % 1015,6 hPa 0,0 l/m 21,7 km/h (4 Bft) W-SW 254 0 min 0,000 mm 1,3 UV-I 191 W/m 14,2 C 16,6 C 27,4 km/h (4 Bft) 92,86 %
02.07.2017 16:44 20,3 C 21,7 C 68 % 1015,5 hPa 0,0 l/m 17,5 km/h (3 Bft) W 263 0 min 0,000 mm 1,4 UV-I 255 W/m 14,2 C 17,1 C 27,4 km/h (4 Bft) 97,56 %
02.07.2017 16:46 20,2 C 21,7 C 68 % 1015,5 hPa 0,0 l/m 14,4 km/h (3 Bft) W-SW 256 0 min 0,000 mm 1,5 UV-I 269 W/m 14,1 C 17,6 C 22,5 km/h (4 Bft) 95,12 %
02.07.2017 16:48 20,2 C 21,7 C 69 % 1015,5 hPa 0,0 l/m 14,2 km/h (3 Bft) W-SW 251 0 min 0,000 mm 1,5 UV-I 279 W/m 14,3 C 17,7 C 22,5 km/h (4 Bft) 96,43 %
02.07.2017 16:50 20,3 C 21,7 C 69 % 1015,6 hPa 0,0 l/m 14,2 km/h (3 Bft) S 190 0 min 0,000 mm 1,5 UV-I 287 W/m 14,4 C 17,8 C 32,2 km/h (5 Bft) 93,62 %
02.07.2017 16:52 20,4 C 21,7 C 69 % 1015,5 hPa 0,0 l/m 20,3 km/h (4 Bft) SW 236 2 min 0,000 mm 2,4 UV-I 733 W/m 14,5 C 16,7 C 37,0 km/h (5 Bft) 100,00 %
02.07.2017 16:54 20,7 C 21,7 C 68 % 1015,5 hPa 0,0 l/m 16,3 km/h (3 Bft) W 262 2 min 0,000 mm 2,5 UV-I 819 W/m 14,6 C 17,8 C 30,6 km/h (5 Bft) 97,73 %
02.07.2017 16:56 20,9 C 21,7 C 69 % 1015,5 hPa 0,0 l/m 11,5 km/h (2 Bft) W-SW 238 2 min 0,000 mm 1,9 UV-I 507 W/m 15,0 C 19,2 C 19,3 km/h (3 Bft) 97,62 %
02.07.2017 16:58 20,8 C 21,7 C 66 % 1015,4 hPa 0,0 l/m 19,2 km/h (3 Bft) W 277 0 min 0,000 mm 1,7 UV-I 286 W/m 14,2 C 17,4 C 33,8 km/h (5 Bft) 98,11 %
02.07.2017 17:00 20,8 C 21,7 C 67 % 1015,5 hPa 0,0 l/m 21,1 km/h (4 Bft) W-SW 242 2 min 0,000 mm 1,9 UV-I 335 W/m 14,4 C 17,1 C 30,6 km/h (5 Bft) 95,12 %
02.07.2017 17:02 20,9 C 21,7 C 68 % 1015,5 hPa 0,0 l/m 19,2 km/h (3 Bft) W-SW 241 2 min 0,330 mm 2,5 UV-I 621 W/m 14,8 C 17,5 C 35,4 km/h (5 Bft) 90,00 %
02.07.2017 17:04 20,9 C 21,7 C 67 % 1015,4 hPa 0,0 l/m 20,4 km/h (4 Bft) W 273 2 min 0,000 mm 1,8 UV-I 595 W/m 14,5 C 17,3 C 30,6 km/h (5 Bft) 96,00 %
02.07.2017 17:06 20,8 C 21,7 C 67 % 1015,5 hPa 0,0 l/m 16,9 km/h (3 Bft) W-SW 240 0 min 0,000 mm 1,7 UV-I 272 W/m 14,4 C 17,8 C 27,4 km/h (4 Bft) 100,00 %
02.07.2017 17:08 20,8 C 21,7 C 68 % 1015,5 hPa 0,0 l/m 20,1 km/h (4 Bft) W-SW 242 0 min 0,000 mm 2,1 UV-I 255 W/m 14,7 C 17,2 C 30,6 km/h (5 Bft) 100,00 %
02.07.2017 17:10 20,8 C 21,7 C 67 % 1015,5 hPa 0,0 l/m 21,4 km/h (4 Bft) W-SW 241 0 min 0,000 mm 2,0 UV-I 255 W/m 14,4 C 17,0 C 33,8 km/h (5 Bft) 100,00 %
02.07.2017 17:12 20,7 C 21,7 C 66 % 1015,6 hPa 0,0 l/m 18,2 km/h (3 Bft) SW 221 2 min 0,000 mm 2,2 UV-I 533 W/m 14,1 C 17,4 C 27,4 km/h (4 Bft) 94,00 %
02.07.2017 17:14 20,7 C 21,7 C 66 % 1015,5 hPa 0,0 l/m 22,4 km/h (4 Bft) S-SW 213 2 min 0,000 mm 1,6 UV-I 594 W/m 14,1 C 16,7 C 30,6 km/h (5 Bft) 97,56 %
02.07.2017 17:16 20,6 C 21,7 C 67 % 1015,5 hPa 0,0 l/m 17,8 km/h (3 Bft) W 259 0 min 0,000 mm 1,2 UV-I 148 W/m 14,3 C 17,4 C 32,2 km/h (5 Bft) 94,64 %
02.07.2017 17:18 20,4 C 21,7 C 67 % 1015,5 hPa 0,0 l/m 16,8 km/h (3 Bft) SW 224 0 min 0,000 mm 1,1 UV-I 168 W/m 14,1 C 17,3 C 25,7 km/h (4 Bft) 92,31 %
02.07.2017 17:20 20,3 C 21,7 C 68 % 1015,4 hPa 0,0 l/m 19,8 km/h (3 Bft) W-SW 252 0 min 0,000 mm 1,3 UV-I 218 W/m 14,2 C 16,6 C 32,2 km/h (5 Bft) 96,61 %
02.07.2017 17:22 20,2 C 21,7 C 69 % 1015,5 hPa 0,0 l/m 20,3 km/h (4 Bft) SW 234 0 min 0,000 mm 1,6 UV-I 238 W/m 14,3 C 16,4 C 29,0 km/h (5 Bft) 93,22 %
02.07.2017 17:24 20,3 C 21,7 C 70 % 1015,6 hPa 0,0 l/m 24,0 km/h (4 Bft) SW 234 2 min 0,000 mm 2,1 UV-I 619 W/m 14,6 C 15,9 C 38,6 km/h (5 Bft) 95,45 %
02.07.2017 17:26 20,5 C 21,7 C 68 % 1015,6 hPa 0,0 l/m 20,5 km/h (4 Bft) W-SW 258 2 min 0,000 mm 1,8 UV-I 567 W/m 14,4 C 16,8 C 30,6 km/h (5 Bft) 92,68 %
02.07.2017 17:28 20,6 C 21,7 C 68 % 1015,6 hPa 0,0 l/m 24,9 km/h (4 Bft) W 263 2 min 0,000 mm 1,4 UV-I 397 W/m 14,5 C 16,2 C 35,4 km/h (5 Bft) 92,86 %
02.07.2017 17:30 20,5 C 21,7 C 68 % 1015,7 hPa 0,0 l/m 19,3 km/h (3 Bft) W-SW 248 0 min 0,000 mm 1,3 UV-I 291 W/m 14,4 C 17,0 C 29,0 km/h (5 Bft) 89,47 %
02.07.2017 17:33 20,3 C 21,7 C 69 % 1015,7 hPa 0,0 l/m 14,9 km/h (3 Bft) W-SW 250 3 min 0,000 mm 1,5 UV-I 308 W/m 14,4 C 17,6 C 22,5 km/h (4 Bft) 93,51 %
02.07.2017 17:34 20,3 C 21,7 C 70 % 1015,7 hPa 0,0 l/m 9,2 km/h (2 Bft) SW 227 1 min 0,000 mm 1,8 UV-I 559 W/m 14,6 C 19,2 C 14,5 km/h (3 Bft) 91,30 %
02.07.2017 17:36 20,4 C 21,7 C 69 % 1015,7 hPa 0,0 l/m 20,2 km/h (4 Bft) W 271 2 min 0,000 mm 1,6 UV-I 613 W/m 14,5 C 16,7 C 32,2 km/h (5 Bft) 96,00 %
02.07.2017 17:38 20,3 C 21,7 C 68 % 1015,7 hPa 0,0 l/m 19,3 km/h (3 Bft) SW 232 2 min 0,000 mm 1,4 UV-I 392 W/m 14,2 C 16,7 C 30,6 km/h (5 Bft) 88,89 %
02.07.2017 17:40 20,3 C 21,7 C 69 % 1015,7 hPa 0,0 l/m 14,3 km/h (3 Bft) SW 219 0 min 0,000 mm 1,3 UV-I 236 W/m 14,4 C 17,8 C 24,1 km/h (4 Bft) 92,00 %
02.07.2017 17:42 20,2 C 21,7 C 69 % 1015,7 hPa 0,0 l/m 20,7 km/h (4 Bft) SW 236 0 min 0,000 mm 1,2 UV-I 220 W/m 14,3 C 16,3 C 33,8 km/h (5 Bft) 92,45 %
02.07.2017 17:44 20,1 C 21,7 C 69 % 1015,6 hPa 0,0 l/m 20,3 km/h (4 Bft) W-SW 238 0 min 0,000 mm 1,0 UV-I 186 W/m 14,2 C 16,3 C 30,6 km/h (5 Bft) 91,49 %
02.07.2017 17:46 20,0 C 21,7 C 69 % 1015,7 hPa 0,0 l/m 21,5 km/h (4 Bft) W-SW 248 0 min 0,000 mm 0,7 UV-I 143 W/m 14,1 C 15,9 C 27,4 km/h (4 Bft) 95,12 %
02.07.2017 17:48 19,9 C 21,7 C 70 % 1015,7 hPa 0,0 l/m 20,2 km/h (4 Bft) SW 236 0 min 0,000 mm 0,7 UV-I 154 W/m 14,3 C 16,0 C 30,6 km/h (5 Bft) 96,00 %
02.07.2017 17:50 19,8 C 21,7 C 70 % 1015,7 hPa 0,0 l/m 20,3 km/h (4 Bft) W-SW 252 0 min 0,000 mm 0,9 UV-I 157 W/m 14,2 C 15,9 C 33,8 km/h (5 Bft) 93,18 %
02.07.2017 17:52 19,7 C 21,7 C 71 % 1015,7 hPa 0,0 l/m 19,4 km/h (3 Bft) W-SW 239 0 min 0,000 mm 0,8 UV-I 132 W/m 14,3 C 15,9 C 30,6 km/h (5 Bft) 98,11 %
02.07.2017 17:54 19,7 C 21,7 C 72 % 1015,8 hPa 0,0 l/m 13,1 km/h (3 Bft) SW 225 0 min 0,000 mm 0,7 UV-I 132 W/m 14,5 C 17,4 C 19,3 km/h (3 Bft) 87,23 %
02.07.2017 17:56 19,6 C 21,7 C 72 % 1015,6 hPa 0,0 l/m 15,9 km/h (3 Bft) W-SW 254 0 min 0,000 mm 0,6 UV-I 113 W/m 14,4 C 16,6 C 20,9 km/h (4 Bft) 94,74 %
02.07.2017 17:58 19,6 C 21,7 C 72 % 1015,6 hPa 0,0 l/m 12,7 km/h (3 Bft) W-SW 244 0 min 0,000 mm 0,6 UV-I 117 W/m 14,4 C 17,4 C 19,3 km/h (3 Bft) 94,64 %
02.07.2017 18:00 19,6 C 21,7 C 73 % 1015,7 hPa 0,0 l/m 15,5 km/h (3 Bft) SW 236 0 min 0,254 mm 0,6 UV-I 130 W/m 14,6 C 16,6 C 24,1 km/h (4 Bft) 97,37 %
02.07.2017 18:02 19,6 C 21,7 C 72 % 1015,7 hPa 0,0 l/m 18,7 km/h (3 Bft) W-SW 257 0 min 0,000 mm 0,6 UV-I 132 W/m 14,4 C 15,9 C 27,4 km/h (4 Bft) 96,00 %
02.07.2017 18:04 19,5 C 21,7 C 72 % 1015,8 hPa 0,0 l/m 19,0 km/h (3 Bft) W-SW 246 0 min 0,000 mm 0,1 UV-I 82 W/m 14,3 C 15,8 C 27,4 km/h (4 Bft) 97,73 %
02.07.2017 18:06 19,4 C 21,7 C 72 % 1015,9 hPa 0,0 l/m 18,8 km/h (3 Bft) W-SW 253 0 min 0,000 mm 0,0 UV-I 36 W/m 14,2 C 15,7 C 27,4 km/h (4 Bft) 96,23 %
02.07.2017 18:08 19,4 C 21,7 C 73 % 1016,0 hPa 0,0 l/m 13,3 km/h (3 Bft) W-SW 248 0 min 0,000 mm 0,0 UV-I 33 W/m 14,4 C 17,0 C 19,3 km/h (3 Bft) 94,74 %
02.07.2017 18:10 19,3 C 21,7 C 73 % 1016,2 hPa 0,0 l/m 22,7 km/h (4 Bft) W 259 0 min 0,000 mm 0,0 UV-I 73 W/m 14,3 C 14,8 C 32,2 km/h (5 Bft) 94,34 %
02.07.2017 18:12 19,1 C 21,7 C 73 % 1016,1 hPa 0,0 l/m 22,5 km/h (4 Bft) W 261 0 min 0,000 mm 0,0 UV-I 98 W/m 14,1 C 14,6 C 41,8 km/h (6 Bft) 96,00 %
02.07.2017 18:14 18,8 C 21,7 C 75 % 1016,2 hPa 0,0 l/m 20,1 km/h (4 Bft) SW 215 0 min 0,000 mm 0,0 UV-I 104 W/m 14,3 C 14,6 C 35,4 km/h (5 Bft) 95,74 %
02.07.2017 18:16 18,6 C 21,7 C 76 % 1016,1 hPa 0,0 l/m 20,5 km/h (4 Bft) W-SW 251 0 min 0,000 mm 0,0 UV-I 105 W/m 14,3 C 14,3 C 30,6 km/h (5 Bft) 97,22 %
02.07.2017 18:18 18,2 C 21,7 C 78 % 1016,2 hPa 0,0 l/m 19,4 km/h (3 Bft) W 261 0 min 0,000 mm 0,0 UV-I 104 W/m 14,3 C 14,0 C 24,1 km/h (4 Bft) 94,92 %
02.07.2017 18:20 18,0 C 21,7 C 79 % 1016,2 hPa 0,0 l/m 20,8 km/h (4 Bft) W-SW 242 0 min 0,000 mm 0,0 UV-I 101 W/m 14,3 C 13,5 C 29,0 km/h (5 Bft) 95,12 %
02.07.2017 18:22 17,9 C 21,7 C 79 % 1016,3 hPa 0,0 l/m 21,7 km/h (4 Bft) SW 236 0 min 0,000 mm 0,0 UV-I 98 W/m 14,2 C 13,1 C 30,6 km/h (5 Bft) 96,23 %
02.07.2017 18:24 17,8 C 21,7 C 80 % 1016,3 hPa 0,0 l/m 19,0 km/h (3 Bft) SW 223 0 min 0,000 mm 0,0 UV-I 100 W/m 14,3 C 13,6 C 29,0 km/h (5 Bft) 95,12 %
02.07.2017 18:26 17,7 C 21,7 C 80 % 1016,3 hPa 0,0 l/m 18,9 km/h (3 Bft) W 279 0 min 0,000 mm 0,0 UV-I 103 W/m 14,2 C 13,5 C 35,4 km/h (5 Bft) 96,23 %
02.07.2017 18:28 17,6 C 21,7 C 80 % 1016,4 hPa 0,0 l/m 19,1 km/h (3 Bft) SW 234 0 min 0,000 mm 0,0 UV-I 104 W/m 14,1 C 13,3 C 25,7 km/h (4 Bft) 97,56 %
02.07.2017 18:30 17,5 C 21,7 C 80 % 1016,5 hPa 0,0 l/m 22,0 km/h (4 Bft) W-SW 244 0 min 0,000 mm 0,0 UV-I 106 W/m 14,0 C 12,6 C 35,4 km/h (5 Bft) 96,23 %
02.07.2017 18:32 17,4 C 21,7 C 81 % 1016,5 hPa 0,0 l/m 19,0 km/h (3 Bft) W-SW 254 0 min 0,000 mm 0,0 UV-I 109 W/m 14,1 C 13,1 C 29,0 km/h (5 Bft) 97,37 %
02.07.2017 18:34 17,4 C 21,7 C 81 % 1016,4 hPa 0,0 l/m 14,2 km/h (3 Bft) W-SW 241 0 min 0,000 mm 0,0 UV-I 109 W/m 14,1 C 14,3 C 22,5 km/h (4 Bft) 100,00 %
02.07.2017 18:36 17,4 C 21,7 C 81 % 1016,3 hPa 0,0 l/m 17,3 km/h (3 Bft) W-SW 243 0 min 0,000 mm 0,0 UV-I 106 W/m 14,1 C 13,5 C 27,4 km/h (4 Bft) 100,00 %
02.07.2017 18:38 17,3 C 21,7 C 82 % 1016,4 hPa 0,0 l/m 15,6 km/h (3 Bft) SW 232 0 min 0,000 mm 0,0 UV-I 102 W/m 14,2 C 13,8 C 22,5 km/h (4 Bft) 97,56 %
02.07.2017 18:40 17,3 C 21,7 C 82 % 1016,4 hPa 0,0 l/m 12,3 km/h (3 Bft) SW 235 0 min 0,000 mm 0,0 UV-I 104 W/m 14,2 C 14,8 C 19,3 km/h (3 Bft) 97,56 %
02.07.2017 18:42 17,3 C 21,7 C 82 % 1016,4 hPa 0,0 l/m 19,5 km/h (3 Bft) W-SW 246 0 min 0,000 mm 0,0 UV-I 109 W/m 14,2 C 12,8 C 27,4 km/h (4 Bft) 94,64 %
02.07.2017 18:44 17,3 C 21,7 C 82 % 1016,5 hPa 0,0 l/m 13,6 km/h (3 Bft) W-SW 252 0 min 0,000 mm 0,0 UV-I 117 W/m 14,2 C 14,4 C 20,9 km/h (4 Bft) 94,00 %
02.07.2017 18:46 17,3 C 21,7 C 82 % 1016,4 hPa 0,0 l/m 15,2 km/h (3 Bft) W-SW 253 0 min 0,000 mm 0,0 UV-I 126 W/m 14,2 C 13,9 C 24,1 km/h (4 Bft) 97,87 %
02.07.2017 18:48 17,3 C 21,7 C 82 % 1016,5 hPa 0,0 l/m 12,9 km/h (3 Bft) W-SW 246 0 min 0,000 mm 0,0 UV-I 133 W/m 14,2 C 14,6 C 22,5 km/h (4 Bft) 97,22 %
02.07.2017 18:50 17,3 C 21,7 C 82 % 1016,5 hPa 0,0 l/m 17,4 km/h (3 Bft) W-SW 244 0 min 0,000 mm 0,0 UV-I 134 W/m 14,2 C 13,3 C 24,1 km/h (4 Bft) 100,00 %
02.07.2017 18:52 17,3 C 21,7 C 82 % 1016,5 hPa 0,0 l/m 14,3 km/h (3 Bft) W-SW 238 0 min 0,000 mm 0,0 UV-I 126 W/m 14,2 C 14,2 C 22,5 km/h (4 Bft) 95,24 %
02.07.2017 18:54 17,3 C 21,7 C 82 % 1016,6 hPa 0,0 l/m 13,6 km/h (3 Bft) SW 229 0 min 0,000 mm 0,0 UV-I 121 W/m 14,2 C 14,4 C 19,3 km/h (3 Bft) 98,08 %
02.07.2017 18:56 17,3 C 21,7 C 82 % 1016,5 hPa 0,0 l/m 14,6 km/h (3 Bft) SW 232 0 min 0,000 mm 0,0 UV-I 121 W/m 14,2 C 14,1 C 22,5 km/h (4 Bft) 97,44 %
02.07.2017 18:58 17,3 C 21,7 C 82 % 1016,6 hPa 0,0 l/m 17,1 km/h (3 Bft) SW 215 0 min 0,000 mm 0,0 UV-I 112 W/m 14,2 C 13,4 C 27,4 km/h (4 Bft) 100,00 %
02.07.2017 19:00 17,3 C 21,7 C 82 % 1016,6 hPa 0,0 l/m 13,6 km/h (3 Bft) W-SW 248 0 min 0,000 mm 0,0 UV-I 95 W/m 14,2 C 14,4 C 22,5 km/h (4 Bft) 98,00 %
02.07.2017 19:02 17,3 C 21,7 C 82 % 1016,5 hPa 0,0 l/m 16,2 km/h (3 Bft) W-SW 238 0 min 0,101 mm 0,0 UV-I 82 W/m 14,2 C 13,6 C 25,7 km/h (4 Bft) 100,00 %
02.07.2017 19:04 17,3 C 21,7 C 82 % 1016,7 hPa 0,0 l/m 15,2 km/h (3 Bft) W-SW 241 0 min 0,000 mm 0,0 UV-I 73 W/m 14,2 C 13,9 C 19,3 km/h (3 Bft) 98,11 %
02.07.2017 19:06 17,3 C 21,7 C 81 % 1016,6 hPa 0,0 l/m 14,2 km/h (3 Bft) W 259 0 min 0,000 mm 0,0 UV-I 69 W/m 14,0 C 14,2 C 19,3 km/h (3 Bft) 97,56 %
02.07.2017 19:08 17,2 C 21,7 C 82 % 1016,6 hPa 0,0 l/m 13,2 km/h (3 Bft) W-SW 237 0 min 0,000 mm 0,0 UV-I 68 W/m 14,1 C 14,4 C 22,5 km/h (4 Bft) 96,23 %
02.07.2017 19:10 17,2 C 21,7 C 82 % 1016,7 hPa 0,0 l/m 14,3 km/h (3 Bft) SW 232 0 min 0,000 mm 0,0 UV-I 72 W/m 14,1 C 14,1 C 19,3 km/h (3 Bft) 100,00 %
02.07.2017 19:12 17,2 C 21,7 C 82 % 1016,6 hPa 0,0 l/m 12,5 km/h (3 Bft) W-SW 255 0 min 0,000 mm 0,0 UV-I 74 W/m 14,1 C 14,6 C 19,3 km/h (3 Bft) 98,46 %
02.07.2017 19:14 17,2 C 21,7 C 82 % 1016,7 hPa 0,0 l/m 15,2 km/h (3 Bft) W-SW 252 0 min 0,000 mm 0,0 UV-I 72 W/m 14,1 C 13,8 C 22,5 km/h (4 Bft) 100,00 %
02.07.2017 19:16 17,1 C 21,7 C 82 % 1016,7 hPa 0,0 l/m 12,8 km/h (3 Bft) W 259 0 min 0,000 mm 0,0 UV-I 67 W/m 14,0 C 14,4 C 17,7 km/h (3 Bft) 92,68 %
02.07.2017 19:18 17,1 C 21,7 C 82 % 1016,7 hPa 0,0 l/m 12,4 km/h (3 Bft) W-SW 242 0 min 0,000 mm 0,0 UV-I 57 W/m 14,0 C 14,6 C 22,5 km/h (4 Bft) 98,21 %
02.07.2017 19:20 17,1 C 21,7 C 82 % 1016,7 hPa 0,0 l/m 13,1 km/h (3 Bft) W-SW 246 0 min 0,000 mm 0,0 UV-I 47 W/m 14,0 C 14,3 C 22,5 km/h (4 Bft) 97,14 %
02.07.2017 19:22 17,1 C 21,7 C 83 % 1016,7 hPa 0,0 l/m 10,7 km/h (2 Bft) SW 233 0 min 0,000 mm 0,0 UV-I 44 W/m 14,2 C 15,2 C 14,5 km/h (3 Bft) 98,21 %
02.07.2017 19:24 17,1 C 21,7 C 83 % 1016,8 hPa 0,0 l/m 10,4 km/h (2 Bft) SW 235 0 min 0,000 mm 0,0 UV-I 40 W/m 14,2 C 15,3 C 16,1 km/h (3 Bft) 96,23 %
02.07.2017 19:26 17,1 C 21,7 C 83 % 1016,7 hPa 0,0 l/m 11,3 km/h (2 Bft) W-SW 244 0 min 0,000 mm 0,0 UV-I 36 W/m 14,2 C 14,9 C 14,5 km/h (3 Bft) 95,12 %
02.07.2017 19:28 17,1 C 21,7 C 84 % 1016,8 hPa 0,0 l/m 10,8 km/h (2 Bft) W-SW 246 0 min 0,000 mm 0,0 UV-I 31 W/m 14,4 C 15,1 C 16,1 km/h (3 Bft) 96,00 %
02.07.2017 19:30 17,1 C 21,7 C 85 % 1016,8 hPa 0,0 l/m 11,0 km/h (2 Bft) SW 236 0 min 0,000 mm 0,0 UV-I 26 W/m 14,6 C 15,1 C 17,7 km/h (3 Bft) 97,62 %
02.07.2017 19:32 17,1 C 21,7 C 85 % 1016,8 hPa 0,0 l/m 10,5 km/h (2 Bft) SW 216 0 min 0,000 mm 0,0 UV-I 25 W/m 14,6 C 15,2 C 19,3 km/h (3 Bft) 95,45 %
02.07.2017 19:34 17,0 C 21,7 C 86 % 1016,9 hPa 0,0 l/m 10,7 km/h (2 Bft) SW 224 0 min 0,000 mm 0,0 UV-I 25 W/m 14,6 C 15,1 C 14,5 km/h (3 Bft) 96,43 %
02.07.2017 19:36 17,0 C 21,7 C 86 % 1016,9 hPa 0,0 l/m 9,2 km/h (2 Bft) SW 229 0 min 0,000 mm 0,0 UV-I 26 W/m 14,6 C 15,7 C 12,9 km/h (3 Bft) 95,12 %
02.07.2017 19:38 16,9 C 21,7 C 87 % 1016,9 hPa 0,0 l/m 10,6 km/h (2 Bft) W-SW 255 0 min 0,000 mm 0,0 UV-I 26 W/m 14,7 C 15,0 C 16,1 km/h (3 Bft) 96,00 %
02.07.2017 19:40 16,9 C 21,7 C 87 % 1016,9 hPa 0,0 l/m 9,9 km/h (2 Bft) S-SW 197 0 min 0,000 mm 0,0 UV-I 26 W/m 14,7 C 15,3 C 14,5 km/h (3 Bft) 96,00 %
02.07.2017 19:42 16,9 C 21,7 C 88 % 1016,9 hPa 0,0 l/m 9,5 km/h (2 Bft) SW 232 0 min 0,000 mm 0,0 UV-I 24 W/m 14,9 C 15,4 C 16,1 km/h (3 Bft) 94,74 %
02.07.2017 19:44 16,8 C 21,7 C 88 % 1016,9 hPa 0,0 l/m 8,3 km/h (2 Bft) W-SW 253 0 min 0,000 mm 0,0 UV-I 23 W/m 14,8 C 15,8 C 12,9 km/h (3 Bft) 97,87 %
02.07.2017 19:46 16,8 C 21,7 C 88 % 1016,9 hPa 0,0 l/m 11,6 km/h (2 Bft) SW 234 0 min 0,000 mm 0,0 UV-I 23 W/m 14,8 C 14,5 C 19,3 km/h (3 Bft) 97,87 %
02.07.2017 19:48 16,8 C 21,7 C 88 % 1016,9 hPa 0,0 l/m 11,9 km/h (2 Bft) W-SW 238 0 min 0,000 mm 0,0 UV-I 24 W/m 14,8 C 14,4 C 17,7 km/h (3 Bft) 100,00 %
02.07.2017 19:50 16,8 C 21,7 C 88 % 1016,8 hPa 0,0 l/m 12,8 km/h (3 Bft) W-SW 246 0 min 0,000 mm 0,0 UV-I 25 W/m 14,8 C 14,1 C 19,3 km/h (3 Bft) 98,11 %
02.07.2017 19:52 16,8 C 21,7 C 89 % 1016,8 hPa 0,0 l/m 12,2 km/h (2 Bft) SW 228 0 min 0,000 mm 0,0 UV-I 25 W/m 15,0 C 14,3 C 17,7 km/h (3 Bft) 96,23 %
02.07.2017 19:54 16,7 C 21,7 C 89 % 1016,8 hPa 0,0 l/m 13,2 km/h (3 Bft) W-SW 242 0 min 0,000 mm 0,0 UV-I 24 W/m 14,9 C 13,8 C 19,3 km/h (3 Bft) 97,37 %
02.07.2017 19:56 16,7 C 21,7 C 89 % 1016,9 hPa 0,0 l/m 11,4 km/h (2 Bft) W-SW 246 0 min 0,000 mm 0,0 UV-I 25 W/m 14,9 C 14,4 C 20,9 km/h (4 Bft) 100,00 %
02.07.2017 19:58 16,7 C 21,7 C 89 % 1016,9 hPa 0,0 l/m 14,3 km/h (3 Bft) W-SW 246 0 min 0,000 mm 0,0 UV-I 26 W/m 14,9 C 13,5 C 20,9 km/h (4 Bft) 100,00 %
02.07.2017 20:00 16,7 C 21,7 C 89 % 1016,9 hPa 0,0 l/m 10,5 km/h (2 Bft) S 186 0 min 0,000 mm 0,0 UV-I 26 W/m 14,9 C 14,8 C 17,7 km/h (3 Bft) 100,00 %
02.07.2017 20:02 16,7 C 21,7 C 89 % 1016,9 hPa 0,0 l/m 11,8 km/h (2 Bft) SW 236 0 min 0,051 mm 0,0 UV-I 25 W/m 14,9 C 14,3 C 16,1 km/h (3 Bft) 98,11 %
02.07.2017 20:04 16,6 C 21,7 C 89 % 1016,9 hPa 0,0 l/m 10,6 km/h (2 Bft) SW 225 0 min 0,000 mm 0,0 UV-I 22 W/m 14,8 C 14,6 C 16,1 km/h (3 Bft) 100,00 %
02.07.2017 20:06 16,6 C 21,7 C 89 % 1016,9 hPa 0,0 l/m 12,8 km/h (3 Bft) SW 231 0 min 0,000 mm 0,0 UV-I 19 W/m 14,8 C 13,8 C 19,3 km/h (3 Bft) 100,00 %
02.07.2017 20:08 16,6 C 21,7 C 89 % 1016,9 hPa 0,0 l/m 13,5 km/h (3 Bft) W-SW 243 0 min 0,000 mm 0,0 UV-I 18 W/m 14,8 C 13,6 C 20,9 km/h (4 Bft) 97,56 %
02.07.2017 20:10 16,6 C 21,7 C 90 % 1017,0 hPa 0,0 l/m 11,8 km/h (2 Bft) SW 221 0 min 0,000 mm 0,0 UV-I 17 W/m 15,0 C 14,2 C 19,3 km/h (3 Bft) 100,00 %
02.07.2017 20:12 16,6 C 21,7 C 90 % 1017,0 hPa 0,0 l/m 9,8 km/h (2 Bft) W-SW 248 0 min 0,000 mm 0,0 UV-I 16 W/m 15,0 C 15,0 C 16,1 km/h (3 Bft) 96,15 %
02.07.2017 20:14 16,6 C 21,7 C 90 % 1017,0 hPa 0,0 l/m 12,1 km/h (2 Bft) SW 221 0 min 0,000 mm 0,0 UV-I 17 W/m 15,0 C 14,1 C 16,1 km/h (3 Bft) 97,44 %
02.07.2017 20:16 16,5 C 21,7 C 89 % 1017,0 hPa 0,0 l/m 12,1 km/h (2 Bft) S-SW 207 0 min 0,000 mm 0,0 UV-I 22 W/m 14,7 C 14,0 C 19,3 km/h (3 Bft) 98,21 %
02.07.2017 20:18 16,6 C 21,7 C 90 % 1017,1 hPa 0,0 l/m 13,4 km/h (3 Bft) W-SW 242 0 min 0,000 mm 0,0 UV-I 36 W/m 15,0 C 13,6 C 22,5 km/h (4 Bft) 100,00 %
02.07.2017 20:20 16,6 C 21,7 C 90 % 1017,0 hPa 0,0 l/m 12,0 km/h (2 Bft) SW 234 0 min 0,000 mm 0,0 UV-I 39 W/m 15,0 C 14,1 C 17,7 km/h (3 Bft) 98,11 %
02.07.2017 20:22 16,6 C 21,7 C 90 % 1017,1 hPa 0,0 l/m 11,6 km/h (2 Bft) SW 220 0 min 0,000 mm 0,0 UV-I 39 W/m 15,0 C 14,3 C 17,7 km/h (3 Bft) 96,43 %
02.07.2017 20:24 16,6 C 21,7 C 89 % 1017,1 hPa 0,0 l/m 13,1 km/h (3 Bft) S-SW 209 0 min 0,000 mm 0,0 UV-I 37 W/m 14,8 C 13,7 C 20,9 km/h (4 Bft) 100,00 %
02.07.2017 20:26 16,6 C 21,7 C 89 % 1017,1 hPa 0,0 l/m 12,3 km/h (3 Bft) W-SW 242 0 min 0,000 mm 0,0 UV-I 32 W/m 14,8 C 14,0 C 17,7 km/h (3 Bft) 97,87 %
02.07.2017 20:28 16,6 C 21,7 C 89 % 1017,1 hPa 0,0 l/m 12,5 km/h (3 Bft) W-SW 240 0 min 0,000 mm 0,0 UV-I 23 W/m 14,8 C 13,9 C 20,9 km/h (4 Bft) 98,11 %
02.07.2017 20:30 16,6 C 21,7 C 89 % 1017,1 hPa 0,0 l/m 10,8 km/h (2 Bft) SW 218 0 min 0,000 mm 0,0 UV-I 25 W/m 14,8 C 14,6 C 14,5 km/h (3 Bft) 100,00 %
02.07.2017 20:32 16,6 C 21,7 C 89 % 1017,1 hPa 0,0 l/m 9,2 km/h (2 Bft) S-SW 198 0 min 0,000 mm 0,0 UV-I 27 W/m 14,8 C 15,2 C 12,9 km/h (3 Bft) 97,56 %
02.07.2017 20:34 16,6 C 21,7 C 89 % 1017,2 hPa 0,0 l/m 10,3 km/h (2 Bft) SW 229 0 min 0,000 mm 0,0 UV-I 26 W/m 14,8 C 14,8 C 16,1 km/h (3 Bft) 100,00 %
02.07.2017 20:36 16,6 C 21,7 C 89 % 1017,2 hPa 0,0 l/m 7,2 km/h (2 Bft) S 178 0 min 0,000 mm 0,0 UV-I 24 W/m 14,8 C 16,2 C 14,5 km/h (3 Bft) 97,56 %
02.07.2017 20:38 16,6 C 21,7 C 89 % 1017,2 hPa 0,0 l/m 7,3 km/h (2 Bft) S-SW 204 0 min 0,000 mm 0,0 UV-I 19 W/m 14,8 C 16,1 C 11,3 km/h (2 Bft) 98,11 %
02.07.2017 20:40 16,6 C 21,7 C 89 % 1017,3 hPa 0,0 l/m 6,3 km/h (2 Bft) W-SW 242 0 min 0,000 mm 0,0 UV-I 18 W/m 14,8 C 16,6 C 14,5 km/h (3 Bft) 97,87 %
02.07.2017 20:43 16,6 C 21,7 C 89 % 1017,3 hPa 0,0 l/m 7,0 km/h (2 Bft) SW 231 0 min 0,000 mm 0,0 UV-I 15 W/m 14,8 C 16,3 C 12,9 km/h (3 Bft) 95,59 %
02.07.2017 20:44 16,6 C 21,7 C 89 % 1017,3 hPa 0,0 l/m 4,1 km/h (1 Bft) SW 236 0 min 0,000 mm 0,0 UV-I 14 W/m 14,8 C 16,6 C 4,8 km/h (1 Bft) 93,33 %
02.07.2017 20:46 16,6 C 21,7 C 89 % 1017,4 hPa 0,0 l/m 8,6 km/h (2 Bft) SW 223 0 min 0,000 mm 0,0 UV-I 12 W/m 14,8 C 15,5 C 16,1 km/h (3 Bft) 100,00 %
02.07.2017 20:48 16,6 C 21,7 C 90 % 1017,4 hPa 0,0 l/m 9,4 km/h (2 Bft) SW 220 0 min 0,000 mm 0,0 UV-I 11 W/m 15,0 C 15,1 C 16,1 km/h (3 Bft) 100,00 %
02.07.2017 20:50 16,5 C 21,7 C 90 % 1017,4 hPa 0,0 l/m 8,7 km/h (2 Bft) SW 234 0 min 0,000 mm 0,0 UV-I 11 W/m 14,9 C 15,3 C 12,9 km/h (3 Bft) 100,00 %
02.07.2017 20:52 16,5 C 21,7 C 90 % 1017,4 hPa 0,0 l/m 8,1 km/h (2 Bft) W-SW 244 0 min 0,000 mm 0,0 UV-I 11 W/m 14,9 C 15,6 C 11,3 km/h (2 Bft) 100,00 %
02.07.2017 20:54 16,4 C 21,7 C 90 % 1017,4 hPa 0,0 l/m 6,2 km/h (2 Bft) W-SW 244 2 min 0,000 mm 0,0 UV-I 11 W/m 14,8 C 16,4 C 11,3 km/h (2 Bft) 96,43 %
02.07.2017 20:56 16,4 C 21,7 C 90 % 1017,4 hPa 0,0 l/m 8,4 km/h (2 Bft) W-SW 241 0 min 0,000 mm 0,0 UV-I 11 W/m 14,8 C 15,4 C 12,9 km/h (3 Bft) 100,00 %
02.07.2017 20:58 16,4 C 21,7 C 90 % 1017,4 hPa 0,0 l/m 8,7 km/h (2 Bft) S-SW 201 0 min 0,000 mm 0,0 UV-I 10 W/m 14,8 C 15,2 C 12,9 km/h (3 Bft) 95,74 %
02.07.2017 21:00 16,4 C 21,7 C 90 % 1017,5 hPa 0,0 l/m 7,9 km/h (2 Bft) W 260 0 min 0,026 mm 0,0 UV-I 9 W/m 14,8 C 15,6 C 11,3 km/h (2 Bft) 100,00 %
02.07.2017 21:02 16,3 C 21,7 C 90 % 1017,5 hPa 0,0 l/m 8,3 km/h (2 Bft) SW 232 0 min 0,000 mm 0,0 UV-I 9 W/m 14,7 C 15,3 C 12,9 km/h (3 Bft) 98,00 %
02.07.2017 21:04 16,3 C 21,7 C 90 % 1017,5 hPa 0,0 l/m 8,0 km/h (2 Bft) SW 225 0 min 0,000 mm 0,0 UV-I 8 W/m 14,7 C 15,5 C 9,7 km/h (2 Bft) 100,00 %
02.07.2017 21:06 16,3 C 21,7 C 90 % 1017,5 hPa 0,0 l/m 10,0 km/h (2 Bft) SW 233 0 min 0,000 mm 0,0 UV-I 7 W/m 14,7 C 14,6 C 14,5 km/h (3 Bft) 96,23 %
02.07.2017 21:08 16,3 C 21,7 C 90 % 1017,5 hPa 0,0 l/m 9,3 km/h (2 Bft) S-SW 194 0 min 0,000 mm 0,0 UV-I 7 W/m 14,7 C 14,9 C 14,5 km/h (3 Bft) 100,00 %
02.07.2017 21:10 16,2 C 21,7 C 90 % 1017,5 hPa 0,0 l/m 10,3 km/h (2 Bft) W-SW 246 0 min 0,000 mm 0,0 UV-I 7 W/m 14,6 C 14,3 C 17,7 km/h (3 Bft) 98,00 %
02.07.2017 21:12 16,2 C 21,7 C 90 % 1017,5 hPa 0,0 l/m 12,2 km/h (2 Bft) SW 226 0 min 0,000 mm 0,0 UV-I 7 W/m 14,6 C 13,6 C 17,7 km/h (3 Bft) 97,87 %
02.07.2017 21:14 16,2 C 21,7 C 90 % 1017,6 hPa 0,0 l/m 12,9 km/h (3 Bft) SW 229 0 min 0,000 mm 0,0 UV-I 5 W/m 14,6 C 13,3 C 20,9 km/h (4 Bft) 97,87 %
02.07.2017 21:16 16,2 C 21,7 C 90 % 1017,6 hPa 0,0 l/m 11,6 km/h (2 Bft) W-SW 242 0 min 0,000 mm 0,0 UV-I 5 W/m 14,6 C 13,8 C 17,7 km/h (3 Bft) 97,73 %
02.07.2017 21:18 16,2 C 21,7 C 90 % 1017,6 hPa 0,0 l/m 10,6 km/h (2 Bft) W-SW 246 0 min 0,000 mm 0,0 UV-I 5 W/m 14,6 C 14,2 C 17,7 km/h (3 Bft) 97,56 %
02.07.2017 21:20 16,1 C 21,7 C 89 % 1017,6 hPa 0,0 l/m 12,3 km/h (3 Bft) SW 224 0 min 0,000 mm 0,0 UV-I 4 W/m 14,3 C 13,4 C 19,3 km/h (3 Bft) 94,34 %
02.07.2017 21:22 16,1 C 21,7 C 89 % 1017,7 hPa 0,0 l/m 11,8 km/h (2 Bft) SW 225 0 min 0,000 mm 0,0 UV-I 0 W/m 14,3 C 13,6 C 19,3 km/h (3 Bft) 93,18 %
02.07.2017 21:24 16,1 C 21,7 C 89 % 1017,6 hPa 0,0 l/m 13,7 km/h (3 Bft) SW 216 0 min 0,000 mm 0,0 UV-I 0 W/m 14,3 C 12,9 C 20,9 km/h (4 Bft) 92,00 %
02.07.2017 21:26 16,1 C 21,7 C 89 % 1017,6 hPa 0,0 l/m 12,9 km/h (3 Bft) SW 236 0 min 0,000 mm 0,0 UV-I 0 W/m 14,3 C 13,2 C 24,1 km/h (4 Bft) 94,00 %
02.07.2017 21:28 16,0 C 21,7 C 89 % 1017,6 hPa 0,0 l/m 14,1 km/h (3 Bft) W-SW 246 0 min 0,000 mm 0,0 UV-I 0 W/m 14,2 C 12,7 C 20,9 km/h (4 Bft) 97,22 %
02.07.2017 21:30 15,9 C 21,1 C 89 % 1017,6 hPa 0,0 l/m 13,5 km/h (3 Bft) W-SW 250 0 min 0,000 mm 0,0 UV-I 0 W/m 14,1 C 12,8 C 22,5 km/h (4 Bft) 92,86 %
02.07.2017 21:32 15,9 C 21,1 C 89 % 1017,7 hPa 0,0 l/m 17,0 km/h (3 Bft) SW 228 0 min 0,000 mm 0,0 UV-I 0 W/m 14,1 C 11,7 C 24,1 km/h (4 Bft) 96,23 %
02.07.2017 21:34 15,9 C 21,1 C 89 % 1017,6 hPa 0,0 l/m 13,7 km/h (3 Bft) SW 235 0 min 0,000 mm 0,0 UV-I 0 W/m 14,1 C 12,7 C 22,5 km/h (4 Bft) 94,74 %
02.07.2017 21:36 15,9 C 21,1 C 89 % 1017,7 hPa 0,0 l/m 16,9 km/h (3 Bft) W-SW 252 0 min 0,000 mm 0,0 UV-I 0 W/m 14,1 C 11,7 C 27,4 km/h (4 Bft) 94,64 %
02.07.2017 21:38 15,9 C 21,1 C 89 % 1017,8 hPa 0,0 l/m 15,1 km/h (3 Bft) SW 236 0 min 0,000 mm 0,0 UV-I 0 W/m 14,1 C 12,3 C 22,5 km/h (4 Bft) 95,74 %
02.07.2017 21:40 15,9 C 21,1 C 89 % 1017,8 hPa 0,0 l/m 14,6 km/h (3 Bft) W-SW 238 0 min 0,000 mm 0,0 UV-I 0 W/m 14,1 C 12,4 C 22,5 km/h (4 Bft) 90,24 %
02.07.2017 21:42 15,9 C 21,1 C 89 % 1017,9 hPa 0,0 l/m 18,3 km/h (3 Bft) SW 219 0 min 0,000 mm 0,0 UV-I 0 W/m 14,1 C 11,3 C 24,1 km/h (4 Bft) 95,12 %
02.07.2017 21:44 15,8 C 21,1 C 89 % 1017,8 hPa 0,0 l/m 14,6 km/h (3 Bft) S-SW 211 0 min 0,000 mm 0,0 UV-I 0 W/m 14,0 C 12,3 C 20,9 km/h (4 Bft) 94,34 %
02.07.2017 21:46 15,9 C 21,1 C 89 % 1017,8 hPa 0,0 l/m 11,7 km/h (2 Bft) SW 226 0 min 0,000 mm 0,0 UV-I 0 W/m 14,1 C 13,4 C 14,5 km/h (3 Bft) 97,56 %
02.07.2017 21:48 15,9 C 21,1 C 89 % 1017,8 hPa 0,0 l/m 15,4 km/h (3 Bft) W-SW 251 0 min 0,000 mm 0,0 UV-I 0 W/m 14,1 C 12,2 C 19,3 km/h (3 Bft) 95,12 %
02.07.2017 21:50 15,9 C 21,1 C 89 % 1017,9 hPa 0,0 l/m 16,7 km/h (3 Bft) SW 235 0 min 0,000 mm 0,0 UV-I 0 W/m 14,1 C 11,8 C 27,4 km/h (4 Bft) 96,43 %
02.07.2017 21:52 15,9 C 21,1 C 89 % 1017,9 hPa 0,0 l/m 15,5 km/h (3 Bft) W-SW 238 0 min 0,000 mm 0,0 UV-I 0 W/m 14,1 C 12,1 C 27,4 km/h (4 Bft) 97,87 %
02.07.2017 21:54 15,9 C 21,1 C 89 % 1017,9 hPa 0,0 l/m 15,2 km/h (3 Bft) SW 228 0 min 0,000 mm 0,0 UV-I 0 W/m 14,1 C 12,2 C 24,1 km/h (4 Bft) 94,34 %
02.07.2017 21:56 15,9 C 21,1 C 89 % 1017,9 hPa 0,0 l/m 11,0 km/h (2 Bft) SW 227 0 min 0,000 mm 0,0 UV-I 0 W/m 14,1 C 13,7 C 16,1 km/h (3 Bft) 94,74 %
02.07.2017 21:58 15,9 C 21,1 C 89 % 1018,0 hPa 0,0 l/m 12,5 km/h (3 Bft) SW 219 0 min 0,000 mm 0,0 UV-I 0 W/m 14,1 C 13,1 C 22,5 km/h (4 Bft) 96,43 %
02.07.2017 22:00 15,9 C 21,1 C 89 % 1018,0 hPa 0,0 l/m 10,1 km/h (2 Bft) W-SW 242 0 min 0,000 mm 0,0 UV-I 0 W/m 14,1 C 14,1 C 19,3 km/h (3 Bft) 92,68 %
02.07.2017 22:02 15,9 C 21,1 C 89 % 1018,0 hPa 0,0 l/m 12,7 km/h (3 Bft) SW 227 0 min 0,025 mm 0,0 UV-I 0 W/m 14,1 C 13,1 C 20,9 km/h (4 Bft) 96,00 %
02.07.2017 22:04 15,9 C 21,1 C 89 % 1018,0 hPa 0,0 l/m 10,9 km/h (2 Bft) S-SW 193 0 min 0,000 mm 0,0 UV-I 0 W/m 14,1 C 13,7 C 16,1 km/h (3 Bft) 91,67 %
02.07.2017 22:06 15,9 C 21,1 C 89 % 1018,0 hPa 0,0 l/m 12,0 km/h (2 Bft) SW 229 0 min 0,000 mm 0,0 UV-I 0 W/m 14,1 C 13,3 C 17,7 km/h (3 Bft) 98,44 %
02.07.2017 22:08 15,9 C 21,1 C 89 % 1018,0 hPa 0,0 l/m 8,9 km/h (2 Bft) W-SW 245 0 min 0,000 mm 0,0 UV-I 0 W/m 14,1 C 14,6 C 14,5 km/h (3 Bft) 95,74 %
02.07.2017 22:10 15,9 C 21,1 C 89 % 1018,1 hPa 0,0 l/m 10,6 km/h (2 Bft) SW 219 0 min 0,000 mm 0,0 UV-I 0 W/m 14,1 C 13,9 C 17,7 km/h (3 Bft) 96,00 %
02.07.2017 22:12 15,9 C 21,1 C 89 % 1018,1 hPa 0,0 l/m 7,6 km/h (2 Bft) SW 226 0 min 0,000 mm 0,0 UV-I 0 W/m 14,1 C 15,3 C 12,9 km/h (3 Bft) 96,00 %
02.07.2017 22:14 15,9 C 21,1 C 89 % 1018,0 hPa 0,0 l/m 9,3 km/h (2 Bft) SW 229 0 min 0,000 mm 0,0 UV-I 0 W/m 14,1 C 14,4 C 16,1 km/h (3 Bft) 94,00 %
02.07.2017 22:16 15,9 C 21,1 C 89 % 1018,1 hPa 0,0 l/m 10,3 km/h (2 Bft) W-SW 246 0 min 0,000 mm 0,0 UV-I 0 W/m 14,1 C 14,0 C 14,5 km/h (3 Bft) 97,73 %
02.07.2017 22:18 15,9 C 21,1 C 89 % 1018,1 hPa 0,0 l/m 9,1 km/h (2 Bft) SW 223 0 min 0,000 mm 0,0 UV-I 0 W/m 14,1 C 14,5 C 14,5 km/h (3 Bft) 97,56 %
02.07.2017 22:20 15,9 C 21,1 C 89 % 1018,1 hPa 0,0 l/m 8,3 km/h (2 Bft) SW 236 0 min 0,000 mm 0,0 UV-I 0 W/m 14,1 C 14,9 C 16,1 km/h (3 Bft) 95,45 %
02.07.2017 22:22 15,9 C 21,1 C 89 % 1018,0 hPa 0,0 l/m 8,3 km/h (2 Bft) SW 236 0 min 0,000 mm 0,0 UV-I 0 W/m 14,1 C 14,9 C 12,9 km/h (3 Bft) 98,11 %
02.07.2017 22:24 15,9 C 21,1 C 89 % 1018,0 hPa 0,0 l/m 10,7 km/h (2 Bft) S-SW 196 0 min 0,000 mm 0,0 UV-I 0 W/m 14,1 C 13,8 C 16,1 km/h (3 Bft) 97,73 %
02.07.2017 22:26 15,9 C 21,1 C 89 % 1018,0 hPa 0,0 l/m 10,3 km/h (2 Bft) S-SW 205 0 min 0,000 mm 0,0 UV-I 0 W/m 14,1 C 14,0 C 17,7 km/h (3 Bft) 96,00 %
02.07.2017 22:28 15,9 C 21,1 C 89 % 1018,0 hPa 0,0 l/m 8,8 km/h (2 Bft) S-SW 204 0 min 0,000 mm 0,0 UV-I 0 W/m 14,1 C 14,7 C 12,9 km/h (3 Bft) 97,37 %
02.07.2017 22:30 15,9 C 21,1 C 90 % 1018,1 hPa 0,0 l/m 10,4 km/h (2 Bft) W-SW 241 0 min 0,000 mm 0,0 UV-I 0 W/m 14,3 C 13,9 C 14,5 km/h (3 Bft) 98,31 %
02.07.2017 22:32 15,9 C 21,1 C 90 % 1018,1 hPa 0,0 l/m 8,8 km/h (2 Bft) SW 215 0 min 0,000 mm 0,0 UV-I 0 W/m 14,3 C 14,7 C 16,1 km/h (3 Bft) 97,56 %
02.07.2017 22:34 15,9 C 21,1 C 90 % 1018,1 hPa 0,0 l/m 7,6 km/h (2 Bft) SW 219 0 min 0,000 mm 0,0 UV-I 0 W/m 14,3 C 15,3 C 12,9 km/h (3 Bft) 100,00 %
02.07.2017 22:36 15,9 C 21,1 C 90 % 1018,1 hPa 0,0 l/m 10,1 km/h (2 Bft) W-SW 253 0 min 0,000 mm 0,0 UV-I 0 W/m 14,3 C 14,1 C 16,1 km/h (3 Bft) 95,74 %
02.07.2017 22:38 15,9 C 21,1 C 90 % 1018,0 hPa 0,0 l/m 9,2 km/h (2 Bft) S-SO 163 0 min 0,000 mm 0,0 UV-I 0 W/m 14,3 C 14,5 C 14,5 km/h (3 Bft) 97,87 %
02.07.2017 22:40 15,9 C 21,1 C 90 % 1018,0 hPa 0,0 l/m 9,0 km/h (2 Bft) W-SW 241 0 min 0,000 mm 0,0 UV-I 0 W/m 14,3 C 14,6 C 14,5 km/h (3 Bft) 98,00 %
02.07.2017 22:42 15,8 C 21,1 C 90 % 1018,0 hPa 0,0 l/m 10,1 km/h (2 Bft) SW 236 0 min 0,000 mm 0,0 UV-I 0 W/m 14,2 C 14,0 C 14,5 km/h (3 Bft) 97,87 %
02.07.2017 22:44 15,9 C 21,1 C 90 % 1018,1 hPa 0,0 l/m 8,8 km/h (2 Bft) SW 221 0 min 0,000 mm 0,0 UV-I 0 W/m 14,3 C 14,7 C 14,5 km/h (3 Bft) 97,62 %
02.07.2017 22:46 15,8 C 21,1 C 90 % 1018,0 hPa 0,0 l/m 9,8 km/h (2 Bft) SW 223 0 min 0,000 mm 0,0 UV-I 0 W/m 14,2 C 14,1 C 16,1 km/h (3 Bft) 96,23 %
02.07.2017 22:48 15,8 C 21,1 C 90 % 1018,0 hPa 0,0 l/m 8,5 km/h (2 Bft) SW 221 0 min 0,000 mm 0,0 UV-I 0 W/m 14,2 C 14,7 C 16,1 km/h (3 Bft) 97,62 %
02.07.2017 22:50 15,8 C 21,1 C 90 % 1018,0 hPa 0,0 l/m 11,2 km/h (2 Bft) SW 219 0 min 0,000 mm 0,0 UV-I 0 W/m 14,2 C 13,5 C 20,9 km/h (4 Bft) 98,00 %
02.07.2017 22:52 15,8 C 21,1 C 90 % 1018,0 hPa 0,0 l/m 8,4 km/h (2 Bft) S-SW 192 0 min 0,000 mm 0,0 UV-I 0 W/m 14,2 C 14,7 C 12,9 km/h (3 Bft) 100,00 %
02.07.2017 22:54 15,8 C 21,1 C 90 % 1018,0 hPa 0,0 l/m 11,1 km/h (2 Bft) S-SW 208 0 min 0,000 mm 0,0 UV-I 0 W/m 14,2 C 13,5 C 19,3 km/h (3 Bft) 97,37 %
02.07.2017 22:56 15,8 C 21,1 C 90 % 1018,1 hPa 0,0 l/m 9,5 km/h (2 Bft) W-SW 240 0 min 0,000 mm 0,0 UV-I 0 W/m 14,2 C 14,2 C 16,1 km/h (3 Bft) 98,21 %
02.07.2017 22:58 15,8 C 21,1 C 90 % 1018,2 hPa 0,0 l/m 9,4 km/h (2 Bft) SW 223 0 min 0,000 mm 0,0 UV-I 0 W/m 14,2 C 14,3 C 14,5 km/h (3 Bft) 100,00 %
02.07.2017 23:00 15,8 C 21,1 C 90 % 1018,2 hPa 0,0 l/m 8,0 km/h (2 Bft) SW 236 0 min 0,000 mm 0,0 UV-I 0 W/m 14,2 C 14,9 C 12,9 km/h (3 Bft) 96,43 %
02.07.2017 23:02 15,8 C 21,1 C 90 % 1018,2 hPa 0,0 l/m 9,1 km/h (2 Bft) W-SW 245 0 min 0,025 mm 0,0 UV-I 0 W/m 14,2 C 14,4 C 16,1 km/h (3 Bft) 96,15 %
02.07.2017 23:04 15,8 C 21,1 C 90 % 1018,2 hPa 0,0 l/m 8,9 km/h (2 Bft) S-SW 205 0 min 0,000 mm 0,0 UV-I 0 W/m 14,2 C 14,5 C 12,9 km/h (3 Bft) 98,21 %
02.07.2017 23:06 15,8 C 21,1 C 90 % 1018,2 hPa 0,0 l/m 11,8 km/h (2 Bft) W-SW 243 0 min 0,000 mm 0,0 UV-I 0 W/m 14,2 C 13,3 C 16,1 km/h (3 Bft) 98,31 %
02.07.2017 23:08 15,8 C 21,1 C 90 % 1018,2 hPa 0,0 l/m 10,0 km/h (2 Bft) W-SW 237 0 min 0,000 mm 0,0 UV-I 0 W/m 14,2 C 14,0 C 14,5 km/h (3 Bft) 97,73 %
02.07.2017 23:10 15,8 C 21,1 C 90 % 1018,2 hPa 0,0 l/m 13,3 km/h (3 Bft) SW 214 0 min 0,000 mm 0,0 UV-I 0 W/m 14,2 C 12,7 C 20,9 km/h (4 Bft) 96,00 %
02.07.2017 23:12 15,8 C 21,1 C 90 % 1018,2 hPa 0,0 l/m 10,6 km/h (2 Bft) SW 227 0 min 0,000 mm 0,0 UV-I 0 W/m 14,2 C 13,7 C 17,7 km/h (3 Bft) 97,87 %
02.07.2017 23:14 15,8 C 21,1 C 90 % 1018,2 hPa 0,0 l/m 16,8 km/h (3 Bft) W 265 0 min 0,000 mm 0,0 UV-I 0 W/m 14,2 C 11,6 C 24,1 km/h (4 Bft) 92,11 %
02.07.2017 23:16 15,8 C 21,1 C 90 % 1018,2 hPa 0,0 l/m 9,7 km/h (2 Bft) SW 236 0 min 0,000 mm 0,0 UV-I 0 W/m 14,2 C 14,1 C 17,7 km/h (3 Bft) 96,43 %
02.07.2017 23:18 15,8 C 21,1 C 90 % 1018,2 hPa 0,0 l/m 16,0 km/h (3 Bft) W-SW 252 0 min 0,000 mm 0,0 UV-I 0 W/m 14,2 C 11,9 C 20,9 km/h (4 Bft) 97,14 %
02.07.2017 23:20 15,9 C 21,1 C 90 % 1018,2 hPa 0,0 l/m 13,3 km/h (3 Bft) SW 229 0 min 0,000 mm 0,0 UV-I 0 W/m 14,3 C 12,8 C 20,9 km/h (4 Bft) 98,21 %
02.07.2017 23:22 15,8 C 21,1 C 90 % 1018,2 hPa 0,0 l/m 13,1 km/h (3 Bft) W-SW 241 0 min 0,000 mm 0,0 UV-I 0 W/m 14,2 C 12,8 C 19,3 km/h (3 Bft) 96,00 %
02.07.2017 23:24 15,8 C 21,1 C 90 % 1018,2 hPa 0,0 l/m 14,5 km/h (3 Bft) S-SW 207 0 min 0,000 mm 0,0 UV-I 0 W/m 14,2 C 12,3 C 20,9 km/h (4 Bft) 94,87 %
02.07.2017 23:26 15,8 C 21,1 C 90 % 1018,2 hPa 0,0 l/m 9,7 km/h (2 Bft) W-SW 246 0 min 0,000 mm 0,0 UV-I 0 W/m 14,2 C 14,1 C 16,1 km/h (3 Bft) 95,74 %
02.07.2017 23:28 15,8 C 21,1 C 90 % 1018,2 hPa 0,0 l/m 8,9 km/h (2 Bft) SW 216 0 min 0,000 mm 0,0 UV-I 0 W/m 14,2 C 14,5 C 14,5 km/h (3 Bft) 95,12 %
02.07.2017 23:30 15,8 C 21,1 C 90 % 1018,2 hPa 0,0 l/m 8,4 km/h (2 Bft) S-SW 198 0 min 0,000 mm 0,0 UV-I 0 W/m 14,2 C 14,7 C 12,9 km/h (3 Bft) 96,43 %
02.07.2017 23:32 15,8 C 21,1 C 90 % 1018,2 hPa 0,0 l/m 10,7 km/h (2 Bft) SW 223 0 min 0,000 mm 0,0 UV-I 0 W/m 14,2 C 13,7 C 19,3 km/h (3 Bft) 94,74 %
02.07.2017 23:34 15,8 C 21,1 C 90 % 1018,3 hPa 0,0 l/m 11,0 km/h (2 Bft) SW 227 0 min 0,000 mm 0,0 UV-I 0 W/m 14,2 C 13,6 C 17,7 km/h (3 Bft) 96,23 %
02.07.2017 23:36 15,8 C 21,1 C 90 % 1018,3 hPa 0,0 l/m 10,3 km/h (2 Bft) W-SW 237 0 min 0,000 mm 0,0 UV-I 0 W/m 14,2 C 13,9 C 14,5 km/h (3 Bft) 96,23 %
02.07.2017 23:38 15,8 C 21,1 C 90 % 1018,3 hPa 0,0 l/m 10,9 km/h (2 Bft) SW 227 0 min 0,000 mm 0,0 UV-I 0 W/m 14,2 C 13,6 C 17,7 km/h (3 Bft) 95,74 %
02.07.2017 23:40 15,8 C 21,1 C 90 % 1018,3 hPa 0,0 l/m 11,7 km/h (2 Bft) SW 226 0 min 0,000 mm 0,0 UV-I 0 W/m 14,2 C 13,3 C 19,3 km/h (3 Bft) 94,74 %
02.07.2017 23:42 15,8 C 21,1 C 90 % 1018,2 hPa 0,0 l/m 10,3 km/h (2 Bft) S-SW 213 0 min 0,000 mm 0,0 UV-I 0 W/m 14,2 C 13,9 C 16,1 km/h (3 Bft) 96,43 %
02.07.2017 23:44 15,8 C 21,1 C 90 % 1018,3 hPa 0,0 l/m 11,9 km/h (2 Bft) W-SW 244 0 min 0,000 mm 0,0 UV-I 0 W/m 14,2 C 13,2 C 16,1 km/h (3 Bft) 94,74 %
02.07.2017 23:46 15,8 C 21,1 C 90 % 1018,3 hPa 0,0 l/m 12,9 km/h (3 Bft) W-SW 257 0 min 0,000 mm 0,0 UV-I 0 W/m 14,2 C 12,9 C 20,9 km/h (4 Bft) 100,00 %
02.07.2017 23:48 15,8 C 21,1 C 90 % 1018,3 hPa 0,0 l/m 10,8 km/h (2 Bft) S-SW 205 0 min 0,000 mm 0,0 UV-I 0 W/m 14,2 C 13,7 C 19,3 km/h (3 Bft) 94,74 %
02.07.2017 23:50 15,8 C 21,1 C 90 % 1018,4 hPa 0,0 l/m 10,1 km/h (2 Bft) SW 230 0 min 0,000 mm 0,0 UV-I 0 W/m 14,2 C 14,0 C 17,7 km/h (3 Bft) 100,00 %
02.07.2017 23:52 15,8 C 21,1 C 90 % 1018,4 hPa 0,0 l/m 8,7 km/h (2 Bft) W-SW 246 0 min 0,000 mm 0,0 UV-I 0 W/m 14,2 C 14,6 C 14,5 km/h (3 Bft) 98,00 %
02.07.2017 23:54 15,8 C 21,1 C 90 % 1018,3 hPa 0,0 l/m 9,9 km/h (2 Bft) S-SW 201 0 min 0,000 mm 0,0 UV-I 0 W/m 14,2 C 14,0 C 12,9 km/h (3 Bft) 97,56 %
02.07.2017 23:56 15,8 C 21,1 C 90 % 1018,4 hPa 0,0 l/m 11,5 km/h (2 Bft) W-SW 242 0 min 0,000 mm 0,0 UV-I 0 W/m 14,2 C 13,4 C 19,3 km/h (3 Bft) 100,00 %
02.07.2017 23:58 15,8 C 21,1 C 90 % 1018,3 hPa 0,0 l/m 8,4 km/h (2 Bft) SW 233 0 min 0,000 mm 0,0 UV-I 0 W/m 14,2 C 14,7 C 14,5 km/h (3 Bft) 98,18 %
_ Min-Zeit 08:06 08:38 00:00 00:02 - 20:44 - - - - - - 04:12 07:10 20:44 09:34
Minimum _ 14,2 C 21,1 C 66 % 1012,8 hPa - 4,1 km/h (1 Bft) - - - - - - 10,6 C 9,7 C 4,8 km/h (1 Bft) 84,21 %
_ Max-Zeit 16:38 00:00 10:56 23:50 07:04 17:28 - - 17:33 16:00 14:20 14:22 14:16 15:32 18:12 00:04
Maximum _ 21,0 C 22,8 C 95 % 1018,4 hPa 0,2 l/m 24,9 km/h
W (4 Bft)
- - 3 min 0,331 mm 6,0 UV-I 1020 W/m 15,8 C 19,4 C 41,8 km/h
W (6 Bft)
100,00 %
Durchschnitt _ 16,6 C 21,6 C 81 % 1015,4 hPa #2,8 l/m 12,5 km/h (3 Bft) W-SW - #1:28 h #2,438 mm 1,8 UV-I 173 W/m 13,3 C 14,2 C 19,4 km/h (3 Bft) 96,49 %